[[{"header":{"parameterUnit":"m.s-1","parameterCategory":1,"la1":30.6,"la2":29.2853,"lo1":-89.7004,"lo2":-87.6739,"dx":0.0162,"dy":0.0183,"nx":112,"ny":82,"refTime":"2023-02-09T06:00:00:Z","depth":0,"parameterNumber":2,"parameterNumberName":"U-component_of_WINDS"},"data":[0.0,0.0,0.0,0.0,0.0,0.0,0.0,0.0,0.0,0.0,0.0,0.0,0.0,0.0,0.0,0.0,0.0,0.0,0.0,0.0,0.0,0.0,0.0,0.0,0.0,0.0,0.0,0.0,0.0,0.0,0.0,0.0,0.0,0.0,0.0,0.0,0.0,0.0,0.0,0.0,0.0,0.0,0.0,0.0,0.0,0.0,0.0,0.0,0.0,0.0,0.0,0.0,0.0,0.0,0.0,0.0,0.0,0.0,0.0,0.0,0.0,0.0,0.0,0.0,0.0,0.0,0.0,0.0,0.0,0.0,0.0,0.0,0.0,0.0,0.0,0.0,0.0,0.0,0.0,0.0,0.0,0.0,0.0,0.0,0.0,0.0,0.0,0.0,0.0,0.0,-2.9751,-3.0075,-3.0166,-3.0138,-2.9988,-2.9476,-2.8964,-2.8485,0.0,0.0,0.0,0.0,0.0,0.0,0.0,0.0,0.0,0.0,0.0,0.0,0.0,0.0,0.0,0.0,0.0,0.0,0.0,0.0,0.0,0.0,0.0,0.0,0.0,0.0,0.0,0.0,0.0,0.0,0.0,0.0,0.0,0.0,0.0,0.0,0.0,0.0,0.0,0.0,0.0,0.0,0.0,0.0,0.0,0.0,0.0,0.0,0.0,0.0,0.0,0.0,0.0,0.0,0.0,0.0,0.0,0.0,0.0,0.0,0.0,0.0,0.0,0.0,0.0,0.0,0.0,0.0,0.0,0.0,0.0,0.0,0.0,0.0,0.0,0.0,0.0,0.0,0.0,0.0,0.0,0.0,0.0,0.0,0.0,0.0,0.0,0.0,0.0,0.0,0.0,0.0,0.0,0.0,0.0,0.0,0.0,0.0,0.0,0.0,0.0,0.0,0.0,0.0,-2.9855,-3.024,-3.0166,-3.0045,-2.9853,-2.9339,-2.8819,-2.8376,0.0,0.0,0.0,0.0,0.0,0.0,0.0,0.0,0.0,0.0,0.0,0.0,0.0,0.0,0.0,0.0,0.0,0.0,0.0,0.0,0.0,0.0,0.0,0.0,0.0,0.0,0.0,0.0,0.0,0.0,0.0,0.0,0.0,0.0,0.0,0.0,0.0,0.0,0.0,0.0,0.0,0.0,0.0,0.0,0.0,0.0,0.0,0.0,0.0,0.0,0.0,0.0,0.0,0.0,0.0,0.0,0.0,0.0,0.0,0.0,0.0,0.0,0.0,0.0,0.0,0.0,0.0,0.0,0.0,0.0,0.0,0.0,0.0,0.0,0.0,0.0,0.0,0.0,0.0,0.0,0.0,0.0,0.0,0.0,0.0,0.0,0.0,0.0,0.0,0.0,0.0,0.0,0.0,0.0,0.0,0.0,0.0,0.0,0.0,0.0,0.0,0.0,0.0,-2.9607,-2.9888,-3.006,-3.003,-2.9921,-2.9697,-2.9318,-2.8883,-2.8324,-2.7992,0.0,0.0,0.0,0.0,0.0,0.0,0.0,0.0,0.0,0.0,0.0,0.0,0.0,0.0,0.0,0.0,0.0,0.0,0.0,0.0,0.0,0.0,0.0,0.0,0.0,0.0,0.0,0.0,0.0,0.0,0.0,0.0,0.0,0.0,0.0,0.0,0.0,0.0,0.0,0.0,0.0,0.0,0.0,0.0,0.0,0.0,0.0,0.0,0.0,0.0,0.0,0.0,0.0,0.0,0.0,0.0,0.0,0.0,0.0,0.0,0.0,0.0,0.0,0.0,0.0,0.0,0.0,0.0,0.0,0.0,0.0,0.0,0.0,0.0,0.0,0.0,0.0,0.0,0.0,0.0,0.0,0.0,0.0,0.0,0.0,0.0,0.0,0.0,0.0,0.0,0.0,0.0,0.0,0.0,0.0,0.0,0.0,0.0,0.0,0.0,0.0,0.0,-2.9715,-2.9918,-2.9918,-2.9886,-2.9786,-2.9589,-2.9334,-2.8925,-2.8298,-2.7974,0.0,0.0,0.0,0.0,0.0,0.0,0.0,0.0,0.0,0.0,0.0,0.0,0.0,0.0,0.0,0.0,0.0,0.0,0.0,0.0,0.0,0.0,0.0,0.0,0.0,0.0,0.0,0.0,0.0,0.0,0.0,0.0,0.0,0.0,0.0,0.0,0.0,0.0,0.0,0.0,0.0,0.0,0.0,0.0,0.0,0.0,0.0,0.0,0.0,0.0,0.0,0.0,0.0,0.0,0.0,0.0,0.0,0.0,0.0,0.0,0.0,0.0,0.0,0.0,0.0,0.0,0.0,0.0,0.0,0.0,0.0,0.0,0.0,0.0,0.0,0.0,0.0,0.0,0.0,0.0,0.0,0.0,0.0,0.0,0.0,0.0,0.0,0.0,0.0,0.0,0.0,0.0,0.0,0.0,0.0,0.0,0.0,0.0,0.0,0.0,0.0,0.0,-2.9782,-2.9992,-2.9992,-2.9815,-2.9661,-2.9514,-2.927,-2.8803,-2.8156,-2.7747,0.0,0.0,0.0,0.0,0.0,0.0,0.0,0.0,0.0,0.0,0.0,0.0,0.0,0.0,0.0,0.0,0.0,0.0,0.0,0.0,0.0,0.0,0.0,0.0,0.0,0.0,0.0,0.0,0.0,0.0,0.0,0.0,0.0,0.0,0.0,0.0,0.0,0.0,0.0,0.0,0.0,0.0,0.0,0.0,0.0,0.0,0.0,0.0,0.0,0.0,0.0,0.0,0.0,0.0,0.0,0.0,0.0,0.0,0.0,0.0,0.0,0.0,0.0,0.0,0.0,0.0,0.0,0.0,0.0,0.0,0.0,0.0,0.0,0.0,0.0,0.0,0.0,0.0,0.0,0.0,0.0,0.0,0.0,0.0,0.0,0.0,0.0,0.0,0.0,0.0,0.0,0.0,0.0,0.0,0.0,0.0,0.0,0.0,0.0,0.0,0.0,0.0,-2.957,-2.9681,-2.9644,-2.9589,-2.9494,-2.9332,-2.9052,-2.8682,-2.8129,0.0,0.0,0.0,0.0,0.0,0.0,0.0,0.0,0.0,0.0,0.0,0.0,0.0,0.0,0.0,0.0,0.0,0.0,0.0,0.0,0.0,0.0,0.0,0.0,0.0,0.0,0.0,0.0,0.0,0.0,0.0,0.0,0.0,0.0,0.0,0.0,0.0,0.0,0.0,0.0,0.0,0.0,0.0,0.0,0.0,0.0,0.0,0.0,0.0,0.0,0.0,0.0,0.0,0.0,0.0,0.0,0.0,0.0,0.0,0.0,0.0,0.0,0.0,0.0,0.0,0.0,0.0,0.0,0.0,0.0,0.0,0.0,0.0,0.0,0.0,0.0,0.0,0.0,0.0,0.0,0.0,0.0,0.0,0.0,0.0,0.0,0.0,0.0,0.0,0.0,0.0,0.0,0.0,0.0,0.0,0.0,0.0,0.0,0.0,0.0,0.0,0.0,-2.9286,-2.9411,-2.9472,-2.9453,-2.9472,-2.9392,-2.9222,-2.898,-2.8583,-2.7946,0.0,0.0,0.0,0.0,0.0,0.0,0.0,0.0,0.0,0.0,0.0,0.0,0.0,0.0,0.0,0.0,0.0,0.0,0.0,0.0,0.0,0.0,0.0,0.0,0.0,0.0,0.0,0.0,0.0,0.0,0.0,0.0,0.0,0.0,0.0,0.0,0.0,0.0,0.0,0.0,0.0,0.0,0.0,0.0,0.0,0.0,0.0,0.0,0.0,0.0,0.0,0.0,0.0,0.0,0.0,0.0,0.0,0.0,0.0,0.0,0.0,0.0,0.0,0.0,0.0,0.0,0.0,0.0,0.0,0.0,0.0,0.0,0.0,0.0,0.0,0.0,0.0,0.0,0.0,0.0,0.0,0.0,0.0,0.0,0.0,0.0,0.0,0.0,0.0,0.0,0.0,0.0,0.0,0.0,0.0,0.0,0.0,0.0,0.0,0.0,0.0,0.0,-2.9293,-2.9353,-2.9453,-2.9588,-2.9491,-2.9351,-2.92,-2.9021,-2.8489,0.0,0.0,0.0,0.0,0.0,0.0,0.0,0.0,0.0,0.0,0.0,0.0,0.0,0.0,0.0,0.0,0.0,0.0,0.0,0.0,0.0,0.0,0.0,0.0,0.0,0.0,0.0,0.0,0.0,0.0,0.0,0.0,0.0,0.0,0.0,0.0,0.0,0.0,0.0,0.0,0.0,0.0,0.0,0.0,0.0,0.0,0.0,0.0,0.0,0.0,0.0,0.0,0.0,0.0,0.0,0.0,0.0,0.0,0.0,0.0,0.0,0.0,0.0,0.0,0.0,0.0,0.0,0.0,0.0,0.0,0.0,0.0,0.0,0.0,0.0,0.0,0.0,0.0,0.0,0.0,0.0,0.0,0.0,0.0,0.0,0.0,0.0,0.0,0.0,0.0,0.0,0.0,0.0,0.0,0.0,0.0,0.0,0.0,0.0,0.0,0.0,0.0,0.0,-2.9286,-2.937,-2.9412,-2.9453,-2.937,-2.9283,-2.9134,-2.8682,-2.8156,-2.7525,0.0,0.0,0.0,0.0,0.0,0.0,0.0,0.0,0.0,0.0,0.0,0.0,0.0,0.0,0.0,0.0,0.0,0.0,0.0,0.0,0.0,0.0,0.0,0.0,0.0,0.0,0.0,0.0,0.0,0.0,0.0,0.0,0.0,0.0,0.0,0.0,0.0,0.0,0.0,0.0,0.0,0.0,0.0,0.0,0.0,0.0,0.0,0.0,0.0,0.0,0.0,0.0,0.0,0.0,0.0,0.0,0.0,0.0,0.0,0.0,0.0,0.0,0.0,0.0,0.0,0.0,0.0,0.0,0.0,0.0,0.0,0.0,0.0,0.0,0.0,0.0,0.0,0.0,0.0,0.0,0.0,0.0,0.0,0.0,0.0,0.0,0.0,0.0,0.0,0.0,0.0,0.0,0.0,0.0,0.0,0.0,0.0,0.0,0.0,0.0,0.0,0.0,-2.9302,-2.9368,-2.9411,-2.9392,-2.9307,-2.9197,-2.9085,-2.8515,-2.7974,-2.7417,0.0,0.0,0.0,0.0,0.0,0.0,0.0,0.0,0.0,0.0,0.0,0.0,0.0,0.0,0.0,0.0,0.0,0.0,0.0,0.0,0.0,0.0,0.0,0.0,0.0,0.0,0.0,0.0,0.0,0.0,0.0,0.0,0.0,0.0,0.0,0.0,0.0,0.0,0.0,0.0,0.0,0.0,0.0,0.0,0.0,0.0,0.0,0.0,0.0,0.0,0.0,0.0,0.0,0.0,0.0,0.0,0.0,0.0,0.0,0.0,0.0,0.0,0.0,0.0,0.0,0.0,0.0,0.0,0.0,0.0,0.0,0.0,0.0,0.0,0.0,0.0,0.0,0.0,0.0,0.0,0.0,0.0,0.0,0.0,0.0,0.0,0.0,0.0,0.0,0.0,0.0,0.0,0.0,0.0,0.0,0.0,0.0,0.0,0.0,0.0,0.0,0.0,-2.9262,-2.9365,-2.9388,-2.9392,-2.9265,-2.9134,-2.9017,-2.8464,-2.7844,-2.7186,0.0,0.0,0.0,0.0,0.0,0.0,0.0,0.0,0.0,0.0,0.0,0.0,0.0,0.0,0.0,0.0,0.0,0.0,0.0,0.0,0.0,0.0,0.0,0.0,0.0,0.0,0.0,0.0,0.0,0.0,0.0,0.0,0.0,0.0,0.0,0.0,0.0,0.0,0.0,0.0,0.0,0.0,0.0,0.0,0.0,0.0,0.0,0.0,0.0,0.0,0.0,0.0,0.0,0.0,0.0,0.0,0.0,0.0,0.0,0.0,-4.0504,-4.0362,0.0,0.0,0.0,0.0,0.0,0.0,0.0,0.0,0.0,0.0,0.0,0.0,0.0,0.0,0.0,0.0,0.0,0.0,0.0,0.0,0.0,0.0,0.0,0.0,0.0,0.0,0.0,0.0,0.0,0.0,0.0,0.0,0.0,0.0,0.0,0.0,0.0,0.0,0.0,0.0,-2.9218,-2.9344,-2.9407,-2.9388,-2.9197,-2.904,-2.9017,-2.8112,-2.7339,-2.6768,-2.5773,0.0,0.0,0.0,0.0,0.0,0.0,0.0,0.0,0.0,0.0,0.0,0.0,0.0,0.0,0.0,0.0,0.0,0.0,0.0,0.0,0.0,0.0,0.0,0.0,0.0,0.0,0.0,0.0,0.0,0.0,0.0,0.0,0.0,0.0,0.0,0.0,0.0,0.0,0.0,0.0,0.0,0.0,0.0,0.0,0.0,0.0,0.0,0.0,0.0,0.0,0.0,0.0,0.0,0.0,0.0,0.0,0.0,0.0,0.0,-4.0226,-4.0519,0.0,0.0,0.0,0.0,0.0,0.0,0.0,0.0,0.0,0.0,0.0,0.0,0.0,0.0,0.0,0.0,0.0,0.0,0.0,0.0,0.0,0.0,0.0,0.0,0.0,0.0,0.0,0.0,0.0,0.0,0.0,0.0,0.0,0.0,0.0,0.0,0.0,0.0,0.0,0.0,-2.92,-2.9304,-2.9386,-2.9304,-2.898,-2.8664,-2.8496,-2.7607,-2.6901,-2.6438,-2.5422,0.0,0.0,0.0,0.0,0.0,0.0,0.0,0.0,0.0,0.0,0.0,0.0,0.0,0.0,0.0,0.0,0.0,0.0,0.0,0.0,0.0,0.0,0.0,0.0,0.0,0.0,0.0,0.0,0.0,0.0,0.0,0.0,0.0,0.0,0.0,0.0,0.0,0.0,0.0,0.0,0.0,0.0,0.0,0.0,0.0,0.0,0.0,0.0,0.0,0.0,0.0,0.0,0.0,-3.9555,-3.9247,-3.9182,-3.8454,-3.8098,-3.813,-3.9612,-4.0192,-4.0067,-3.9231,0.0,0.0,0.0,0.0,0.0,0.0,0.0,0.0,0.0,0.0,0.0,0.0,0.0,0.0,0.0,0.0,0.0,0.0,0.0,0.0,0.0,0.0,-3.3807,-3.3807,-3.3753,-3.3698,-3.3661,0.0,0.0,0.0,0.0,0.0,0.0,0.0,0.0,0.0,0.0,0.0,-2.9218,-2.9326,-2.9365,-2.92,-2.8785,-2.834,-2.7913,-2.7103,-2.6421,-2.6021,-2.5112,-2.4486,0.0,0.0,0.0,0.0,0.0,0.0,0.0,0.0,0.0,0.0,0.0,0.0,0.0,0.0,0.0,0.0,0.0,0.0,0.0,0.0,0.0,0.0,0.0,0.0,0.0,0.0,0.0,0.0,0.0,0.0,0.0,0.0,-4.0796,-4.0796,0.0,0.0,0.0,0.0,0.0,0.0,0.0,0.0,0.0,0.0,0.0,0.0,0.0,-3.9223,-3.8408,-3.8428,-3.8433,-3.8431,-3.8334,-3.8332,-3.8441,-3.8324,-3.8276,-3.8267,-3.838,0.0,-3.8251,-3.8105,0.0,0.0,0.0,0.0,0.0,0.0,0.0,0.0,0.0,0.0,0.0,0.0,0.0,0.0,0.0,0.0,0.0,0.0,0.0,0.0,0.0,0.0,-3.3807,-3.3807,-3.3788,-3.378,-3.378,-3.3671,-3.3605,-3.3605,-3.3643,-3.3662,0.0,0.0,0.0,0.0,0.0,0.0,-2.928,-2.9365,-2.9365,-2.92,-2.8785,-2.8296,-2.7776,-2.6833,-2.5969,-2.5309,-2.4527,-2.3824,-2.329,-2.3068,0.0,0.0,0.0,0.0,0.0,0.0,0.0,0.0,0.0,0.0,0.0,0.0,0.0,0.0,0.0,0.0,0.0,0.0,0.0,0.0,0.0,0.0,0.0,0.0,0.0,0.0,0.0,0.0,0.0,-4.0334,-4.0063,-4.0062,-3.9597,-3.9282,0.0,0.0,0.0,0.0,0.0,0.0,0.0,0.0,0.0,-3.8658,-3.8698,-3.8501,-3.8053,-3.808,-3.811,-3.8094,-3.7684,-3.7502,-3.7512,-3.7017,-3.6764,-3.6717,-3.6658,-3.662,-3.6579,-3.7045,-3.7206,-3.7118,0.0,0.0,0.0,0.0,-3.6027,-3.6008,-3.5833,-3.5792,-3.5812,-3.5788,0.0,0.0,0.0,0.0,0.0,0.0,0.0,-3.3726,-3.378,-3.3807,-3.3807,-3.3807,-3.3807,-3.3807,-3.3807,-3.3753,-3.3726,-3.3726,-3.378,-3.3807,-3.378,-3.2518,0.0,0.0,0.0,-2.9262,-2.9302,-2.9138,-2.8966,-2.8832,-2.8076,-2.742,-2.6911,-2.6007,-2.5205,-2.4576,-2.3879,-2.3348,-2.2979,-2.2678,-2.2495,0.0,0.0,0.0,0.0,0.0,0.0,0.0,0.0,0.0,0.0,0.0,0.0,0.0,0.0,0.0,0.0,0.0,0.0,0.0,0.0,0.0,0.0,0.0,0.0,0.0,0.0,0.0,0.0,-3.9733,-3.9246,-3.9207,-3.8663,-3.8258,0.0,0.0,0.0,0.0,0.0,0.0,-3.8147,-3.8044,-3.7928,-3.7827,-3.7829,-3.7707,-3.739,-3.7436,-3.7452,-3.7429,-3.688,-3.6589,-3.6532,-3.5871,-3.554,-3.5493,-3.5493,-3.5493,-3.5551,-3.6152,-3.6373,-3.6296,-3.5599,-3.5315,-3.5266,-3.5138,-3.5069,-3.5069,-3.4997,-3.498,-3.4999,-3.4982,-3.4754,-3.4464,-3.4203,0.0,0.0,0.0,0.0,-3.3726,-3.3807,-3.3807,-3.3807,-3.3807,-3.3807,-3.3807,-3.3807,-3.3807,-3.3807,-3.3807,-3.3842,-3.3868,-3.3815,-3.2594,0.0,-3.1568,-3.0272,-2.9262,-2.9178,-2.8902,-2.8585,-2.827,-2.7449,-2.6687,-2.6092,-2.5319,-2.4623,-2.3952,-2.3377,-2.2949,-2.2618,-2.2263,-2.2091,-2.2091,0.0,0.0,0.0,0.0,0.0,0.0,0.0,0.0,0.0,0.0,0.0,0.0,0.0,0.0,0.0,0.0,0.0,0.0,0.0,0.0,0.0,0.0,0.0,0.0,0.0,0.0,0.0,0.0,0.0,-3.8453,-3.8463,0.0,0.0,0.0,0.0,-3.8284,-3.7472,-3.7356,-3.8246,-3.7566,-3.7138,-3.7063,-3.7124,-3.6686,-3.5731,-3.5723,-3.5685,-3.5622,-3.5597,-3.5578,-3.5565,-3.5526,-3.5507,-3.5493,-3.5493,-3.5493,-3.5493,-3.5532,-3.5518,-3.547,-3.5398,-3.5364,-3.53,-3.5293,-3.5289,-3.5285,-3.5207,-3.5226,-3.5277,-3.5209,-3.487,-3.4464,-3.425,-3.3998,0.0,0.0,-3.3807,-3.3807,-3.3807,-3.3807,-3.3807,-3.3807,-3.3807,-3.3807,-3.3807,-3.3807,-3.3807,-3.3807,-3.3842,-3.3895,-3.3895,0.0,-3.1621,-3.1668,-3.0339,-2.9178,-2.8879,-2.8748,-2.8399,-2.7635,-2.7161,-2.6572,-2.568,-2.5182,-2.4461,-2.3392,-2.3172,-2.2723,-2.1888,-2.1841,-2.1793,-2.1793,-2.2463,0.0,0.0,0.0,0.0,0.0,0.0,0.0,0.0,0.0,0.0,0.0,0.0,0.0,0.0,0.0,0.0,0.0,0.0,0.0,0.0,0.0,0.0,0.0,0.0,0.0,0.0,0.0,0.0,-3.7576,-3.712,0.0,-3.6728,-3.6728,-3.6718,-3.6683,-3.647,-3.6441,-3.6746,-3.6512,-3.6324,-3.6173,-3.618,-3.5988,-3.5547,-3.5534,-3.5509,-3.5493,-3.5493,-3.5493,-3.5493,-3.5493,-3.5493,-3.5493,-3.5493,-3.5493,-3.5493,-3.546,-3.5412,-3.5412,-3.5412,-3.5364,-3.53,-3.53,-3.53,-3.53,-3.5273,-3.5277,-3.5261,-3.5072,-3.4793,-3.4464,-3.425,-3.4023,-3.3807,-3.3807,-3.3807,-3.3807,-3.3807,-3.3807,-3.3807,-3.3753,-3.3726,-3.3726,-3.3671,-3.3753,-3.3807,-3.3807,-3.3895,-3.3947,-3.3842,-3.3093,-3.226,-3.1556,-3.0496,-2.9502,-2.8651,-2.8031,-2.7543,-2.7274,-2.6387,-2.564,-2.5182,-2.4471,-2.3794,-2.3216,-2.2572,-2.2077,-2.1712,-2.1423,-2.1277,-2.1277,-2.2257,-2.2482,0.0,0.0,0.0,0.0,0.0,0.0,0.0,0.0,0.0,0.0,0.0,0.0,0.0,0.0,0.0,0.0,0.0,0.0,0.0,0.0,0.0,0.0,0.0,0.0,0.0,0.0,-3.6743,-3.6668,-3.6237,-3.5914,-3.5845,-3.586,-3.5882,-3.5877,-3.5921,-3.5966,-3.5932,-3.5982,-3.5903,-3.5702,-3.5698,-3.5631,-3.5507,-3.5493,-3.5493,-3.5493,-3.5493,-3.5493,-3.5493,-3.5493,-3.5493,-3.5493,-3.5493,-3.5493,-3.5493,-3.5427,-3.5398,-3.5364,-3.5364,-3.533,-3.53,-3.53,-3.5304,-3.5304,-3.5258,-3.5261,-3.5229,-3.4982,-3.4733,-3.4464,-3.425,-3.4023,-3.3807,-3.3807,-3.378,-3.378,-3.378,-3.3753,-3.3726,-3.3671,-3.3671,-3.3643,-3.3605,-3.3671,-3.3726,-3.3698,-3.3868,-3.3972,-3.3868,-3.3358,-3.2526,-3.1382,-3.0501,-2.953,-2.8255,-2.746,-2.6901,-2.669,-2.564,-2.4823,-2.4542,-2.3794,-2.3201,-2.2768,-2.2123,-2.1664,-2.1423,-2.1131,-2.0934,-2.0723,-2.1482,-2.1744,-2.1476,0.0,0.0,0.0,0.0,0.0,0.0,0.0,0.0,0.0,0.0,0.0,0.0,0.0,0.0,0.0,0.0,0.0,0.0,0.0,0.0,0.0,0.0,0.0,-3.6965,-3.6387,-3.5888,-3.5818,-3.5916,-3.5975,-3.5915,-3.5894,-3.5936,-3.5995,-3.5932,-3.5925,-3.5995,-3.5993,-3.591,-3.5709,-3.5702,-3.564,-3.5488,-3.5507,-3.5507,-3.5493,-3.5493,-3.5493,-3.5493,-3.5493,-3.5493,-3.5493,-3.5493,-3.5493,-3.5493,-3.5427,-3.5364,-3.5296,-3.53,-3.53,-3.53,-3.5308,-3.5312,-3.5277,-3.5226,-3.5209,-3.5176,-3.4982,-3.4714,-3.4464,-3.4274,-3.4023,-3.3788,-3.3807,-3.3753,-3.3698,-3.3698,-3.3643,-3.3605,-3.3605,-3.3605,-3.3605,-3.3605,-3.3605,-3.3577,-3.3491,-3.3734,-3.3972,-3.3972,-3.3326,-3.2397,-3.1182,-3.0303,0.0,-2.7707,-2.7029,-2.6506,-2.5835,-2.491,-2.4199,-2.3824,-2.3201,-2.2618,-2.1996,-2.1841,-2.152,-2.0983,-2.0997,-2.0736,-2.0233,-2.0053,-2.0451,-2.1307,0.0,0.0,0.0,0.0,0.0,0.0,0.0,0.0,0.0,0.0,0.0,0.0,0.0,0.0,0.0,0.0,0.0,0.0,0.0,0.0,0.0,0.0,-3.6052,-3.6269,-3.611,-3.597,-3.5954,-3.5986,-3.5984,-3.5972,-3.5973,-3.5973,-3.5992,-3.5976,-3.5976,-3.5996,-3.5996,-3.5945,-3.586,-3.5807,-3.5713,-3.5566,-3.5521,-3.5495,-3.5493,-3.5493,-3.5493,-3.5493,-3.5493,-3.5493,-3.5493,-3.5493,-3.5493,-3.5493,-3.5427,-3.5398,-3.5364,-3.5324,-3.5273,-3.5242,-3.5226,-3.5226,-3.5226,-3.5209,-3.5209,-3.5193,-3.5073,-3.487,-3.4591,-3.4344,-3.4099,-3.3842,-3.3698,-3.3643,-3.3633,-3.3633,-3.3587,-3.3577,-3.3549,-3.352,-3.3491,-3.3481,-3.352,-3.353,-3.325,-3.3321,-3.339,-3.3379,-3.3074,-3.2445,-3.1262,-3.0162,-2.9057,-2.7742,-2.6247,-2.5271,-2.5221,-2.4112,-2.3333,-2.3216,-2.2512,-2.1874,-2.1286,-2.0858,-2.0523,-2.0308,-2.0283,-2.0397,-2.0692,-2.0038,-2.0162,0.0,0.0,0.0,0.0,0.0,0.0,0.0,0.0,0.0,0.0,0.0,0.0,0.0,0.0,0.0,0.0,0.0,0.0,0.0,0.0,0.0,0.0,-3.597,-3.5999,-3.5999,-3.5996,-3.5991,-3.5991,-3.5991,-3.5994,-3.5999,-3.5999,-3.6003,-3.6009,-3.5991,-3.5995,-3.5957,-3.5955,-3.5918,-3.5825,-3.5801,-3.5745,-3.5611,-3.5546,-3.5538,-3.5534,-3.5515,-3.5493,-3.5493,-3.5493,-3.5493,-3.5493,-3.5493,-3.5493,-3.5493,-3.5427,-3.5412,-3.5398,0.0,0.0,0.0,0.0,-3.5176,-3.516,-3.516,-3.5126,-3.5072,-3.5072,-3.487,-3.4588,-3.4435,-3.4179,-3.3895,-3.3698,-3.3671,-3.3671,-3.3643,-3.3605,-3.3549,-3.3491,-3.3481,-3.3452,-3.3393,-3.3375,-3.328,-3.3099,-3.2894,0.0,-3.2021,-3.2278,-3.2066,-3.0716,-2.952,-2.8308,-2.7085,-2.5338,-2.4189,-2.4133,-2.3098,-2.2271,-2.189,-2.1403,0.0,0.0,0.0,-1.994,-1.9554,-1.9185,0.0,0.0,0.0,-1.9331,-2.0031,-1.9846,0.0,0.0,-2.0107,-2.0366,0.0,0.0,0.0,0.0,0.0,0.0,0.0,0.0,0.0,0.0,0.0,0.0,0.0,0.0,0.0,0.0,-3.5996,-3.5991,-3.5991,-3.601,-3.5991,-3.5991,-3.5991,-3.5991,-3.5991,-3.5991,-3.5994,-3.6003,-3.6003,-3.5973,-3.5912,-3.5909,0.0,0.0,0.0,-3.5741,-3.5611,-3.5601,-3.56,-3.559,-3.5528,-3.5507,-3.5507,-3.5507,-3.5507,-3.5493,-3.5493,-3.5493,-3.5493,-3.5446,-3.5412,-3.5412,-3.533,-3.5304,-3.5277,-3.5226,-3.516,-3.5075,-3.5092,0.0,0.0,-3.5035,-3.4851,-3.4539,-3.4505,-3.4279,-3.3972,-3.3753,-3.3726,-3.3753,-3.3671,-3.3577,-3.3481,-3.3433,-3.3393,-3.3334,-3.3304,-3.3117,-3.2894,-3.2731,-3.2299,-3.1554,-3.0244,-3.1006,-3.1227,-2.9733,-2.8464,-2.7211,-2.5967,-2.4402,-2.3231,-2.2745,-2.1904,0.0,-2.0293,-2.0118,-1.9811,-1.9267,-1.9579,-1.9463,-1.8862,-1.8126,-1.7884,-1.8298,-1.8249,-1.8293,-1.8482,-1.8482,-1.8482,-1.8549,-1.9791,-2.0237,0.0,0.0,0.0,0.0,0.0,0.0,0.0,0.0,0.0,0.0,0.0,0.0,0.0,0.0,0.0,-3.5996,-3.6007,-3.6001,-3.6001,-3.5997,-3.5997,-3.5991,-3.5991,-3.5991,-3.5991,-3.6007,-3.6007,-3.5994,-3.5994,-3.5982,-3.5972,-3.5976,-3.5945,-3.5868,-3.5819,-3.5757,-3.5678,-3.5629,-3.5612,-3.5608,-3.5591,0.0,-3.5502,-3.5502,-3.5495,-3.5493,-3.5493,-3.5493,-3.5493,-3.5493,-3.5493,-3.546,-3.535,-3.5219,-3.5157,-3.5254,-3.5141,-3.4945,-3.5072,-3.5,-3.4889,-3.4926,-3.4908,-3.4752,-3.4435,-3.4293,0.0,-3.3671,-3.3549,-3.3549,-3.3481,-3.3452,-3.3364,-3.3147,-3.3086,-3.3024,-3.2802,-3.2687,-3.2298,-3.1066,-3.0757,-3.0137,-2.8404,-2.9327,-2.9871,-2.8602,-2.7458,-2.6197,-2.4764,-2.3517,-2.2373,-2.1329,-2.0492,-1.9953,-1.9813,-1.923,-1.8632,-1.8224,-1.8267,-1.8309,-1.8244,-1.8407,-1.8503,-1.843,-1.8637,-1.8674,-1.8482,-1.8482,-1.8482,-1.8482,-1.8942,-1.9198,0.0,0.0,0.0,0.0,0.0,0.0,0.0,0.0,0.0,0.0,0.0,-3.59,0.0,0.0,-3.6007,-3.6001,-3.5997,-3.5994,-3.5994,-3.6009,-3.6009,-3.5997,-3.6001,-3.6001,-3.6001,-3.5994,-3.5994,-3.6001,-3.6004,-3.5996,-3.5954,-3.5957,-3.5925,-3.5845,-3.583,-3.5781,-3.5741,-3.5689,-3.5639,-3.5648,-3.562,-3.5591,-3.5547,-3.5547,-3.5547,-3.5541,-3.5541,-3.5528,-3.5495,-3.5455,-3.546,-3.5446,-3.533,-3.5251,-3.5203,-3.5289,-3.5176,-3.502,-3.5091,-3.5019,-3.4908,-3.4945,-3.487,-3.4751,-3.448,-3.4298,-3.4099,-3.3578,-3.3444,-3.3339,-3.316,-3.3068,-3.3024,-3.288,-3.2583,-3.2297,-3.2178,-3.1578,-3.0746,-2.9473,-2.8878,-2.7984,-2.5983,-2.6272,-2.6792,-2.6813,-2.5835,-2.4624,-2.3217,-2.2021,-2.0891,-1.985,-1.9317,-1.8814,-1.8286,-1.7809,-1.7556,-1.7667,-1.7268,-1.7224,-1.7457,-1.7222,-1.7158,-1.7326,-1.7365,-1.7323,-1.7353,-1.7578,-1.7762,-1.7819,-1.8237,-1.8539,0.0,0.0,0.0,0.0,0.0,0.0,0.0,0.0,-3.5702,-3.5706,-3.5735,-3.5762,-3.5768,-3.5852,-3.5919,-3.5919,-3.5943,-3.5968,-3.5968,-3.5973,-3.5977,-3.5977,-3.5981,-3.6005,-3.6005,-3.5981,-3.5981,-3.6005,-3.5994,-3.5974,-3.5916,-3.5918,-3.5886,-3.5811,-3.5827,-3.5816,-3.5801,-3.5745,-3.5713,-3.5706,-3.5648,-3.562,-3.5604,-3.5604,-3.5604,-3.5591,-3.5591,-3.556,-3.5515,-3.5422,-3.5393,-3.5427,-3.5281,-3.5251,-3.5266,-3.5273,-3.5179,-3.5039,-3.5057,-3.4945,-3.485,-3.4946,-3.483,-3.4626,-3.4442,-3.4213,-3.3884,-3.34,-3.3214,-3.3093,-3.2695,-3.255,-3.2451,-3.2298,-3.1722,-3.1196,-3.1138,-3.0096,-2.8869,-2.7736,-2.692,-2.5787,-2.369,-2.3315,-2.3629,-2.4679,-2.3966,-2.2837,-2.1571,-2.0558,-1.9599,-1.8563,-1.8333,-1.789,-1.6875,-1.6728,-1.6859,-1.7197,-1.6618,-1.6358,-1.6524,-1.588,-1.5619,-1.5872,-1.5921,-1.5946,-1.6128,-1.6431,-1.6722,-1.691,-1.7475,-1.7988,-3.5651,-3.5893,-3.6027,-3.5814,-3.5801,-3.5795,0.0,0.0,-3.5696,-3.5696,-3.5659,-3.5611,-3.5611,-3.5639,-3.5639,-3.5639,-3.5737,-3.5813,-3.5813,-3.5872,-3.5914,-3.5914,-3.5953,-3.6005,-3.6005,-3.5958,-3.5934,-3.6005,-3.6005,-3.5994,-3.5988,-3.5934,-3.5898,-3.5893,-3.5893,-3.5869,-3.5802,-3.5797,-3.5762,-3.5693,-3.5685,-3.566,-3.5601,-3.5601,-3.5608,-3.5591,-3.5591,-3.5591,-3.556,-3.5393,-3.5422,-3.5534,-3.5168,-3.5119,-3.5216,-3.5207,-3.5056,-3.4829,-3.4831,-3.4751,-3.4647,-3.4788,-3.4687,-3.4454,-3.4074,-3.3828,-3.3533,-3.2952,-3.2766,-3.2634,-3.1987,-3.1828,-3.1631,-3.0931,-3.0079,-2.9416,-2.9207,-2.8388,-2.7233,-2.5519,-2.4928,-2.4195,-2.2311,-2.1834,-2.1834,-2.2177,-2.2091,-2.1448,-1.9817,-1.9655,-1.9221,-1.7842,-1.7533,-1.7266,-1.6927,-1.7009,-1.6971,-1.6627,-1.6217,-1.592,-1.5546,-1.5841,-1.5763,-1.525,-1.5873,-1.61,-1.5836,-1.5614,-1.5753,-1.6332,-1.6506,-1.7235,-3.4966,0.0,0.0,0.0,-3.5301,-3.5355,-3.5418,-3.5477,-3.5495,-3.5483,-3.5519,-3.5543,-3.5543,-3.5568,-3.56,0.0,-3.565,-3.5679,-3.5679,-3.5743,-3.5768,-3.5741,-3.5826,-3.5905,-3.5943,-3.5919,-3.5899,-3.5943,-3.5938,-3.5938,-3.5943,-3.5919,-3.5903,-3.5896,-3.5896,-3.5899,-3.5849,-3.5825,-3.5792,-3.5752,-3.5755,-3.573,-3.5721,-3.5687,-3.5669,-3.567,-3.5608,-3.5608,-3.5596,-3.5457,-3.5476,-3.5502,-3.5152,-3.5032,-3.5066,-3.5089,-3.4945,-3.4732,-3.4733,-3.4632,-3.4545,-3.4561,-3.4367,-3.4049,-3.3488,-3.3008,-3.2517,-3.1777,-3.1504,-3.1079,-2.9625,-2.928,-2.9049,-2.8215,-2.707,-2.6394,-2.724,-2.5893,-2.4238,-2.3302,-2.2369,-2.1331,-2.0019,-1.9585,-1.9444,-1.9444,-2.0084,-2.0083,-1.8537,-1.8451,-1.8092,-1.6925,-1.6389,-1.6182,-1.6319,-1.5703,-1.5417,-1.5699,-1.4948,-1.4487,-1.4382,-1.4348,-1.4317,-1.4284,-1.4259,-1.4347,-1.4489,-1.4539,-1.4762,-1.5142,-1.5142,-1.5473,-3.4617,0.0,0.0,-3.4889,-3.4944,-3.5034,-3.5168,-3.5235,-3.527,-3.5285,-3.536,-3.5416,-3.5416,-3.5451,-3.547,-3.5445,-3.5476,-3.5488,-3.5419,-3.5504,-3.5568,-3.5477,-3.554,-3.564,-3.5753,-3.5827,-3.5866,-3.5866,-3.5879,-3.5872,-3.5872,-3.5878,-3.587,-3.5864,-3.5888,-3.5898,-3.5894,-3.5852,-3.581,-3.5806,-3.5782,-3.5779,-3.5773,-3.5727,-3.571,-3.5688,-3.5648,-3.5626,-3.5612,-3.5509,-3.5515,-3.5464,-3.4491,-3.4143,-3.4144,-3.3885,-3.4154,-3.4609,-3.4445,-3.4338,-3.4223,-3.4031,-3.3784,-3.3405,-3.2701,-3.1999,-3.1278,-3.0493,-2.9955,-2.9247,-2.737,-2.6871,-2.6624,-2.5597,-2.4505,-2.399,-2.497,-2.3573,-2.1933,-2.1128,-2.018,-1.9201,-1.7969,-1.7647,-1.752,-1.7295,-1.8075,-1.8402,-1.7569,-1.7364,-1.6977,-1.6147,-1.5726,-1.5578,-1.5658,-1.4845,-1.4464,-1.4693,-1.3846,-1.3336,-1.3356,-1.294,-1.2834,-1.3268,-1.2858,-1.2797,-1.3208,-1.3422,-1.3743,-1.3984,-1.3969,-1.4072,0.0,0.0,-3.4775,-3.4734,-3.4714,-3.4754,-3.4962,-3.4962,-3.498,-3.5261,-3.5242,-3.5209,-3.5209,-3.5226,-3.5157,-3.5056,-3.5181,-3.522,-3.4973,-3.5147,-3.5262,-3.5134,-3.5119,-3.521,0.0,-3.5641,-3.5799,-3.5799,-3.5803,-3.5799,-3.5799,-3.5794,-3.5807,-3.5807,-3.5858,-3.5904,-3.5895,-3.5895,-3.5864,-3.5797,-3.5728,-3.5695,-3.5703,-3.571,-3.571,-3.5693,-3.5693,-3.5698,-3.5673,-3.5477,-3.5521,-3.5449,-3.2895,-3.1974,-3.1974,-3.1091,-3.2283,-3.4321,-3.3802,-3.3625,-3.357,-3.3099,-3.28,-3.2497,-3.1758,-3.0823,-2.9798,-2.9074,-2.8264,-2.7248,-2.5754,-2.5385,-2.5009,-2.3629,-2.3107,-2.2755,-2.2189,-2.1808,-2.1014,-1.8895,-1.8783,-1.8459,-1.6645,-1.6524,-1.6542,-1.6202,-1.6044,-1.6184,-1.683,-1.6482,-1.6053,-1.5824,-1.5956,-1.58,-1.5053,-1.5155,-1.4771,-1.3713,-1.3203,-1.279,-1.252,-1.2104,-1.1934,-1.212,-1.2127,-1.2243,-1.2544,-1.2251,-1.2436,-1.3033,-1.3091,-1.3395,0.0,0.0,-3.3836,-3.4141,-3.4237,-3.4292,-3.4492,-3.4695,-3.4851,-3.4889,-3.5019,-3.5145,-3.5145,-3.5145,-3.5127,-3.5075,-3.5035,-3.4997,-3.4907,-3.4942,-3.4939,-3.4905,-3.4975,0.0,0.0,0.0,0.0,-3.5726,-3.5249,-3.493,-3.4874,-3.4356,-3.4054,-3.4007,-3.4068,-3.4121,-3.4114,-3.4101,-3.4366,-3.4873,-3.5431,-3.5685,-3.5623,-3.5632,-3.5483,-3.5253,-3.5564,-3.4941,-3.3682,-3.3489,-3.2766,-3.1641,-3.0183,-2.9634,-2.96,-2.9048,-2.9413,-3.0429,-3.2325,-3.2314,-3.1376,-3.1216,-3.0628,-2.984,-2.9243,-2.8677,-2.8201,-2.7599,-2.6483,-2.5134,-2.3482,-2.2639,-2.1934,-2.0854,-2.0094,-1.9868,-2.064,-1.9966,-1.91,-1.8824,-1.8085,-1.7198,-1.6594,-1.6035,-1.5621,-1.5338,-1.5621,-1.5903,-1.6123,-1.5771,-1.5488,-1.5417,-1.4981,-1.4861,-1.501,-1.388,-1.3176,-1.3164,-1.2127,-1.1459,-1.1358,-1.1421,-1.1553,-1.1747,-1.1872,-1.1996,-1.2243,-1.212,-1.2182,-1.2421,-1.2032,-1.1762,0.0,-3.2965,-3.3087,-3.356,-3.368,-3.3776,-3.4099,-3.4353,-3.4526,-3.4551,-3.4793,-3.5001,-3.4964,-3.5056,-3.511,-3.4983,-3.4908,-3.4812,-3.4609,-3.4572,-3.444,-3.407,-3.4078,-3.3864,0.0,0.0,0.0,-3.467,-3.4154,-3.3823,-3.3865,-3.3383,-3.3073,-3.3024,-3.3091,-3.3117,-3.3128,-3.3153,-3.3352,-3.3779,-3.4496,-3.4842,-3.4822,-3.5105,-3.5103,-3.487,-3.4998,-3.4154,-3.2651,-3.2128,-3.1078,-2.9632,-2.8066,-2.7431,-2.7347,-2.6898,-2.6696,-2.7113,-2.9819,-3.0084,-2.9228,-2.9065,-2.85,-2.7829,-2.7331,-2.684,-2.6341,-2.556,-2.4436,-2.3077,-2.1377,-2.0572,-1.9889,-1.9023,-1.8596,-1.8596,-1.9299,-1.8911,-1.8327,-1.823,-1.7345,-1.6464,-1.6035,-1.5338,-1.4776,-1.4561,-1.4911,-1.5267,-1.5338,-1.5133,-1.4991,-1.4991,-1.4323,-1.3915,-1.3994,-1.2602,-1.179,-1.1966,-1.1094,-1.0681,-1.0807,-1.1052,-1.1303,-1.1498,-1.1622,-1.1809,-1.1934,-1.1872,-1.1809,-1.1809,-1.1233,-1.0724,-3.2482,-3.2482,-3.2631,-3.297,-3.305,-3.3184,-3.3742,-3.3873,-3.3938,-3.413,-3.4423,-3.4642,0.0,0.0,-3.4997,-3.4653,-3.4693,-3.4551,-3.3975,-3.4025,-3.3728,0.0,0.0,0.0,0.0,0.0,0.0,-3.2653,-3.2579,-3.2603,-3.2801,-3.2776,-3.2756,-3.2769,-3.2798,-3.2833,-3.2852,-3.2935,-3.2825,-3.2512,-3.2975,-3.3242,-3.332,-3.4068,-3.4407,-3.436,-3.394,-3.3271,-3.2393,-3.1272,-3.0313,-2.9265,-2.647,-2.5336,-2.5265,-2.4532,-2.4286,-2.4569,-2.6379,-2.7106,-2.7104,-2.6722,-2.6542,-2.6455,-2.6021,-2.5299,-2.4383,-2.3255,-2.2262,-2.1164,-1.9748,-1.9299,-1.9044,-1.8202,-1.8462,-1.8787,-1.8134,-1.8529,-1.8566,-1.7207,-1.6733,-1.6175,-1.5046,-1.441,-1.3992,-1.3863,-1.3928,-1.4209,-1.4497,-1.4569,-1.4561,-1.4466,-1.38,-1.3041,-1.2294,-1.1535,-1.0862,-1.0384,-1.0308,-1.0428,-1.0807,-1.0996,-1.1122,-1.124,-1.1435,-1.156,-1.1498,-1.1303,-1.124,-1.1178,-1.0528,-1.0268,-3.177,-3.1789,-3.1808,-3.223,-3.2316,-3.2243,-3.2169,-3.2303,-3.2375,-3.2189,-3.2478,-3.2787,0.0,0.0,0.0,-3.3336,-3.3757,0.0,-3.2729,-3.2782,0.0,-3.1675,0.0,-3.1329,-3.072,-3.0436,0.0,0.0,-3.0768,-3.1407,-3.1546,-3.1087,-3.0838,-3.0885,-3.0758,-3.0657,-3.0624,-3.1124,-3.1345,-3.1259,-3.1689,-3.1885,-3.1911,-3.1808,-3.1626,-3.1415,-3.1643,-3.0921,-2.9504,-2.8768,-2.7498,-2.5848,-2.4305,-2.3429,-2.3022,-2.2807,-2.2761,-2.2797,-2.3326,-2.4219,-2.5133,-2.5039,-2.4637,-2.4107,-2.4032,-2.3955,-2.3807,-2.3526,-2.2053,-2.0526,-2.0139,-1.9166,-1.8269,-1.8076,-1.8144,-1.8202,-1.8008,-1.8144,-1.8134,-1.7794,-1.6733,-1.5471,-1.4129,-1.3702,-1.371,-1.379,-1.3863,-1.3855,-1.3783,-1.3783,-1.3606,-1.3055,-1.2618,-1.2173,-1.1793,-1.1094,-1.0635,-1.0688,-1.0428,-1.0428,-1.0624,-1.0807,-1.0674,-1.0218,-1.0863,-1.073,-0.9633,-1.0078,-1.0085,-0.9564,-0.9436,-0.9122,-3.0521,-3.046,-3.0497,-3.0765,-3.0802,-3.0803,-3.0946,-3.113,-3.1222,-3.12,-3.1547,0.0,0.0,0.0,0.0,0.0,0.0,0.0,-3.1283,-3.1294,-3.1117,0.0,-3.015,0.0,-2.9254,-2.8981,-2.8685,0.0,-2.9245,-2.9883,-2.9942,-2.972,-2.9603,-2.9621,-2.9658,-2.9622,-2.9438,-2.9675,-2.9728,-2.958,-2.9983,-3.0176,-3.0168,-3.0287,-3.0183,-2.9859,-2.9933,-2.9074,-2.7542,-2.6723,-2.5438,-2.3908,-2.3051,-2.2506,-2.2206,-2.2206,-2.2218,-2.2197,-2.2197,-2.2761,-2.3423,-2.3423,-2.3132,-2.2811,-2.2811,-2.2871,-2.2932,-2.2604,-2.1604,-2.0537,-1.9879,-1.911,-1.8327,-1.8076,-1.8008,-1.8008,-1.8008,-1.8008,-1.7803,-1.7088,-1.6026,-1.4824,-1.371,-1.3492,-1.3572,-1.379,-1.3717,-1.352,-1.3222,-1.3279,-1.3128,-1.272,-1.1957,-1.1363,-1.1068,-1.04,-1.0174,-1.0364,-1.018,-1.018,-1.0434,-1.0295,-1.0225,-1.0225,-1.0478,-1.0408,-0.9894,-0.9894,-0.9703,-0.9314,-0.8731,-0.8291,-2.9271,-2.9034,-2.9029,-2.9025,-2.9017,-2.9196,-2.9761,-2.9978,-3.016,-3.0456,0.0,0.0,-3.0986,0.0,-3.1054,-3.0703,0.0,-3.0261,-2.9751,-2.972,-2.9457,-2.8648,-2.8446,-2.8185,-2.763,-2.7517,-2.7474,-2.7413,-2.7958,-2.829,-2.8336,-2.8636,-2.8768,-2.8705,-2.904,-2.9063,-2.8765,-2.8512,-2.8224,-2.7924,-2.8245,-2.8383,-2.8369,-2.8965,-2.9109,-2.8819,-2.8339,-2.7506,-2.6309,-2.5253,-2.4224,-2.323,-2.2623,-2.2368,-2.2344,-2.216,-2.213,-2.2201,-2.2116,-2.2089,-2.2101,-2.2173,-2.2197,-2.2197,-2.2197,-2.2197,-2.2061,-2.1325,-2.106,-2.0666,-1.9365,-1.8911,-1.8721,-1.8134,-1.8008,-1.8008,-1.8008,-1.8008,-1.751,-1.6026,-1.5171,-1.4466,-1.371,-1.3572,-1.3645,-1.379,-1.368,-1.3323,-1.2897,-1.2994,-1.2888,-1.2522,-1.1485,-1.0626,-1.0199,-0.9734,-0.9612,-0.9804,-0.9734,-0.9792,-1.0104,-0.9709,-0.9773,-1.0415,-1.0085,-1.0085,-1.0541,-0.9831,-0.9384,-0.932,-0.8096,-0.7652,-2.9041,-2.8625,-2.8134,-2.8129,-2.8151,-2.8103,-2.7938,-2.8118,0.0,0.0,0.0,-2.9216,-2.9234,-2.9691,0.0,-2.934,0.0,0.0,0.0,0.0,-2.7962,0.0,0.0,0.0,0.0,0.0,0.0,0.0,-2.6838,-2.723,-2.749,-2.8031,-2.8128,-2.7688,-2.8049,-2.7987,-2.7432,-2.7683,-2.7747,-2.7578,-2.731,-2.7175,-2.7094,-2.6632,-2.6396,-2.6323,-2.5951,-2.5847,-2.5874,-2.5219,-2.4726,-2.4266,-2.3552,-2.3277,-2.313,-2.1972,-2.1905,-2.2283,-2.1716,-2.1536,-2.1608,-2.2053,-2.2197,-2.2197,-2.2197,-2.2197,-2.2061,-2.1325,-2.0677,-2.0096,-1.9243,-1.8596,-1.8134,-1.8008,-1.8008,-1.8008,-1.8008,-1.8008,-1.751,-1.6026,-1.5604,-1.5108,-1.3928,-1.3725,-1.379,-1.3992,-1.3765,-1.356,-1.3623,-1.3134,-1.2165,-1.0564,-1.0578,-1.0299,-0.9291,-0.9373,-0.9612,-0.9804,-0.9204,-0.9,-0.9186,-0.9122,-0.893,-0.8479,-0.8924,-0.8667,-0.7632,-0.7632,-0.7377,-0.6798,-0.6675,-0.6741,-2.7332,-2.6971,-2.6595,-2.6399,-2.6358,-2.6419,-2.6723,0.0,0.0,0.0,0.0,-2.8166,-2.8166,-2.8294,0.0,0.0,0.0,0.0,0.0,0.0,0.0,0.0,0.0,0.0,0.0,0.0,0.0,-2.5603,-2.5928,-2.63,-2.6721,-2.7023,-2.7113,-2.694,-2.7113,-2.6992,-2.6522,-2.6673,-2.6623,-2.6284,-2.6265,-2.6158,-2.5924,-2.5758,-2.5551,-2.523,-2.5013,-2.4786,-2.4621,-2.4336,-2.4006,-2.3668,-2.3342,-2.3178,-2.3098,-2.2309,-2.2026,-2.2038,-2.2191,-2.2058,-2.1956,-2.2817,-2.269,-2.2197,-2.2197,-2.2197,-2.2061,-2.1325,-2.0869,-2.0355,-1.9299,-1.8787,-1.8462,-1.8076,-1.8008,-1.8008,-1.8008,-1.7725,-1.7226,-1.6446,-1.5666,-1.4966,-1.4489,-1.3927,-1.36,-1.3932,-1.3515,-1.3172,-1.2923,-1.2564,-1.1903,-1.0665,-1.0261,-0.9805,-0.9092,-0.9285,-0.9414,-0.9145,-0.9139,-0.8877,-0.835,-0.835,-0.8221,-0.8027,-0.7962,-0.7767,-0.7442,-0.7181,-0.692,-0.6728,-0.6408,-0.6412,-2.5726,-2.5408,-2.5191,-2.486,-2.4784,-2.5005,-2.5822,-2.6092,0.0,0.0,0.0,-2.7642,-2.7612,0.0,0.0,0.0,0.0,0.0,0.0,0.0,0.0,0.0,0.0,0.0,0.0,0.0,0.0,-2.476,-2.5012,-2.5465,-2.6154,-2.6158,-2.6162,-2.6182,-2.6285,-2.6129,-2.5697,-2.5713,-2.5545,-2.5176,-2.5406,-2.5422,-2.5192,-2.5346,-2.523,-2.4855,-2.4589,-2.4162,-2.3696,-2.3581,-2.3407,-2.3068,-2.3024,-2.3056,-2.3137,-2.2672,-2.2275,-2.206,-2.2678,-2.2612,-2.2436,-2.354,-2.3194,-2.2375,-2.2375,-2.2488,-2.2356,-2.1179,-2.1087,-2.0914,-1.9186,-1.8787,-1.8654,-1.8144,-1.8008,-1.8008,-1.8008,-1.751,-1.7079,-1.6941,-1.5738,-1.4782,-1.486,-1.3956,-1.3393,-1.3715,-1.3367,-1.28,-1.221,-1.1912,-1.1539,-1.1012,-1.018,-0.9478,-0.9017,-0.9285,-0.928,-0.8753,-0.8952,-0.863,-0.7707,-0.7512,-0.7507,-0.7637,-0.7116,-0.7051,-0.7637,-0.6985,-0.6728,-0.6854,-0.6404,-0.6342,-2.5435,-2.504,-2.4488,-2.44,-2.441,-2.4583,-2.5182,0.0,0.0,0.0,-2.7386,-2.7539,-2.7582,0.0,0.0,0.0,0.0,0.0,0.0,0.0,0.0,0.0,0.0,0.0,0.0,0.0,-2.4446,-2.4032,-2.4032,-2.4688,-2.6118,-2.5864,-2.5551,-2.523,-2.5594,-2.5427,-2.4728,-2.5067,-2.5182,-2.5044,-2.5044,-2.5182,-2.5427,-2.4823,-2.4719,-2.5013,-2.4343,-2.4024,-2.394,-2.3839,-2.3754,-2.3696,-2.3392,-2.364,-2.4014,-2.2646,-2.2421,-2.2778,-2.2675,-2.2518,-2.256,-2.356,-2.3457,-2.2915,-2.2915,-2.339,-2.3409,-2.0914,-2.1036,-2.131,-1.8744,-1.8076,-1.8076,-1.8008,-1.8008,-1.8008,-1.8008,-1.794,-1.7725,-1.701,-1.6023,-1.5104,-1.477,-1.381,-1.3253,-1.3565,-1.3354,-1.2866,-1.2367,-1.1589,-1.0905,-1.0404,-1.0321,-0.9919,-0.9081,-0.9285,-0.9484,-0.942,-0.8236,-0.7517,-0.7451,-0.6859,-0.6527,-0.6527,-0.6461,-0.6461,-0.6527,-0.6005,-0.5745,-0.5745,-0.6079,-0.6214,-2.4447,-2.4122,-2.3782,-2.3867,-2.3681,-2.3822,-2.4934,0.0,0.0,-2.6657,-2.694,-2.6957,-2.7006,0.0,0.0,0.0,0.0,0.0,0.0,0.0,0.0,0.0,0.0,0.0,0.0,0.0,-2.3867,-2.3724,-2.358,-2.3849,-2.4768,-2.4744,-2.4679,-2.463,-2.4751,-2.467,-2.4343,-2.4436,-2.442,-2.4297,-2.4542,-2.4446,-2.4044,-2.4002,-2.3975,-2.3948,-2.3595,-2.3625,-2.3882,-2.3739,-2.3696,-2.3653,-2.3523,-2.361,-2.3728,-2.298,-2.257,-2.2515,-2.3256,-2.3266,-2.3043,-2.3689,-2.3526,-2.299,-2.2639,-2.2702,-2.2516,-2.033,-2.0038,-2.0031,-1.8575,-1.8081,-1.8008,-1.8008,-1.7822,-1.7637,-1.7637,-1.7148,-1.6619,-1.6412,-1.534,-1.4447,-1.4522,-1.3637,-1.3029,-1.329,-1.2733,-1.213,-1.1616,-1.1002,-1.0364,-0.9862,-0.9798,-0.9536,-0.8753,-0.8818,-0.856,-0.7707,-0.7517,-0.706,-0.621,-0.6338,-0.6207,-0.5818,-0.5818,-0.5818,-0.5818,-0.5554,-0.5554,-0.5617,-0.5749,-0.5947,-2.3739,-2.3566,-2.3436,-2.3551,-2.3377,-2.3522,0.0,0.0,-2.5287,-2.6454,-2.6538,-2.6417,-2.6417,0.0,0.0,0.0,0.0,0.0,0.0,0.0,0.0,0.0,0.0,0.0,0.0,-2.3581,-2.3348,-2.3377,-2.3098,-2.3084,-2.3522,-2.3623,-2.3852,-2.4162,-2.4151,-2.4109,-2.4082,-2.3982,-2.3839,-2.3668,-2.3937,-2.3752,-2.3143,-2.3376,-2.3318,-2.3054,-2.3157,-2.3304,-2.3523,-2.3551,-2.361,-2.3566,-2.3566,-2.3538,-2.3422,-2.3231,-2.2833,-2.2546,-2.3639,-2.3744,-2.3431,-2.3655,-2.3684,-2.3454,-2.2499,-2.2483,-2.2341,-2.0129,-1.9149,-1.8679,-1.8185,-1.7851,-1.7637,-1.7637,-1.7402,-1.7187,-1.7187,-1.6613,-1.6064,-1.6,-1.4918,-1.4063,-1.4258,-1.3332,-1.2671,-1.2735,-1.221,-1.1553,-1.0863,-1.0491,-1.0117,-0.9548,-0.9484,-0.9215,-0.8554,-0.849,-0.7967,-0.6793,-0.6924,-0.6666,-0.5752,-0.5947,-0.5881,-0.5428,-0.5428,-0.5428,-0.5428,-0.5428,-0.5425,-0.5554,-0.5352,-0.5415,-2.3653,-2.3595,-2.3595,-2.3595,-2.3696,-2.4021,0.0,0.0,-2.5631,-2.6505,-2.6332,-2.6013,-2.6013,-2.5465,-2.5105,0.0,0.0,0.0,0.0,0.0,0.0,0.0,0.0,0.0,-2.4024,-2.3348,-2.2889,-2.2889,-2.2495,-2.2356,-2.2694,-2.2694,-2.3098,-2.3879,-2.3879,-2.3852,-2.3782,-2.3797,-2.361,-2.3319,-2.3319,-2.3275,-2.3216,-2.2995,-2.286,-2.2832,-2.3143,-2.3127,-2.2934,-2.3421,-2.3566,-2.3509,-2.3509,-2.3422,-2.3319,-2.3319,-2.3216,-2.3157,-2.3653,-2.3709,-2.3573,-2.3383,-2.4023,-2.4547,-2.282,-2.3171,-2.3515,-2.0377,-1.8605,-1.7595,-1.7585,-1.7169,-1.6685,-1.6685,-1.6685,-1.6738,-1.6738,-1.6675,-1.6529,-1.6064,-1.516,-1.4264,-1.3941,-1.3024,-1.2182,-1.1872,-1.1809,-1.1428,-1.0428,-1.0301,-1.0117,-0.9548,-0.9484,-0.9215,-0.8554,-0.849,-0.8166,-0.7451,-0.6793,-0.64,-0.6396,-0.5752,-0.5428,-0.5428,-0.5428,-0.5428,-0.5428,-0.5428,-0.5428,-0.5362,-0.4827,-0.4422,-2.4292,-2.3991,-2.3752,-2.3638,-2.3465,-2.3551,-2.4471,0.0,-2.4776,-2.5508,-2.5486,-2.5313,-2.5313,-2.5291,-2.5192,-2.4942,0.0,0.0,0.0,0.0,0.0,0.0,0.0,0.0,0.0,0.0,-2.2889,-2.2889,-2.2449,-2.2263,-2.2356,-2.2356,-2.2709,-2.348,-2.3231,-2.3246,-2.3596,-2.3157,-2.3024,-2.3319,-2.3127,-2.2844,-2.2512,-2.2249,-2.2156,-2.2081,-2.2002,-2.2156,-2.2374,-2.283,-2.2979,-2.2979,-2.3275,-2.329,-2.3171,-2.3171,-2.3082,-2.3023,-2.348,-2.3653,-2.3513,-2.2982,-2.2736,-2.2396,-2.1124,-2.2249,-2.3377,-2.0358,-1.868,-1.7705,-1.7131,-1.6855,-1.6665,-1.6665,-1.6494,-1.6279,-1.6279,-1.5731,-1.5228,-1.5219,-1.4249,-1.3498,-1.3621,-1.2985,-1.2498,-1.2375,-1.174,-1.1115,-1.08,-1.0174,-0.967,-0.9548,-0.9087,-0.856,-0.7842,-0.7777,-0.7256,-0.6083,-0.5818,-0.5686,-0.5686,-0.5491,-0.5428,-0.5428,-0.5428,-0.5428,-0.5428,-0.4891,-0.442,-0.3885,-0.3887,-0.3823,0.0,-2.4561,-2.4168,-2.3948,-2.3681,0.0,0.0,0.0,0.0,-2.4846,-2.4837,-2.4673,-2.4422,-2.4531,-2.4599,-2.4354,-2.4664,0.0,0.0,0.0,0.0,0.0,0.0,0.0,0.0,-2.2663,-2.2632,-2.2632,-2.2356,-2.2184,-2.2184,-2.2091,-2.231,-2.2859,-2.2558,-2.2603,-2.3038,-2.2452,-2.2314,-2.2723,-2.2572,-2.2356,-2.2044,-2.1996,-2.1841,-2.1664,-2.1712,-2.1793,0.0,-2.2512,-2.2649,-2.2649,-2.3053,-2.3157,-2.3037,-2.3037,-2.2992,-2.2933,-2.3231,-2.3348,-2.3269,-2.2768,-2.2272,-2.1735,-2.1079,-2.126,-2.1423,-2.0016,-1.8487,-1.7207,-1.6688,-1.6353,-1.623,-1.623,-1.6025,-1.582,-1.582,-1.5369,-1.4951,-1.4893,-1.4094,-1.3433,-1.3502,-1.2981,-1.2436,-1.2058,-1.1428,-1.0856,-1.0485,-0.9862,-0.9414,-0.9151,-0.8753,-0.8096,-0.712,-0.6994,-0.6535,-0.5491,-0.5428,-0.5428,-0.5428,-0.5428,-0.5428,-0.5428,-0.5156,-0.4957,-0.4957,-0.422,-0.3482,-0.2815,-0.2883,-0.2952,0.0,0.0,0.0,0.0,0.0,0.0,0.0,0.0,0.0,0.0,0.0,-2.4101,-2.3363,-2.3413,-2.3596,-2.3754,-2.3797,0.0,0.0,0.0,0.0,0.0,0.0,0.0,-2.2221,-2.2156,-2.2123,-2.2184,-2.2137,-2.2137,-2.2184,-2.1949,-2.1902,-2.2184,-2.1908,-2.1941,-2.2282,-2.1677,-2.15,-2.1746,-2.1698,-2.1698,-2.1746,-2.1983,-2.1841,-2.1423,-2.1841,-2.1949,-2.1746,-2.2328,-2.2512,-2.2466,-2.2888,-2.2992,-2.2888,-2.2888,-2.2888,-2.2888,-2.2888,-2.2878,-2.2803,-2.2597,-2.2357,-2.2143,-2.2182,-2.0362,-1.8462,-1.9465,-1.81,-1.6358,-1.6255,-1.5806,-1.541,-1.541,-1.541,-1.541,-1.541,-1.5488,-1.5488,-1.501,-1.446,-1.3974,-1.3563,-1.2972,-1.2182,-1.124,-1.0982,-1.0611,-0.9606,-0.9484,-0.9151,-0.849,-0.8361,-0.7832,-0.6527,-0.64,-0.6141,-0.5428,-0.5428,-0.5428,-0.5428,-0.5359,-0.5296,-0.5296,-0.4622,-0.422,-0.4151,-0.3485,-0.2748,-0.2013,-0.2013,-0.188,0.0,0.0,0.0,0.0,0.0,0.0,0.0,0.0,0.0,0.0,0.0,-2.3229,-2.2843,-2.3413,-2.3797,-2.3334,-2.3797,-2.3867,0.0,0.0,0.0,0.0,-2.1458,-2.1541,-2.1334,-2.1479,-2.167,-2.1888,-2.1299,-2.1348,-2.2184,-2.1746,-2.1616,-2.1902,-2.1237,-2.1237,-2.1935,-2.0993,-2.0759,-2.1202,-2.1006,-2.1006,-2.1188,-2.1042,-2.1019,-2.1082,-2.0947,-2.0848,-2.0848,-2.114,-2.1479,-2.1841,-2.2263,-2.2615,-2.2888,-2.2888,-2.2888,-2.2888,-2.2888,-2.2613,-2.2183,-2.1917,-2.1246,-2.0614,-2.0965,-2.0578,-1.9904,-1.9278,-1.81,-1.6754,-1.5864,-1.5526,-1.541,-1.541,-1.541,-1.541,-1.541,-1.5059,-1.4834,-1.4893,-1.4034,-1.3312,-1.3442,-1.2658,-1.1926,-1.1677,-1.0989,-1.0161,-0.9378,-0.8941,-0.849,-0.7712,-0.7186,-0.6789,-0.6396,-0.64,-0.6141,-0.5428,-0.5428,-0.5428,-0.5428,-0.4891,-0.4556,-0.4556,-0.3818,-0.3149,-0.2614,-0.2414,-0.2013,-0.1344,-0.1344,-0.1344,0.0,0.0,0.0,0.0,0.0,0.0,0.0,0.0,0.0,0.0,0.0,0.0,-2.2148,0.0,0.0,0.0,-2.274,0.0,0.0,0.0,0.0,0.0,-2.0673,-2.0772,0.0,-2.0832,-2.1091,-2.1251,-2.0858,-2.0858,-2.1444,-2.1068,-2.0858,-2.0855,-2.0295,-2.0372,-2.1068,-2.0105,-1.9914,-2.0446,-2.0295,-2.056,-2.1153,-2.0908,-2.1006,-2.1326,-2.0835,-2.0636,-2.0636,-2.0759,-2.1104,-2.1616,-2.1779,-2.2123,-2.2555,-2.2296,-2.2356,-2.2555,-2.2555,-2.2428,-2.2123,-2.1171,-2.0595,-2.0238,-1.9991,-1.9874,-1.9612,-1.8468,-1.7504,-1.6585,-1.5633,-1.541,-1.541,-1.541,-1.541,-1.541,-1.541,-1.5001,-1.4715,-1.4893,-1.3983,-1.326,-1.3442,-1.2536,-1.174,-1.149,-1.08,-1.0047,-0.9454,-0.9139,-0.856,-0.7517,-0.7055,-0.6597,-0.6009,-0.5947,-0.5815,-0.5428,-0.5093,-0.4891,-0.4891,-0.422,-0.3618,-0.3282,-0.2882,-0.2347,-0.1612,-0.1612,-0.1478,-0.1076,-0.1076,-0.1008,0.0,0.0,0.0,0.0,0.0,0.0,0.0,0.0,0.0,0.0,0.0,0.0,0.0,0.0,0.0,0.0,0.0,0.0,0.0,0.0,0.0,0.0,-2.0067,0.0,-1.9775,-2.0129,-2.0341,-2.0263,-2.015,-2.02,-2.0348,-2.0064,-1.9826,-1.9648,-1.9467,-1.9581,-2.0016,-1.9356,-1.9251,-1.9708,-1.9708,-2.0156,-2.1006,-2.0845,-2.1042,-2.1396,-2.0908,-2.066,-2.066,-2.0646,-2.0957,-2.1458,-2.1334,-2.1623,-2.203,-2.1575,-2.1718,-2.2179,-2.2193,-2.2266,-2.2127,-2.0701,-2.0303,-2.0233,-1.9476,-1.9154,-1.8762,-1.7644,-1.6978,-1.6415,-1.569,-1.5526,-1.5517,-1.541,-1.541,-1.541,-1.542,-1.5059,-1.4706,-1.4765,-1.3983,-1.3329,-1.3329,-1.2474,-1.1615,-1.1108,-1.0611,-1.0066,-0.9467,-0.9409,-0.8896,-0.7475,-0.7348,-0.6817,-0.5561,-0.5339,-0.5259,-0.5259,-0.4634,-0.422,-0.3951,-0.3351,-0.2681,-0.1946,-0.1946,-0.1678,-0.1076,-0.1008,-0.0941,-0.0941,-0.0807,-0.0538,0.0,0.0,0.0,0.0,0.0,0.0,0.0,0.0,0.0,0.0,0.0,0.0,0.0,0.0,0.0,0.0,0.0,0.0,0.0,0.0,-1.9759,-1.9512,0.0,-1.9661,-1.8744,-1.8996,-1.9054,-1.8586,-1.8128,-1.8273,-1.9205,-1.8785,-1.8763,-1.9255,-1.9145,-1.9183,-1.9331,-1.9146,-1.904,-1.9146,-1.9146,-1.9133,-1.9214,-1.9643,-1.9798,-1.9773,-2.0016,-2.0131,-2.0131,-2.0016,-2.0258,-2.0759,-2.0759,-2.1042,-2.1513,-2.1417,-2.1718,-2.2189,-2.2069,-2.1685,-2.126,-2.1328,-2.0412,-1.9383,-2.0198,-1.978,-1.8881,-1.8147,-1.7875,-1.7589,-1.6472,-1.614,-1.6026,-1.5526,-1.541,-1.5478,-1.5614,-1.4715,-1.3983,-1.4273,-1.3321,-1.2552,-1.2736,-1.2243,-1.1615,-1.1108,-1.0611,-1.0001,-0.9097,-0.8986,-0.8524,-0.7185,-0.7061,-0.6714,-0.5803,-0.506,-0.4651,-0.4651,-0.4411,-0.3751,-0.248,-0.2347,-0.1946,-0.1276,-0.1276,-0.121,-0.1076,-0.047,-0.0202,-0.0134,0.047,0.0605,0.0,0.0,0.0,0.0,0.0,0.0,0.0,0.0,0.0,0.0,0.0,0.0,0.0,0.0,0.0,0.0,0.0,0.0,-1.95,-1.9356,-1.9036,0.0,0.0,-1.8732,-1.7945,-1.8105,-1.8214,-1.8001,-1.7605,-1.7605,-1.8106,-1.7881,-1.7714,-1.7702,-1.7942,-1.81,-1.8135,-1.8363,-1.8655,-1.8987,-1.8946,-1.8987,-1.9239,-1.9408,-1.9448,-1.9359,-1.9811,-1.9823,-1.9552,-1.9759,-2.0105,-2.056,-2.0258,-2.0497,-2.0993,-2.0993,-2.1334,-2.1747,-2.1613,-2.1686,-2.1734,-2.0985,-2.0332,-1.9861,-1.9782,-1.9417,-1.8934,-1.8655,-1.8375,-1.782,-1.6585,-1.6312,-1.614,-1.5517,-1.541,-1.5478,-1.5672,-1.4715,-1.3932,-1.4154,-1.326,-1.2498,-1.256,-1.2182,-1.174,-1.149,-1.0937,-1.0177,-0.9359,-0.9083,-0.8448,-0.7074,-0.694,-0.644,-0.5225,-0.4813,-0.4159,-0.3285,-0.3173,-0.2614,-0.1612,-0.1544,-0.1411,-0.1076,-0.1076,-0.0874,-0.0538,-0.0134,0.0202,0.0605,0.0941,0.1209,-2.6556,0.0,0.0,0.0,0.0,0.0,0.0,0.0,0.0,0.0,0.0,0.0,0.0,0.0,0.0,0.0,0.0,-1.8638,-1.8429,-1.8324,-1.8066,-1.7421,-1.7659,-1.7585,-1.7002,-1.7111,-1.7111,-1.6991,-1.6788,-1.6692,-1.68,-1.6788,-1.668,-1.6359,-1.68,-1.7092,-1.7146,-1.7765,-1.8375,-1.8946,-1.8893,-1.8999,-1.9186,-1.9198,-1.9121,-1.8967,-1.9384,-1.9331,-1.8963,-1.9436,-1.985,-2.0207,-1.9901,-2.0055,-2.0409,-2.056,-2.0944,-2.1403,-2.1423,-2.1954,-2.2332,-2.0746,-2.0396,-2.0391,-1.931,-1.8987,-1.8987,-1.8987,-1.8655,-1.8093,-1.6978,-1.6698,-1.6528,-1.5806,-1.5642,-1.571,-1.573,-1.4961,-1.4291,-1.4273,-1.3511,-1.2744,-1.2621,-1.2243,-1.1956,-1.1914,-1.1159,-1.0359,-0.9802,-0.9227,-0.845,-0.7142,-0.7074,-0.6324,-0.4546,-0.4546,-0.3882,-0.1991,-0.1904,-0.1622,-0.1144,-0.1076,-0.1076,-0.1076,-0.0941,-0.0538,-0.0,0.0336,0.0806,0.1344,0.1546,0.188,-2.6505,-2.5449,0.0,0.0,0.0,0.0,0.0,0.0,0.0,0.0,0.0,0.0,0.0,0.0,0.0,0.0,0.0,-1.7312,-1.7126,0.0,-1.6715,-1.6681,-1.6746,-1.6489,-1.5717,-1.5697,-1.5434,-1.4622,-1.4543,-1.4682,-1.5062,-1.5062,-1.5412,-1.612,-1.6283,-1.6588,-1.7,-1.771,-1.8333,-1.8798,-1.8946,-1.8667,-1.8061,-1.8441,-1.8333,-1.782,-1.8093,-1.8201,-1.8201,-1.8815,-1.9093,-1.9146,-1.9604,-1.9798,-1.9901,-2.0409,-2.0944,-2.1472,-2.1971,-2.2325,-2.2423,-2.1288,-2.0781,-2.0391,-1.931,-1.8987,-1.8987,-1.8987,-1.8987,-1.8762,-1.8147,-1.7984,-1.7699,-1.6528,-1.6389,-1.641,-1.5972,-1.5488,-1.5001,-1.4588,-1.3923,-1.3268,-1.2683,-1.256,-1.2484,-1.2285,-1.1138,-1.0264,-1.0355,-0.9212,-0.8134,-0.7499,-0.7443,-0.6457,-0.3988,-0.451,-0.3941,-0.1452,-0.1204,-0.1174,-0.1077,-0.1076,-0.1076,-0.1076,-0.0403,-0.0067,-0.0,0.1342,0.208,0.2147,0.2755,0.2889,-2.6104,-2.4989,0.0,0.0,0.0,0.0,0.0,0.0,0.0,0.0,0.0,0.0,0.0,0.0,0.0,0.0,-1.7412,-1.7144,-1.702,-1.686,-1.6596,-1.621,-1.6055,-1.5694,-1.5045,-1.4907,-1.4689,-1.4316,-1.4582,-1.4823,-1.4903,-1.496,-1.5227,-1.5709,-1.5526,-1.5818,-1.6585,-1.7202,-1.771,-1.8116,-1.856,-1.8441,-1.7897,-1.8159,-1.7897,-1.719,-1.782,-1.7875,-1.7589,-1.8201,-1.8655,-1.904,-1.9592,-1.9798,-1.9798,-2.0055,-2.0633,-2.1417,-2.1623,-2.231,-2.296,-2.2244,-2.1595,-2.097,-2.0249,-1.9546,-1.8934,-1.8536,-1.8429,-1.8321,-1.7699,-1.7534,-1.7268,-1.6161,-1.6009,-1.5951,-1.5536,-1.4991,-1.4451,-1.3983,-1.339,-1.292,-1.2867,-1.2428,-1.2172,-1.2508,-1.1521,-1.0479,-0.9619,-0.8926,-0.8081,-0.6865,-0.6247,-0.5523,-0.4627,-0.3859,-0.3059,-0.2091,-0.1965,-0.1631,-0.1105,-0.1104,-0.089,-0.0403,-0.0134,0.047,0.1342,0.1945,0.2417,0.2822,0.3426,0.3627,-2.5395,-2.4277,0.0,0.0,0.0,0.0,0.0,0.0,0.0,0.0,0.0,0.0,0.0,0.0,0.0,0.0,-1.6705,-1.6455,-1.6526,-1.6178,-1.5811,-1.5552,-1.521,-1.4818,-1.4373,-1.4129,-1.3952,-1.3789,-1.4118,-1.4408,-1.4547,-1.4536,-1.4799,-1.5412,-1.507,-1.5293,-1.6301,-1.6652,-1.7157,-1.7722,-1.805,-1.8061,-1.7854,-1.7897,-1.7512,-1.6818,-1.7346,-1.7335,-1.7,-1.76,-1.8267,-1.904,-1.9592,-1.9798,-1.9798,-1.9798,-2.0396,-2.1175,-2.1272,-2.2146,-2.3011,-2.2281,-2.1741,-2.1244,-2.0398,-1.9638,-1.8934,-1.8483,-1.8267,-1.7984,-1.7368,-1.7202,-1.6978,-1.6104,-1.5951,-1.5894,-1.5235,-1.4815,-1.4332,-1.3623,-1.3155,-1.2858,-1.2674,-1.2204,-1.2063,-1.24,-1.1567,-1.052,-0.9672,-0.882,-0.7787,-0.6412,-0.5786,-0.5162,-0.4691,-0.3834,-0.2957,-0.2145,-0.2334,-0.2058,-0.1137,-0.0915,-0.0486,-0.0,0.0472,0.1208,0.2214,0.2549,0.3021,0.3493,0.4025,0.4225,0.0,0.0,0.0,0.0,0.0,0.0,0.0,0.0,0.0,0.0,0.0,0.0,0.0,0.0,0.0,-1.5944,-1.5254,-1.4892,-1.5424,-1.4628,-1.4165,-1.4651,-1.415,-1.3773,-1.361,-1.3306,-1.2978,-1.2725,-1.2676,-1.3017,-1.3763,-1.342,-1.3828,-1.5278,-1.4924,-1.5185,-1.6301,-1.6161,-1.6606,-1.7667,-1.749,-1.7512,-1.7711,-1.759,-1.7245,-1.6818,-1.6545,-1.6384,-1.6431,-1.7,-1.7918,-1.904,-1.9592,-1.9798,-1.9798,-1.9798,-2.0156,-2.066,-2.1042,-2.1819,-2.2375,-2.1201,-2.1083,-2.1104,-1.951,-1.9028,-1.8987,-1.8987,-1.8548,-1.7929,-1.7368,-1.7202,-1.7034,-1.6415,-1.656,-1.6467,-1.5186,-1.5186,-1.4991,-1.3743,-1.3502,-1.3139,-1.1988,-1.2007,-1.2138,-1.2002,-1.1019,-1.0417,-1.0754,-0.8836,-0.7176,-0.6416,-0.6261,-0.5631,-0.3988,-0.4533,-0.3912,-0.1492,-0.2041,-0.2073,-0.1242,-0.0426,-0.0,-0.0,0.143,0.2214,0.2214,0.3422,0.4028,0.4028,0.4553,0.4815,-2.407,0.0,0.0,0.0,0.0,0.0,0.0,0.0,0.0,0.0,0.0,0.0,0.0,0.0,0.0,-1.5389,-1.4698,-1.4305,-1.4536,-1.4258,-1.4118,-1.4466,-1.415,-1.3868,-1.3621,-1.3334,-1.3045,-1.2725,-1.3007,-1.3382,-1.3773,-1.3823,-1.4265,-1.5289,-1.4975,-1.5077,-1.568,-1.6036,-1.6322,-1.6436,-1.6821,-1.7234,-1.7711,-1.7423,-1.7088,-1.6818,-1.6545,-1.6384,-1.6488,-1.7446,-1.8038,-1.8483,-1.9423,-1.9798,-1.9798,-1.9798,-2.0055,-2.051,-2.1042,-2.1527,-2.1888,-2.192,-2.1434,-2.0762,-2.0312,-1.9628,-1.8934,-1.8483,-1.7929,-1.7313,-1.6698,-1.6244,-1.5921,-1.5884,-1.6019,-1.5836,-1.4638,-1.4579,-1.441,-1.3094,-1.2858,-1.2797,-1.2674,-1.2071,-1.1737,-1.2183,-1.0802,-0.9406,-0.8585,-0.7553,-0.6718,-0.6338,-0.586,-0.5389,-0.4927,-0.3837,-0.2976,-0.2429,-0.1883,-0.1549,-0.12,-0.0446,0.0218,0.0701,0.1736,0.2464,0.2889,0.3625,0.4028,0.4028,0.4951,0.5348,0.0,0.0,0.0,0.0,0.0,0.0,0.0,0.0,0.0,0.0,0.0,0.0,0.0,0.0,0.0,-1.4709,-1.4107,-1.3684,-1.392,-1.36,-1.3409,-1.3742,-1.3621,-1.344,-1.319,-1.3094,-1.2949,-1.2578,-1.2803,-1.318,-1.3668,-1.37,-1.4205,-1.5289,-1.4998,-1.5094,-1.5748,-1.5806,-1.5979,-1.6265,-1.6549,-1.7,-1.7468,-1.7067,-1.6853,-1.6818,-1.6545,-1.6384,-1.6488,-1.7611,-1.8093,-1.8201,-1.9371,-1.9798,-1.9798,-1.9798,-1.9952,-2.0258,-2.0894,-2.1237,-2.1422,-2.1848,-2.1359,-2.0573,-2.0398,-1.9717,-1.8934,-1.8536,-1.7875,-1.7146,-1.6754,-1.6026,-1.541,-1.5546,-1.573,-1.5614,-1.4697,-1.4706,-1.4469,-1.3216,-1.2981,-1.2899,-1.2734,-1.2071,-1.1653,-1.1957,-1.0689,-0.915,-0.7698,-0.7176,-0.6718,-0.5944,-0.555,-0.5079,-0.446,-0.3368,-0.2586,-0.2352,-0.1727,-0.1249,-0.1,-0.0076,0.082,0.1518,0.2335,0.3055,0.3621,0.4115,0.4422,0.4625,0.5484,0.5951,0.0,0.0,0.0,0.0,0.0,0.0,0.0,0.0,0.0,0.0,0.0,0.0,0.0,-1.4305,-1.3705,-1.4035,-1.3399,-1.3064,-1.3389,-1.2783,-1.2412,-1.2725,-1.2793,-1.2715,-1.2529,-1.2735,-1.2725,-1.2323,-1.2274,-1.2676,-1.3529,-1.3311,-1.3802,-1.5248,-1.5004,-1.5302,-1.6187,-1.5546,-1.5662,-1.6662,-1.656,-1.6729,-1.709,-1.6641,-1.6549,-1.6818,-1.6545,-1.6384,-1.6488,-1.7611,-1.8093,-1.8201,-1.9371,-1.9798,-1.9798,-1.9798,-1.9798,-1.9901,-2.0696,-2.0993,-2.0983,-2.129,-2.1062,-2.0554,-1.998,-1.9464,-1.9054,-1.9008,-1.8147,-1.7257,-1.7257,-1.6358,-1.5468,-1.5468,-1.572,-1.574,-1.501,-1.5177,-1.4991,-1.3743,-1.3511,-1.3264,-1.2436,-1.2026,-1.1661,-1.1352,-1.0364,-0.916,-0.7561,-0.7407,-0.6942,-0.5553,-0.5321,-0.4693,-0.3365,-0.3054,-0.2586,-0.1728,-0.1572,-0.1257,-0.055,0.0537,0.1514,0.2343,0.3108,0.3734,0.4214,0.4701,0.5169,0.5638,0.616,0.642,0.0,0.0,0.0,0.0,0.0,0.0,0.0,0.0,0.0,0.0,0.0,0.0,0.0,-1.3909,-1.3362,-1.315,-1.2638,-1.2314,-1.2403,-1.2264,-1.2274,-1.251,-1.2715,-1.2715,-1.2529,-1.2735,-1.2725,-1.2323,-1.2274,-1.2603,-1.338,-1.3404,-1.394,-1.5124,-1.5125,-1.5274,-1.5575,-1.5313,-1.5264,-1.5371,-1.5652,-1.6046,-1.6528,-1.7123,-1.72,-1.6818,-1.6545,-1.6384,-1.6488,-1.7611,-1.8093,-1.8201,-1.9371,-1.9798,-1.9798,-1.9798,-1.9656,-1.9617,-2.0646,-2.0845,-2.0764,-2.1245,-2.1327,-2.1054,-2.0096,-1.9717,-1.9536,-1.9131,-1.8483,-1.7929,-1.7929,-1.7034,-1.6083,-1.6083,-1.5999,-1.574,-1.501,-1.5177,-1.4991,-1.3743,-1.3511,-1.3264,-1.2357,-1.2019,-1.1229,-0.9537,-0.8595,-0.7633,-0.6721,-0.6718,-0.6637,-0.6328,-0.5318,-0.4538,-0.4377,-0.2978,-0.212,-0.204,-0.1413,-0.0707,0.0078,0.0858,0.1464,0.1814,0.3513,0.4342,0.4324,0.5256,0.5737,0.587,0.6215,0.642,0.0,0.0,0.0,0.0,0.0,0.0,0.0,0.0,0.0,0.0,0.0,0.0,-1.3815,-1.3304,-1.2793,-1.2501,-1.2215,-1.1977,-1.1828,-1.1819,-1.1769,-1.1728,-1.1918,-1.2017,-1.1927,-1.2175,-1.2274,-1.2224,-1.2401,-1.2748,-1.3365,-1.3619,-1.4174,-1.5044,-1.5157,-1.5264,-1.541,-1.5264,-1.5156,-1.497,-1.543,-1.5921,-1.6539,-1.719,-1.7145,-1.6602,-1.6488,-1.6384,-1.6488,-1.7611,-1.8093,-1.8201,-1.9371,-1.9798,-1.9798,-1.9798,-1.9708,-1.9708,-2.0459,-2.0759,-2.0887,-2.1326,-2.1449,-2.1238,-2.0417,-1.9996,-1.9688,-1.9159,-1.8548,-1.8093,-1.8093,-1.7202,-1.6312,-1.6436,-1.6181,-1.5798,-1.543,-1.5662,-1.5478,-1.4231,-1.3883,-1.3505,-1.2591,-1.2171,-1.1141,-0.9044,-0.8322,-0.7633,-0.649,-0.6412,-0.6331,-0.6018,-0.5392,-0.4768,-0.4146,-0.2976,-0.2196,-0.1805,-0.1021,-0.0157,0.0705,0.1332,0.1947,0.2843,0.4024,0.4798,0.5319,0.5827,0.6139,0.6276,0.6459,0.6505,0.0,0.0,0.0,0.0,0.0,0.0,0.0,0.0,0.0,0.0,0.0,-1.292,-1.3132,-1.2657,-1.2224,-1.2026,-1.1877,-1.1678,-1.1418,-1.1377,-1.1226,-1.0871,-1.1074,-1.1217,-1.1175,-1.1477,-1.1805,-1.2077,-1.2479,-1.2935,-1.3441,-1.3847,-1.4364,-1.5051,-1.5138,-1.5264,-1.541,-1.5264,-1.5156,-1.5039,-1.5546,-1.6151,-1.6832,-1.7067,-1.692,-1.6488,-1.6431,-1.6384,-1.6488,-1.7501,-1.8038,-1.8201,-1.9267,-1.9695,-1.9798,-1.9747,-1.9747,-1.9811,-2.022,-2.061,-2.1042,-2.1458,-2.1569,-2.1432,-2.0798,-2.0283,-1.9799,-1.9184,-1.8655,-1.8267,-1.8267,-1.7368,-1.6482,-1.6673,-1.6306,-1.5856,-1.5788,-1.6029,-1.5836,-1.446,-1.3889,-1.334,-1.2601,-1.2009,-1.0956,-0.9003,-0.8551,-0.794,-0.649,-0.6338,-0.6103,-0.5553,-0.5628,-0.5157,-0.3912,-0.3287,-0.2585,-0.1649,-0.0864,0.0078,0.1175,0.1646,0.2662,0.4224,0.4602,0.5309,0.636,0.635,0.6493,0.6786,0.6725,0.6683,0.0,0.0,0.0,0.0,0.0,0.0,0.0,0.0,0.0,0.0,-1.2744,-1.248,-1.2323,-1.2175,-1.2026,-1.1628,-1.1368,-1.1175,-1.1023,-1.0769,-1.0616,-1.0573,-1.0769,-1.082,-1.0557,-1.1217,-1.176,-1.1931,-1.2428,-1.3028,-1.3793,-1.3875,-1.4277,-1.4993,-1.5001,-1.5137,-1.541,-1.5264,-1.5215,-1.5156,-1.6066,-1.656,-1.6832,-1.7067,-1.7022,-1.6705,-1.6488,-1.6384,-1.6431,-1.7056,-1.7644,-1.8147,-1.8815,-1.9396,-1.9798,-1.9656,-1.9604,-1.9656,-2.008,-2.0472,-2.0894,-2.141,-2.1805,-2.1925,-2.0908,-2.0555,-2.0289,-1.9297,-1.8934,-1.8881,-1.8881,-1.7984,-1.7146,-1.7279,-1.657,-1.5798,-1.5362,-1.541,-1.505,-1.3373,-1.2201,-1.1512,-1.1603,-1.0839,-0.9841,-0.8851,-0.8093,-0.733,-0.6416,-0.649,-0.6563,-0.6409,-0.6096,-0.5783,-0.555,-0.4377,-0.3363,-0.2662,-0.1726,-0.0549,0.0862,0.1568,0.2818,0.4849,0.5295,0.5829,0.6528,0.6899,0.7102,0.7147,0.6838,0.7018,0.0,0.0,0.0,0.0,0.0,0.0,0.0,0.0,0.0,0.0,-1.2151,-1.1817,-1.1657,-1.1309,-1.104,-1.1015,-1.06,-1.0285,-1.0387,-1.0241,-1.0146,-1.0205,-1.0308,-1.043,-1.0574,-1.0854,-1.1211,-1.168,-1.2393,-1.2996,-1.3341,-1.3929,-1.4313,-1.4428,-1.4793,-1.4961,-1.4883,-1.5088,-1.5088,-1.4902,-1.5584,-1.5874,-1.5816,-1.6275,-1.6457,-1.641,-1.6431,-1.6259,-1.6087,-1.6888,-1.7534,-1.8147,-1.8762,-1.9146,-1.9344,-1.9565,-1.9396,-1.9239,-1.9617,-2.022,-2.0858,-2.1055,-2.1636,-2.2056,-2.128,-2.0841,-2.045,-1.9654,-1.9238,-1.8987,-1.8987,-1.8093,-1.7257,-1.749,-1.6436,-1.5245,-1.4883,-1.5118,-1.5006,-1.36,-1.2513,-1.1834,-1.1761,-1.1107,-1.0137,-0.8851,-0.8399,-0.7714,-0.649,-0.649,-0.6563,-0.6563,-0.6637,-0.6247,-0.5312,-0.445,-0.3437,-0.2193,-0.1334,-0.0549,0.0392,0.1564,0.2968,0.4443,0.5229,0.6089,0.7099,0.7255,0.7538,0.7872,0.7699,0.792,0.0,0.0,0.0,0.0,0.0,0.0,0.0,0.0,0.0,0.0,-1.1399,-1.0933,-1.0979,-1.0569,-1.0275,-1.0352,-0.9873,-0.9562,-0.971,-0.9784,-0.9791,-0.9806,-0.9985,-1.0241,-1.0544,-1.0621,-1.0877,-1.15,-1.2216,-1.2756,-1.3033,-1.3791,-1.4198,-1.4189,-1.4666,-1.4784,-1.4401,-1.4843,-1.4961,-1.4775,-1.5294,-1.5362,-1.5137,-1.5584,-1.5806,-1.5806,-1.6124,-1.6077,-1.5788,-1.6662,-1.7324,-1.7929,-1.8375,-1.8602,-1.8762,-1.9186,-1.9069,-1.8804,-1.9198,-1.9965,-2.0795,-2.0795,-2.1444,-2.2091,-2.1552,-2.1032,-2.0482,-1.9958,-1.9395,-1.8987,-1.8987,-1.8201,-1.7479,-1.76,-1.6301,-1.497,-1.4478,-1.4496,-1.4347,-1.3553,-1.2749,-1.2101,-1.1803,-1.126,-1.0288,-0.8927,-0.8546,-0.7863,-0.649,-0.649,-0.6563,-0.6563,-0.6949,-0.6556,-0.5154,-0.4528,-0.3593,-0.2036,-0.1256,-0.0628,0.0078,0.125,0.2574,0.4126,0.4913,0.6009,0.7484,0.7484,0.7715,0.8161,0.8332,0.8643,0.0,0.0,0.0,0.0,0.0,0.0,0.0,0.0,0.0,-1.1376,-1.0523,-1.0,-1.007,-1.0328,-1.0287,-0.9769,-0.9413,-0.9204,-0.9086,-0.9456,-0.9597,-0.9274,-1.0017,-1.0429,-1.0164,-1.0615,-1.11,-1.139,-1.1768,-1.2384,-1.3399,-1.3502,-1.3872,-1.4647,-1.4715,-1.4529,-1.4213,-1.4401,-1.4715,-1.497,-1.5594,-1.57,-1.5352,-1.5565,-1.5381,-1.5031,-1.5633,-1.5826,-1.574,-1.6259,-1.674,-1.7257,-1.7257,-1.7589,-1.8027,-1.8494,-1.859,-1.8578,-1.9052,-1.9926,-2.0795,-2.0795,-2.1444,-2.2091,-2.1552,-2.1032,-2.0482,-1.9958,-1.9395,-1.8987,-1.8987,-1.8536,-1.7929,-1.749,-1.6472,-1.5254,-1.4276,-1.3228,-1.246,-1.25,-1.1999,-1.1526,-1.1211,-1.0513,-0.969,-0.8856,-0.8016,-0.7253,-0.6412,-0.649,-0.6563,-0.6563,-0.6788,-0.6633,-0.586,-0.5154,-0.4142,-0.2818,-0.2198,-0.1178,0.0235,0.0157,0.1485,0.4292,0.4448,0.5458,0.7484,0.7484,0.7553,0.754,0.8101,0.8807,0.0,0.0,0.0,0.0,0.0,0.0,0.0,0.0,-1.2366,-1.1399,-1.0643,-0.9998,-0.9519,-0.9467,-0.9522,-0.9422,-0.8965,-0.8626,-0.872,-0.8814,-0.894,-0.9119,-0.9195,-0.9376,-0.9761,-0.9933,-1.0234,-1.0684,-1.1377,-1.2157,-1.2818,-1.326,-1.3692,-1.4121,-1.4478,-1.4775,-1.4834,-1.4902,-1.497,-1.497,-1.5196,-1.5137,-1.4852,-1.4942,-1.4824,-1.4538,-1.5294,-1.541,-1.5254,-1.6077,-1.674,-1.7202,-1.7202,-1.7257,-1.7379,-1.7831,-1.7941,-1.7875,-1.8321,-1.9214,-2.0194,-2.056,-2.1153,-2.1718,-2.1854,-2.1297,-2.0569,-2.0371,-1.9688,-1.8987,-1.8987,-1.8536,-1.7767,-1.6448,-1.5881,-1.5289,-1.4263,-1.3735,-1.3475,-1.3508,-1.2949,-1.2403,-1.2285,-1.0962,-0.9614,-0.8856,-0.8016,-0.7176,-0.6412,-0.649,-0.6563,-0.6563,-0.6788,-0.6398,-0.5082,-0.4768,-0.4066,-0.2507,-0.2196,-0.1883,-0.1332,-0.0235,0.1327,0.335,0.4441,0.5841,0.7484,0.7484,0.7787,0.8318,0.899,0.969,0.0,0.0,0.0,0.0,0.0,0.0,0.0,0.0,-1.2642,-1.1608,-1.0919,-1.0292,-0.9544,-0.9242,-0.9065,-0.8946,-0.8569,-0.828,-0.8381,-0.8515,-0.8693,-0.8938,-0.8884,-0.9004,-0.9445,-0.9314,-0.9506,-1.0091,-1.0667,-1.1351,-1.2151,-1.2826,-1.3442,-1.4061,-1.43,-1.4538,-1.4843,-1.4666,-1.4606,-1.4715,-1.4675,-1.4616,-1.4556,-1.4547,-1.4497,-1.4327,-1.4893,-1.5059,-1.5059,-1.6019,-1.6591,-1.6944,-1.6877,-1.6775,-1.6684,-1.7179,-1.7324,-1.7435,-1.7929,-1.8845,-1.9901,-2.0409,-2.0957,-2.152,-2.2044,-2.1573,-2.083,-2.0653,-1.9952,-1.9219,-1.9049,-1.8317,-1.7462,-1.6787,-1.5928,-1.5194,-1.4782,-1.4368,-1.4079,-1.398,-1.3546,-1.2966,-1.2291,-1.0875,-0.9453,-0.847,-0.7633,-0.6872,-0.6338,-0.6412,-0.6563,-0.6563,-0.6402,-0.5777,-0.4538,-0.4222,-0.3521,-0.2196,-0.2041,-0.1961,-0.1961,-0.0235,0.1404,0.288,0.4511,0.5992,0.7484,0.7484,0.7787,0.8318,0.9372,1.0364,0.0,0.0,0.0,0.0,0.0,0.0,0.0,0.0,-1.3312,-1.1849,-1.1274,-1.0836,-1.0168,-0.9658,-0.9109,-0.8377,-0.8244,-0.8179,-0.8049,-0.8612,-0.8959,-0.873,-0.9121,-0.939,-0.9274,-0.8935,-0.8994,-0.9773,-0.9646,-1.0091,-1.1421,-1.2151,-1.3183,-1.4647,-1.4121,-1.3932,-1.4213,-1.3623,-1.3623,-1.4213,-1.4052,-1.424,-1.4715,-1.4437,-1.4327,-1.4327,-1.4478,-1.4765,-1.5294,-1.6077,-1.6384,-1.6374,-1.6181,-1.6009,-1.5972,-1.641,-1.6832,-1.7257,-1.7863,-1.8845,-1.985,-2.0409,-2.0957,-2.1471,-2.2044,-2.1802,-2.1279,-2.077,-2.0215,-1.9682,-1.9166,-1.7947,-1.7165,-1.8696,-1.686,-1.4985,-1.5869,-1.5027,-1.408,-1.3845,-1.3833,-1.3164,-1.123,-1.0173,-0.9125,-0.7783,-0.6872,-0.6338,-0.6338,-0.6338,-0.6338,-0.6563,-0.5625,-0.4849,-0.4384,-0.3365,-0.2508,-0.1964,-0.1729,-0.1572,-0.1572,-0.0,0.1561,0.3037,0.4513,0.5992,0.7484,0.7484,0.7484,0.7561,0.914,1.0586,-2.2239,0.0,0.0,0.0,0.0,0.0,0.0,0.0,-1.4328,-1.3725,-1.2594,-1.1578,-1.1149,-1.0521,-0.9914,-0.9569,-0.9,-0.857,-0.8375,-0.8562,-0.867,-0.8542,-0.8264,-0.8236,-0.87,-0.8495,-0.8742,-0.9709,-0.997,-1.0548,-1.1677,-1.265,-1.3683,-1.4656,-1.4538,-1.435,-1.4213,-1.4034,-1.4034,-1.4213,-1.4291,-1.4538,-1.4911,-1.4852,-1.4734,-1.4606,-1.4784,-1.5186,-1.57,-1.5846,-1.6087,-1.6374,-1.6181,-1.6009,-1.5914,-1.5961,-1.6503,-1.7202,-1.7368,-1.8255,-1.9396,-2.0308,-2.0709,-2.1006,-2.1935,-2.1555,-2.0865,-2.1104,-2.0501,-1.9866,-2.011,-1.9828,-1.9516,-1.9531,-1.8856,-1.7954,-1.6831,-1.63,-1.5731,-1.4609,-1.4049,-1.3608,-1.3084,-1.1069,-0.9497,-0.9049,-0.7472,-0.6338,-0.6338,-0.6338,-0.6103,-0.547,-0.516,-0.446,-0.3136,-0.2898,-0.2507,-0.1729,-0.165,-0.1572,-0.1572,-0.0392,0.0938,0.2422,0.39,0.5381,0.6868,0.7253,0.7484,0.7561,0.914,1.0685,0.0,0.0,0.0,0.0,0.0,0.0,-1.7938,-1.6711,-1.5505,-1.4681,-1.3682,-1.2671,-1.1881,-1.1205,-1.0766,-1.0584,-0.9958,-0.9332,-0.8705,-0.8894,-0.8894,-0.8511,-0.7922,-0.7722,-0.8252,-0.8107,-0.842,-0.9524,-0.9913,-1.0667,-1.2035,-1.2704,-1.3623,-1.4784,-1.4666,-1.4478,-1.4213,-1.3855,-1.3855,-1.4103,-1.4222,-1.4529,-1.497,-1.5137,-1.502,-1.4715,-1.4734,-1.5292,-1.6155,-1.6048,-1.6123,-1.6249,-1.6066,-1.5956,-1.5891,-1.5881,-1.6677,-1.7824,-1.7824,-1.8623,-1.9825,-2.0648,-2.1121,-2.1483,-2.2341,-2.2315,-2.202,-2.1836,-2.0964,-2.0249,-2.0779,-2.0476,-2.0153,-2.0699,-1.9961,-1.8858,-1.7803,-1.7201,-1.6332,-1.4911,-1.4346,-1.397,-1.3368,-1.187,-1.0456,-0.9266,-0.799,-0.6938,-0.6412,-0.6338,-0.6103,-0.5631,-0.4927,-0.4066,-0.3132,-0.2508,-0.1961,-0.1493,-0.1493,-0.1493,-0.1493,0.0078,0.133,0.2189,0.3982,0.5309,0.617,0.7096,0.7859,0.8537,0.9442,1.0795,0.0,0.0,0.0,0.0,0.0,0.0,-1.8996,-1.7993,-1.6856,-1.538,-1.4749,-1.41,-1.2724,-1.212,-1.175,-1.1633,-1.1135,-1.0332,-0.9145,-0.946,-0.9524,-0.8765,-0.8112,-0.7847,-0.8177,-0.8037,-0.8355,-0.9396,-0.9779,-1.0647,-1.2328,-1.2512,-1.3252,-1.4852,-1.4684,-1.4428,-1.4213,-1.3485,-1.3442,-1.401,-1.4025,-1.4392,-1.5088,-1.542,-1.5313,-1.4899,-1.4621,-1.5324,-1.6728,-1.6548,-1.6377,-1.6199,-1.6103,-1.5999,-1.5837,-1.6082,-1.7225,-1.8687,-1.8687,-1.9524,-2.0713,-2.1244,-2.1831,-2.243,-2.2924,-2.3515,-2.3758,-2.261,-2.1592,-2.094,-2.1366,-2.0546,-2.0048,-2.1968,-2.0598,-1.8787,-1.8711,-1.7929,-1.6729,-1.4903,-1.4569,-1.4186,-1.2976,-1.2597,-1.1704,-0.9251,-0.8732,-0.8138,-0.6714,-0.6563,-0.6409,-0.6025,-0.4691,-0.3752,-0.3519,-0.2195,-0.1335,-0.1335,-0.1335,-0.1335,-0.1335,0.0861,0.2112,0.2112,0.4373,0.5544,0.5622,0.6938,0.8309,0.9814,0.997,1.0875,0.0,0.0,0.0,0.0,-2.1785,0.0,-2.0953,-1.9902,-1.8843,-1.8193,-1.7103,-1.6069,-1.5573,-1.4446,-1.3554,-1.3425,-1.2793,-1.1826,-1.0395,-1.0078,-0.9894,-0.9703,-0.9326,-0.9256,-0.9576,-0.932,-0.9518,-1.0421,-1.0737,-1.1178,-1.1919,-1.2466,-1.3191,-1.4154,-1.4666,-1.4725,-1.4469,-1.4154,-1.4034,-1.4163,-1.4619,-1.5157,-1.5768,-1.6171,-1.6297,-1.6148,-1.5797,-1.6466,-1.7676,-1.7246,-1.6867,-1.6705,-1.7175,-1.6733,-1.5879,-1.6403,-1.7513,-1.8687,-1.8687,-1.9513,-2.0689,-2.1232,-2.1831,-2.243,-2.2924,-2.329,-2.3298,-2.2533,-2.2452,-2.2532,-2.2153,-2.1832,-2.1782,-2.2261,-2.2013,-2.1066,-1.9117,-1.938,-1.8909,-1.5313,-1.4569,-1.4489,-1.4258,-1.3273,-1.2298,-1.1777,-1.0748,-0.9562,-0.8134,-0.7986,-0.7065,-0.453,-0.3986,-0.3287,-0.1883,-0.1492,-0.1335,-0.1335,-0.1335,-0.1335,-0.1335,0.047,0.1488,0.1488,0.3679,0.5085,0.5622,0.7076,0.8219,0.9205,1.0346,1.1403,0.0,0.0,0.0,-2.2846,-2.2575,0.0,0.0,-2.1059,-2.028,-1.9584,-1.8584,-1.7641,-1.7014,-1.6105,-1.5303,-1.5139,-1.4455,-1.3691,-1.2874,-1.1673,-1.064,-1.0078,-0.9703,-0.9646,-0.9952,-0.9958,-1.0218,-1.0989,-1.1122,-1.1373,-1.1802,-1.2466,-1.3191,-1.3965,-1.4529,-1.4843,-1.4843,-1.4401,-1.4332,-1.4597,-1.5428,-1.6009,-1.6274,-1.7196,-1.7368,-1.6869,-1.6614,-1.7225,-1.8281,-1.764,-1.7432,-1.7496,-1.7666,-1.6943,-1.5917,-1.6728,-1.8068,-1.9397,-1.9397,-2.0266,-2.1439,-2.1724,-2.2226,-2.2832,-2.3395,-2.3819,-2.4001,-2.3342,-2.3112,-2.2964,-2.2356,-2.2197,-2.2185,-2.2309,-2.2359,-2.1877,-1.9976,-2.0245,-1.9976,-1.73,-1.6453,-1.593,-1.4776,-1.4034,-1.3281,-1.2597,-1.1931,-1.0971,-0.9632,-0.9406,-0.8566,-0.6364,-0.5671,-0.4673,-0.274,-0.2118,-0.1727,-0.1335,-0.1335,-0.1335,-0.1335,-0.0078,0.1019,0.1882,0.3446,0.4387,0.4693,0.6146,0.7596,0.9049,1.0426,1.1558,0.0,0.0,0.0,0.0,-2.3391,-2.3069,0.0,0.0,0.0,-2.0673,-1.9965,-1.9211,0.0,0.0,0.0,-1.7003,0.0,0.0,-1.5476,-1.3775,-1.2112,-1.0766,-1.0332,-1.0205,-1.0458,-1.0654,-1.0912,-1.1303,-1.1428,-1.1553,-1.1802,-1.2528,-1.3252,-1.3914,-1.4529,-1.4961,-1.5264,-1.4781,-1.4758,-1.5162,-1.6198,-1.6769,-1.692,-1.8119,-1.8272,-1.7583,-1.7385,-1.7818,-1.8635,-1.8021,-1.7893,-1.7996,-1.7907,-1.7139,-1.6202,-1.7159,-1.8689,-2.0237,-2.0172,-2.1019,-2.2197,-2.2197,-2.2702,-2.3386,-2.4034,-2.4657,-2.4998,-2.4222,-2.3645,-2.3129,-2.2377,-2.2197,-2.2197,-2.2197,-2.2309,-2.2013,-2.0726,-2.0842,-2.0703,-1.9152,-1.8655,-1.7746,-1.5455,-1.4982,-1.4466,-1.3121,-1.2968,-1.2524,-1.1051,-1.0828,-1.022,-0.8722,-0.7656,-0.628,-0.4365,-0.3285,-0.2508,-0.1804,-0.1804,-0.1804,-0.1804,-0.0627,0.0783,0.2431,0.3215,0.3606,0.3841,0.5065,0.6743,0.8817,1.0265,1.1372,0.0,0.0,0.0,-2.4918,-2.4451,-2.4051,-2.4101,0.0,-2.2634,-2.23,0.0,-2.1094,0.0,0.0,0.0,0.0,0.0,-1.7104,-1.6851,-1.595,-1.4749,-1.313,-1.2642,-1.2397,-1.2228,-1.2236,-1.205,-1.1622,-1.1934,-1.205,-1.1802,-1.2834,-1.3511,-1.3743,-1.4666,-1.5205,-1.5362,-1.5731,-1.5805,-1.5702,-1.6612,-1.7307,-1.785,-1.8391,-1.8639,-1.8607,-1.849,-1.8568,-1.8793,-1.8506,-1.8045,-1.7531,-1.8188,-1.7909,-1.7269,-1.7784,-1.9145,-2.0764,-2.0237,-2.1019,-2.2197,-2.2197,-2.2992,-2.4021,-2.4694,-2.5284,-2.5549,-2.4342,-2.3961,-2.364,-2.2497,-2.2197,-2.2197,-2.2197,-2.2197,-2.1851,-2.0621,-2.1467,-2.1729,-1.9238,-1.976,-1.976,-1.6995,-1.628,-1.5675,-1.4553,-1.4689,-1.4227,-1.2524,-1.2298,-1.1464,-0.935,-0.7938,-0.6732,-0.5726,-0.4438,-0.3599,-0.3519,-0.3519,-0.3519,-0.3519,-0.1249,0.0782,0.2431,0.2588,0.3059,0.3763,0.4441,0.5886,0.8112,0.9632,1.0881,0.0,0.0,-2.5307,-2.5438,-2.5036,-2.4679,-2.4926,-2.4672,-2.4277,-2.4013,0.0,0.0,0.0,0.0,0.0,0.0,-1.9952,-1.9147,-1.8939,-1.8401,-1.7104,-1.4613,-1.4209,-1.3981,-1.3657,-1.3597,-1.3416,-1.3009,-1.3304,-1.3356,-1.294,-1.3734,-1.4172,-1.4103,-1.5179,-1.5741,-1.5791,-1.623,-1.6455,-1.6517,-1.7446,-1.8155,-1.873,-1.9008,-1.918,-1.9231,-1.8764,-1.8878,-1.932,-1.8844,-1.8412,-1.8055,-1.8489,-1.7959,-1.701,-1.7725,-1.8731,-1.9835,-2.0042,-2.0741,-2.1651,-2.2061,-2.2763,-2.361,-2.4221,-2.4865,-2.5299,-2.4732,-2.4574,-2.4367,-2.3482,-2.3249,-2.3164,-2.281,-2.2712,-2.2546,-2.1849,-2.2211,-2.2396,-2.142,-2.1181,-2.0395,-1.8368,-1.7192,-1.628,-1.5409,-1.5062,-1.4553,-1.3803,-1.373,-1.275,-1.0204,-0.9386,-0.8027,-0.5597,-0.4836,-0.43,-0.383,-0.383,-0.3599,-0.3054,-0.1563,-0.0156,0.1019,0.1568,0.1959,0.235,0.2578,0.3575,0.5407,0.8694,1.0789,-2.6245,-2.5872,-2.5668,-2.5905,-2.5556,-2.5237,-2.5594,-2.5556,-2.5389,-2.5189,-2.49,0.0,0.0,0.0,0.0,0.0,0.0,-2.1288,0.0,-2.0588,-1.9241,-1.6416,-1.5837,-1.5408,-1.4681,-1.4758,-1.465,-1.4186,-1.4483,-1.4423,-1.3957,-1.451,-1.4871,-1.4855,-1.5648,-1.6235,-1.6546,-1.6806,-1.7213,-1.7644,-1.8158,-1.8826,-1.9731,-1.9641,-1.9605,-1.9594,-1.9054,-1.911,-1.9573,-1.9034,-1.8747,-1.8526,-1.8757,-1.8027,-1.7019,-1.7725,-1.8529,-1.9309,-1.9901,-2.0677,-2.1463,-2.2061,-2.2702,-2.3433,-2.3846,-2.4567,-2.5208,-2.5062,-2.4986,-2.4794,-2.3966,-2.3747,-2.3589,-2.3,-2.2854,-2.2789,-2.2627,-2.2616,-2.2678,-2.2957,-2.2075,-2.0962,-1.9717,-1.8285,-1.6904,-1.5965,-1.5409,-1.5054,-1.4919,-1.4713,-1.3818,-1.1877,-1.1193,-0.9766,-0.6754,-0.615,-0.5535,-0.4533,-0.4457,-0.399,-0.2899,-0.2033,-0.1094,-0.0,0.0627,0.1097,0.1332,0.1097,0.203,0.3874,0.7622,0.9906,-2.6314,-2.6227,-2.6175,-2.659,-2.6229,-2.5892,-2.6262,-2.598,-2.5598,-2.5582,-2.5721,-2.5655,-2.5163,0.0,0.0,0.0,0.0,0.0,0.0,0.0,-2.1117,-1.8967,-1.7716,-1.657,-1.5408,-1.5746,-1.5641,-1.4662,-1.508,-1.5118,-1.4529,-1.4942,-1.5428,-1.6025,-1.6055,-1.6637,-1.775,-1.7634,-1.8158,-1.9291,-1.8619,-1.9288,-2.0974,-2.0042,-1.966,-1.9781,-1.9594,-1.933,-1.9034,-1.8977,-1.89,-1.8834,-1.8977,-1.8442,-1.7706,-1.794,-1.8731,-1.9846,-2.0031,-2.1019,-2.2185,-2.2185,-2.2992,-2.3962,-2.3962,-2.4908,-2.5749,-2.5142,-2.4986,-2.4713,-2.344,-2.3125,-2.298,-2.2368,-2.2238,-2.2213,-2.2223,-2.2309,-2.2482,-2.2678,-2.2285,-2.169,-2.1123,-1.9573,-1.7852,-1.6044,-1.6035,-1.6097,-1.5833,-1.5062,-1.4569,-1.4489,-1.3273,-1.1857,-1.0456,-0.9105,-0.7685,-0.6335,-0.6183,-0.5476,-0.383,-0.2888,-0.1718,-0.0,-0.0,0.047,0.1332,0.0706,0.1954,0.4894,0.6481,0.7569,-2.6349,-2.6262,-2.621,-2.6624,-2.6436,-2.6297,-2.6725,-2.6725,-2.6674,-2.6674,-2.6901,-2.7057,-2.6753,0.0,0.0,0.0,0.0,0.0,0.0,0.0,-2.3141,-2.1671,-2.0089,0.0,-1.7912,-1.7893,-1.7544,-1.6564,-1.6765,-1.674,-1.64,-1.6796,-1.7084,-1.7204,-1.785,-1.8301,-1.8511,-1.8793,-1.9284,-2.0048,-1.9825,-2.0279,-2.1376,-2.0473,-2.0291,-2.0613,-1.9507,-1.9562,-2.0344,-1.9901,-1.941,-1.8982,-1.9552,-1.869,-1.7217,-1.7794,-1.8269,-1.8731,-1.977,-2.1019,-2.2197,-2.2197,-2.2763,-2.3492,-2.3904,-2.4624,-2.534,-2.5555,-2.5619,-2.5498,-2.5051,-2.4938,-2.4679,-2.3643,-2.3401,-2.3204,-2.248,-2.2359,-2.2482,-2.28,-2.1963,-2.106,-2.044,-1.9562,-1.8519,-1.7413,-1.6932,-1.6655,-1.6515,-1.6306,-1.5799,-1.483,-1.43,-1.2898,-1.0107,-0.8125,-0.6788,-0.6338,-0.6338,-0.5789,-0.4613,-0.3828,-0.2893,-0.196,-0.1255,-0.0706,-0.0392,-0.0628,-0.0078,0.1249,0.1748,0.5225,-2.6085,-2.6191,-2.628,-2.6657,-2.6742,-2.6792,-2.704,-2.7169,-2.7247,-2.7247,-2.7577,-2.7794,-2.7439,0.0,0.0,0.0,0.0,0.0,0.0,-2.4941,-2.4393,-2.346,-2.1988,0.0,0.0,-1.9438,-1.8874,-1.8159,-1.7909,-1.7723,-1.7632,-1.786,-1.8119,-1.8349,-1.8895,-1.9284,-1.9499,-1.9641,-2.0118,-2.088,-2.0613,-2.0996,-2.1889,-2.1049,-2.0858,-2.1123,-1.9955,-2.0085,-2.106,-2.056,-2.0139,-1.9771,-2.002,-1.909,-1.7687,-1.793,-1.8337,-1.8921,-2.0031,-2.121,-2.2197,-2.2197,-2.258,-2.3148,-2.3551,-2.4279,-2.5007,-2.5177,-2.5548,-2.5777,-2.5349,-2.5402,-2.5301,-2.4249,-2.4004,-2.3758,-2.2819,-2.262,-2.2698,-2.2802,-2.1714,-2.0752,-2.0749,-2.0009,-1.911,-1.8172,-1.7619,-1.7276,-1.7276,-1.707,-1.6558,-1.566,-1.552,-1.4332,-1.1261,-0.9301,-0.8058,-0.7846,-0.777,-0.7375,-0.651,-0.544,-0.4516,-0.3822,-0.2429,-0.1727,-0.1727,-0.1885,-0.1571,-0.0785,0.03,0.4133]},{"header":{"parameterUnit":"m.s-1","parameterCategory":1,"la1":30.6,"la2":29.2853,"lo1":-89.7004,"lo2":-87.6739,"dx":0.0162,"dy":0.0183,"nx":112,"ny":82,"refTime":"2023-02-09T06:00:00:Z","depth":0,"parameterNumber":3,"parameterNumberName":"V-component_of_WINDS"},"data":[0.0,0.0,0.0,0.0,0.0,0.0,0.0,0.0,0.0,0.0,0.0,0.0,0.0,0.0,0.0,0.0,0.0,0.0,0.0,0.0,0.0,0.0,0.0,0.0,0.0,0.0,0.0,0.0,0.0,0.0,0.0,0.0,0.0,0.0,0.0,0.0,0.0,0.0,0.0,0.0,0.0,0.0,0.0,0.0,0.0,0.0,0.0,0.0,0.0,0.0,0.0,0.0,0.0,0.0,0.0,0.0,0.0,0.0,0.0,0.0,0.0,0.0,0.0,0.0,0.0,0.0,0.0,0.0,0.0,0.0,0.0,0.0,0.0,0.0,0.0,0.0,0.0,0.0,0.0,0.0,0.0,0.0,0.0,0.0,0.0,0.0,0.0,0.0,0.0,0.0,-0.7972,-0.6736,-0.6412,-0.6544,-0.7199,-0.8731,-1.0186,-1.1509,0.0,0.0,0.0,0.0,0.0,0.0,0.0,0.0,0.0,0.0,0.0,0.0,0.0,0.0,0.0,0.0,0.0,0.0,0.0,0.0,0.0,0.0,0.0,0.0,0.0,0.0,0.0,0.0,0.0,0.0,0.0,0.0,0.0,0.0,0.0,0.0,0.0,0.0,0.0,0.0,0.0,0.0,0.0,0.0,0.0,0.0,0.0,0.0,0.0,0.0,0.0,0.0,0.0,0.0,0.0,0.0,0.0,0.0,0.0,0.0,0.0,0.0,0.0,0.0,0.0,0.0,0.0,0.0,0.0,0.0,0.0,0.0,0.0,0.0,0.0,0.0,0.0,0.0,0.0,0.0,0.0,0.0,0.0,0.0,0.0,0.0,0.0,0.0,0.0,0.0,0.0,0.0,0.0,0.0,0.0,0.0,0.0,0.0,0.0,0.0,0.0,0.0,0.0,0.0,-0.7652,-0.6152,-0.6412,-0.6868,-0.7582,-0.918,-1.0703,-1.1826,0.0,0.0,0.0,0.0,0.0,0.0,0.0,0.0,0.0,0.0,0.0,0.0,0.0,0.0,0.0,0.0,0.0,0.0,0.0,0.0,0.0,0.0,0.0,0.0,0.0,0.0,0.0,0.0,0.0,0.0,0.0,0.0,0.0,0.0,0.0,0.0,0.0,0.0,0.0,0.0,0.0,0.0,0.0,0.0,0.0,0.0,0.0,0.0,0.0,0.0,0.0,0.0,0.0,0.0,0.0,0.0,0.0,0.0,0.0,0.0,0.0,0.0,0.0,0.0,0.0,0.0,0.0,0.0,0.0,0.0,0.0,0.0,0.0,0.0,0.0,0.0,0.0,0.0,0.0,0.0,0.0,0.0,0.0,0.0,0.0,0.0,0.0,0.0,0.0,0.0,0.0,0.0,0.0,0.0,0.0,0.0,0.0,0.0,0.0,0.0,0.0,0.0,0.0,-0.842,-0.7521,-0.6802,-0.6933,-0.7391,-0.8096,-0.9314,-1.0584,-1.195,-1.2757,0.0,0.0,0.0,0.0,0.0,0.0,0.0,0.0,0.0,0.0,0.0,0.0,0.0,0.0,0.0,0.0,0.0,0.0,0.0,0.0,0.0,0.0,0.0,0.0,0.0,0.0,0.0,0.0,0.0,0.0,0.0,0.0,0.0,0.0,0.0,0.0,0.0,0.0,0.0,0.0,0.0,0.0,0.0,0.0,0.0,0.0,0.0,0.0,0.0,0.0,0.0,0.0,0.0,0.0,0.0,0.0,0.0,0.0,0.0,0.0,0.0,0.0,0.0,0.0,0.0,0.0,0.0,0.0,0.0,0.0,0.0,0.0,0.0,0.0,0.0,0.0,0.0,0.0,0.0,0.0,0.0,0.0,0.0,0.0,0.0,0.0,0.0,0.0,0.0,0.0,0.0,0.0,0.0,0.0,0.0,0.0,0.0,0.0,0.0,0.0,0.0,0.0,-0.8032,-0.7321,-0.7321,-0.7451,-0.7842,-0.8484,-0.939,-1.0528,-1.2012,-1.2749,0.0,0.0,0.0,0.0,0.0,0.0,0.0,0.0,0.0,0.0,0.0,0.0,0.0,0.0,0.0,0.0,0.0,0.0,0.0,0.0,0.0,0.0,0.0,0.0,0.0,0.0,0.0,0.0,0.0,0.0,0.0,0.0,0.0,0.0,0.0,0.0,0.0,0.0,0.0,0.0,0.0,0.0,0.0,0.0,0.0,0.0,0.0,0.0,0.0,0.0,0.0,0.0,0.0,0.0,0.0,0.0,0.0,0.0,0.0,0.0,0.0,0.0,0.0,0.0,0.0,0.0,0.0,0.0,0.0,0.0,0.0,0.0,0.0,0.0,0.0,0.0,0.0,0.0,0.0,0.0,0.0,0.0,0.0,0.0,0.0,0.0,0.0,0.0,0.0,0.0,0.0,0.0,0.0,0.0,0.0,0.0,0.0,0.0,0.0,0.0,0.0,0.0,-0.7702,-0.6924,-0.6924,-0.7572,-0.8156,-0.8672,-0.9652,-1.0912,-1.2389,-1.3235,0.0,0.0,0.0,0.0,0.0,0.0,0.0,0.0,0.0,0.0,0.0,0.0,0.0,0.0,0.0,0.0,0.0,0.0,0.0,0.0,0.0,0.0,0.0,0.0,0.0,0.0,0.0,0.0,0.0,0.0,0.0,0.0,0.0,0.0,0.0,0.0,0.0,0.0,0.0,0.0,0.0,0.0,0.0,0.0,0.0,0.0,0.0,0.0,0.0,0.0,0.0,0.0,0.0,0.0,0.0,0.0,0.0,0.0,0.0,0.0,0.0,0.0,0.0,0.0,0.0,0.0,0.0,0.0,0.0,0.0,0.0,0.0,0.0,0.0,0.0,0.0,0.0,0.0,0.0,0.0,0.0,0.0,0.0,0.0,0.0,0.0,0.0,0.0,0.0,0.0,0.0,0.0,0.0,0.0,0.0,0.0,0.0,0.0,0.0,0.0,0.0,0.0,-0.8689,-0.8231,-0.8361,-0.8554,-0.8877,-0.946,-1.0288,-1.1226,-1.2451,0.0,0.0,0.0,0.0,0.0,0.0,0.0,0.0,0.0,0.0,0.0,0.0,0.0,0.0,0.0,0.0,0.0,0.0,0.0,0.0,0.0,0.0,0.0,0.0,0.0,0.0,0.0,0.0,0.0,0.0,0.0,0.0,0.0,0.0,0.0,0.0,0.0,0.0,0.0,0.0,0.0,0.0,0.0,0.0,0.0,0.0,0.0,0.0,0.0,0.0,0.0,0.0,0.0,0.0,0.0,0.0,0.0,0.0,0.0,0.0,0.0,0.0,0.0,0.0,0.0,0.0,0.0,0.0,0.0,0.0,0.0,0.0,0.0,0.0,0.0,0.0,0.0,0.0,0.0,0.0,0.0,0.0,0.0,0.0,0.0,0.0,0.0,0.0,0.0,0.0,0.0,0.0,0.0,0.0,0.0,0.0,0.0,0.0,0.0,0.0,0.0,0.0,-0.9728,-0.9344,-0.9081,-0.9145,-0.9081,-0.9338,-0.9919,-1.0548,-1.1476,-1.281,0.0,0.0,0.0,0.0,0.0,0.0,0.0,0.0,0.0,0.0,0.0,0.0,0.0,0.0,0.0,0.0,0.0,0.0,0.0,0.0,0.0,0.0,0.0,0.0,0.0,0.0,0.0,0.0,0.0,0.0,0.0,0.0,0.0,0.0,0.0,0.0,0.0,0.0,0.0,0.0,0.0,0.0,0.0,0.0,0.0,0.0,0.0,0.0,0.0,0.0,0.0,0.0,0.0,0.0,0.0,0.0,0.0,0.0,0.0,0.0,0.0,0.0,0.0,0.0,0.0,0.0,0.0,0.0,0.0,0.0,0.0,0.0,0.0,0.0,0.0,0.0,0.0,0.0,0.0,0.0,0.0,0.0,0.0,0.0,0.0,0.0,0.0,0.0,0.0,0.0,0.0,0.0,0.0,0.0,0.0,0.0,0.0,0.0,0.0,0.0,0.0,0.0,-0.9518,-0.9396,-0.9145,-0.8835,-0.9087,-0.9466,-0.9983,-1.0491,-1.1655,0.0,0.0,0.0,0.0,0.0,0.0,0.0,0.0,0.0,0.0,0.0,0.0,0.0,0.0,0.0,0.0,0.0,0.0,0.0,0.0,0.0,0.0,0.0,0.0,0.0,0.0,0.0,0.0,0.0,0.0,0.0,0.0,0.0,0.0,0.0,0.0,0.0,0.0,0.0,0.0,0.0,0.0,0.0,0.0,0.0,0.0,0.0,0.0,0.0,0.0,0.0,0.0,0.0,0.0,0.0,0.0,0.0,0.0,0.0,0.0,0.0,0.0,0.0,0.0,0.0,0.0,0.0,0.0,0.0,0.0,0.0,0.0,0.0,0.0,0.0,0.0,0.0,0.0,0.0,0.0,0.0,0.0,0.0,0.0,0.0,0.0,0.0,0.0,0.0,0.0,0.0,0.0,0.0,0.0,0.0,0.0,0.0,0.0,0.0,0.0,0.0,0.0,0.0,-0.9728,-0.9472,-0.9274,-0.9145,-0.9472,-0.9798,-1.0174,-1.1226,-1.2389,-1.3648,0.0,0.0,0.0,0.0,0.0,0.0,0.0,0.0,0.0,0.0,0.0,0.0,0.0,0.0,0.0,0.0,0.0,0.0,0.0,0.0,0.0,0.0,0.0,0.0,0.0,0.0,0.0,0.0,0.0,0.0,0.0,0.0,0.0,0.0,0.0,0.0,0.0,0.0,0.0,0.0,0.0,0.0,0.0,0.0,0.0,0.0,0.0,0.0,0.0,0.0,0.0,0.0,0.0,0.0,0.0,0.0,0.0,0.0,0.0,0.0,0.0,0.0,0.0,0.0,0.0,0.0,0.0,0.0,0.0,0.0,0.0,0.0,0.0,0.0,0.0,0.0,0.0,0.0,0.0,0.0,0.0,0.0,0.0,0.0,0.0,0.0,0.0,0.0,0.0,0.0,0.0,0.0,0.0,0.0,0.0,0.0,0.0,0.0,0.0,0.0,0.0,0.0,-0.9804,-0.9542,-0.9344,-0.9338,-0.9664,-1.0053,-1.0371,-1.1593,-1.2749,-1.3819,0.0,0.0,0.0,0.0,0.0,0.0,0.0,0.0,0.0,0.0,0.0,0.0,0.0,0.0,0.0,0.0,0.0,0.0,0.0,0.0,0.0,0.0,0.0,0.0,0.0,0.0,0.0,0.0,0.0,0.0,0.0,0.0,0.0,0.0,0.0,0.0,0.0,0.0,0.0,0.0,0.0,0.0,0.0,0.0,0.0,0.0,0.0,0.0,0.0,0.0,0.0,0.0,0.0,0.0,0.0,0.0,0.0,0.0,0.0,0.0,0.0,0.0,0.0,0.0,0.0,0.0,0.0,0.0,0.0,0.0,0.0,0.0,0.0,0.0,0.0,0.0,0.0,0.0,0.0,0.0,0.0,0.0,0.0,0.0,0.0,0.0,0.0,0.0,0.0,0.0,0.0,0.0,0.0,0.0,0.0,0.0,0.0,0.0,0.0,0.0,0.0,0.0,-0.9862,-0.9612,-0.9478,-0.9338,-0.9792,-1.0174,-1.0561,-1.1717,-1.2984,-1.4227,0.0,0.0,0.0,0.0,0.0,0.0,0.0,0.0,0.0,0.0,0.0,0.0,0.0,0.0,0.0,0.0,0.0,0.0,0.0,0.0,0.0,0.0,0.0,0.0,0.0,0.0,0.0,0.0,0.0,0.0,0.0,0.0,0.0,0.0,0.0,0.0,0.0,0.0,0.0,0.0,0.0,0.0,0.0,0.0,0.0,0.0,0.0,0.0,0.0,0.0,0.0,0.0,0.0,0.0,0.0,0.0,0.0,0.0,0.0,0.0,-0.7051,-0.8028,0.0,0.0,0.0,0.0,0.0,0.0,0.0,0.0,0.0,0.0,0.0,0.0,0.0,0.0,0.0,0.0,0.0,0.0,0.0,0.0,0.0,0.0,0.0,0.0,0.0,0.0,0.0,0.0,0.0,0.0,0.0,0.0,0.0,0.0,0.0,0.0,0.0,0.0,0.0,0.0,-0.9989,-0.9676,-0.9484,-0.9478,-1.0053,-1.0498,-1.0561,-1.2443,-1.393,-1.4838,-1.6578,0.0,0.0,0.0,0.0,0.0,0.0,0.0,0.0,0.0,0.0,0.0,0.0,0.0,0.0,0.0,0.0,0.0,0.0,0.0,0.0,0.0,0.0,0.0,0.0,0.0,0.0,0.0,0.0,0.0,0.0,0.0,0.0,0.0,0.0,0.0,0.0,0.0,0.0,0.0,0.0,0.0,0.0,0.0,0.0,0.0,0.0,0.0,0.0,0.0,0.0,0.0,0.0,0.0,0.0,0.0,0.0,0.0,0.0,0.0,-0.6461,-0.6962,0.0,0.0,0.0,0.0,0.0,0.0,0.0,0.0,0.0,0.0,0.0,0.0,0.0,0.0,0.0,0.0,0.0,0.0,0.0,0.0,0.0,0.0,0.0,0.0,0.0,0.0,0.0,0.0,0.0,0.0,0.0,0.0,0.0,0.0,0.0,0.0,0.0,0.0,0.0,0.0,-0.9983,-0.9734,-0.9548,-0.9734,-1.0548,-1.1219,-1.1586,-1.3391,-1.4758,-1.5496,-1.7147,0.0,0.0,0.0,0.0,0.0,0.0,0.0,0.0,0.0,0.0,0.0,0.0,0.0,0.0,0.0,0.0,0.0,0.0,0.0,0.0,0.0,0.0,0.0,0.0,0.0,0.0,0.0,0.0,0.0,0.0,0.0,0.0,0.0,0.0,0.0,0.0,0.0,0.0,0.0,0.0,0.0,0.0,0.0,0.0,0.0,0.0,0.0,0.0,0.0,0.0,0.0,0.0,0.0,-0.4944,-0.4732,-0.5245,-0.5233,-0.5524,-0.621,-0.5832,-0.5917,-0.6346,-0.7182,0.0,0.0,0.0,0.0,0.0,0.0,0.0,0.0,0.0,0.0,0.0,0.0,0.0,0.0,0.0,0.0,0.0,0.0,0.0,0.0,0.0,0.0,-1.2305,-1.2305,-1.2452,-1.2599,-1.2753,0.0,0.0,0.0,0.0,0.0,0.0,0.0,0.0,0.0,0.0,0.0,-0.9989,-0.967,-0.9612,-0.9983,-1.0905,-1.1811,-1.2647,-1.4259,-1.5563,-1.626,-1.7665,-1.862,0.0,0.0,0.0,0.0,0.0,0.0,0.0,0.0,0.0,0.0,0.0,0.0,0.0,0.0,0.0,0.0,0.0,0.0,0.0,0.0,0.0,0.0,0.0,0.0,0.0,0.0,0.0,0.0,0.0,0.0,0.0,0.0,-0.3838,-0.3838,0.0,0.0,0.0,0.0,0.0,0.0,0.0,0.0,0.0,0.0,0.0,0.0,0.0,-0.5077,-0.5826,-0.5829,-0.5658,-0.5401,-0.5388,-0.4962,-0.404,-0.4028,-0.4107,-0.4191,-0.5053,0.0,-0.7003,-0.7148,0.0,0.0,0.0,0.0,0.0,0.0,0.0,0.0,0.0,0.0,0.0,0.0,0.0,0.0,0.0,0.0,0.0,0.0,0.0,0.0,0.0,0.0,-1.2305,-1.2305,-1.2298,-1.2378,-1.2378,-1.2673,-1.29,-1.29,-1.2746,-1.2586,0.0,0.0,0.0,0.0,0.0,0.0,-0.9868,-0.9612,-0.9612,-0.9983,-1.0905,-1.1866,-1.2805,-1.4721,-1.6306,-1.7313,-1.8566,-1.9552,-2.0156,-2.0409,0.0,0.0,0.0,0.0,0.0,0.0,0.0,0.0,0.0,0.0,0.0,0.0,0.0,0.0,0.0,0.0,0.0,0.0,0.0,0.0,0.0,0.0,0.0,0.0,0.0,0.0,0.0,0.0,0.0,-0.4685,-0.4299,-0.4122,-0.4599,-0.5084,0.0,0.0,0.0,0.0,0.0,0.0,0.0,0.0,0.0,-0.5605,-0.5181,-0.5325,-0.6197,-0.5776,-0.5441,-0.5269,-0.4794,-0.4522,-0.444,-0.4463,-0.4758,-0.5242,-0.5642,-0.6128,-0.6697,-0.6866,-0.7064,-0.7215,0.0,0.0,0.0,0.0,-0.8649,-0.8645,-0.9267,-0.9423,-0.9345,-0.9589,0.0,0.0,0.0,0.0,0.0,0.0,0.0,-1.2526,-1.2378,-1.2305,-1.2305,-1.2305,-1.2305,-1.2305,-1.2305,-1.2452,-1.2526,-1.2526,-1.2378,-1.2305,-1.2378,-1.1675,0.0,0.0,0.0,-0.9862,-0.9804,-1.0104,-1.0471,-1.078,-1.2281,-1.3596,-1.4536,-1.6172,-1.7567,-1.8436,-1.9423,-2.0118,-2.051,-2.0871,-2.1068,0.0,0.0,0.0,0.0,0.0,0.0,0.0,0.0,0.0,0.0,0.0,0.0,0.0,0.0,0.0,0.0,0.0,0.0,0.0,0.0,0.0,0.0,0.0,0.0,0.0,0.0,0.0,0.0,-0.4439,-0.4038,-0.4034,-0.3978,-0.4274,0.0,0.0,0.0,0.0,0.0,0.0,-0.5022,-0.4251,-0.4238,-0.5064,-0.4896,-0.5216,-0.6257,-0.5595,-0.5347,-0.551,-0.4773,-0.4736,-0.5297,-0.5361,-0.5709,-0.6338,-0.6338,-0.6338,-0.6349,-0.6537,-0.6741,-0.6727,-0.6839,-0.6865,-0.7015,-0.7629,-0.7855,-0.7855,-0.808,-0.8156,-0.8161,-0.8318,-0.9069,-1.0045,-1.1031,0.0,0.0,0.0,0.0,-1.2526,-1.2305,-1.2305,-1.2305,-1.2305,-1.2305,-1.2305,-1.2305,-1.2305,-1.2305,-1.2305,-1.215,-1.2077,-1.2224,-1.1462,0.0,-1.1024,-1.035,-0.9862,-1.0047,-1.0591,-1.126,-1.1927,-1.3536,-1.5022,-1.6146,-1.7401,-1.8471,-1.9396,-2.0055,-2.0573,-2.0908,-2.1313,-2.152,-2.152,0.0,0.0,0.0,0.0,0.0,0.0,0.0,0.0,0.0,0.0,0.0,0.0,0.0,0.0,0.0,0.0,0.0,0.0,0.0,0.0,0.0,0.0,0.0,0.0,0.0,0.0,0.0,0.0,0.0,-0.252,-0.2016,0.0,0.0,0.0,0.0,-0.3434,-0.4269,-0.4587,-0.402,-0.3121,-0.3086,-0.4059,-0.3248,-0.3532,-0.5101,-0.5021,-0.5413,-0.6281,-0.6197,-0.6193,-0.6271,-0.6264,-0.6261,-0.6338,-0.6338,-0.6338,-0.6338,-0.6345,-0.6423,-0.6574,-0.6641,-0.6714,-0.6942,-0.718,-0.7099,-0.7019,-0.7403,-0.7407,-0.7257,-0.7484,-0.8613,-1.0045,-1.0881,-1.1706,0.0,0.0,-1.2305,-1.2305,-1.2305,-1.2305,-1.2305,-1.2305,-1.2305,-1.2305,-1.2305,-1.2305,-1.2305,-1.2305,-1.215,-1.2003,-1.2003,0.0,-1.0811,-1.0673,-1.0151,-1.0047,-1.0654,-1.0892,-1.1618,-1.3107,-1.4064,-1.5187,-1.6757,-1.7633,-1.8685,-2.0067,-2.0321,-2.0822,-2.1698,-2.1746,-2.1793,-2.1793,-2.3568,0.0,0.0,0.0,0.0,0.0,0.0,0.0,0.0,0.0,0.0,0.0,0.0,0.0,0.0,0.0,0.0,0.0,0.0,0.0,0.0,0.0,0.0,0.0,0.0,0.0,0.0,0.0,0.0,-0.2134,-0.1458,0.0,-0.2246,-0.2246,-0.2407,-0.2887,-0.231,-0.2149,-0.257,-0.1914,-0.2142,-0.3563,-0.3484,-0.418,-0.5789,-0.5867,-0.6022,-0.6338,-0.6338,-0.6338,-0.6338,-0.6338,-0.6338,-0.6338,-0.6338,-0.6338,-0.6338,-0.6412,-0.6563,-0.6563,-0.6563,-0.6714,-0.6942,-0.6942,-0.6942,-0.6942,-0.7176,-0.7257,-0.7334,-0.8016,-0.8998,-1.0045,-1.0881,-1.1632,-1.2305,-1.2305,-1.2305,-1.2305,-1.2305,-1.2305,-1.2305,-1.2452,-1.2526,-1.2526,-1.2673,-1.2452,-1.2305,-1.2305,-1.2003,-1.1855,-1.215,-1.1395,-1.0872,-1.1175,-1.0949,-1.0884,-1.1358,-1.248,-1.3434,-1.3972,-1.5543,-1.689,-1.7633,-1.8608,-1.9527,-2.0271,-2.0957,-2.1506,-2.1902,-2.2184,-2.2324,-2.2324,-2.3763,-2.4751,0.0,0.0,0.0,0.0,0.0,0.0,0.0,0.0,0.0,0.0,0.0,0.0,0.0,0.0,0.0,0.0,0.0,0.0,0.0,0.0,0.0,0.0,0.0,0.0,0.0,0.0,-0.1042,-0.1922,-0.0949,-0.0549,-0.1565,-0.1174,-0.1096,-0.1723,-0.1097,-0.0863,-0.1333,-0.1021,-0.1568,-0.3359,-0.3595,-0.4533,-0.6261,-0.6338,-0.6338,-0.6338,-0.6338,-0.6338,-0.6338,-0.6338,-0.6338,-0.6338,-0.6338,-0.6338,-0.6338,-0.6486,-0.6641,-0.6714,-0.6714,-0.6788,-0.6942,-0.6942,-0.7022,-0.7022,-0.7253,-0.7334,-0.7488,-0.8399,-0.9226,-1.0045,-1.0881,-1.1632,-1.2305,-1.2305,-1.2378,-1.2378,-1.2378,-1.2452,-1.2526,-1.2673,-1.2673,-1.2746,-1.29,-1.2673,-1.2526,-1.2599,-1.2077,-1.1781,-1.2077,-1.1405,-1.112,-1.1655,-1.1556,-1.1632,-1.2359,-1.3691,-1.4758,-1.5177,-1.689,-1.8201,-1.8578,-1.9527,-2.0258,-2.0772,-2.1458,-2.1949,-2.2184,-2.2463,-2.2646,-2.2814,-2.4388,-2.5685,-2.664,0.0,0.0,0.0,0.0,0.0,0.0,0.0,0.0,0.0,0.0,0.0,0.0,0.0,0.0,0.0,0.0,0.0,0.0,0.0,0.0,0.0,0.0,0.0,-0.1856,-0.1191,-0.0861,-0.172,-0.0392,0.0314,-0.047,-0.0548,-0.0314,0.0236,-0.0627,-0.0941,-0.0314,-0.0471,-0.1411,-0.3281,-0.3359,-0.4297,-0.6257,-0.6261,-0.6261,-0.6338,-0.6338,-0.6338,-0.6338,-0.6338,-0.6338,-0.6338,-0.6338,-0.6338,-0.6338,-0.6486,-0.6714,-0.6861,-0.6942,-0.6942,-0.6942,-0.7103,-0.7184,-0.7257,-0.7407,-0.7484,-0.7638,-0.8399,-0.9221,-1.0045,-1.0807,-1.1632,-1.2298,-1.2305,-1.2452,-1.2599,-1.2599,-1.2746,-1.29,-1.29,-1.29,-1.29,-1.29,-1.29,-1.2973,-1.3193,-1.2445,-1.1781,-1.1781,-1.1557,-1.1552,-1.2126,-1.2013,0.0,-1.3588,-1.4523,-1.5458,-1.6698,-1.8015,-1.8992,-1.9552,-2.0258,-2.0908,-2.1616,-2.1746,-2.2091,-2.2601,-2.2615,-2.2828,-2.3275,-2.5551,-2.7387,-2.8794,0.0,0.0,0.0,0.0,0.0,0.0,0.0,0.0,0.0,0.0,0.0,0.0,0.0,0.0,0.0,0.0,0.0,0.0,0.0,0.0,0.0,0.0,0.0472,0.0158,0.0473,0.0706,0.0471,0.0864,0.0942,0.0549,0.0471,0.0471,0.055,0.0078,-0.0078,0.0157,-0.0157,-0.0941,-0.2036,-0.2818,-0.3832,-0.5157,-0.5705,-0.6099,-0.6338,-0.6338,-0.6338,-0.6338,-0.6338,-0.6338,-0.6338,-0.6338,-0.6338,-0.6338,-0.6486,-0.6641,-0.6714,-0.7026,-0.7176,-0.733,-0.7407,-0.7407,-0.7407,-0.7484,-0.7484,-0.7561,-0.8097,-0.8775,-0.9674,-1.0582,-1.1409,-1.215,-1.2599,-1.2746,-1.2826,-1.2826,-1.2893,-1.2973,-1.3046,-1.3119,-1.3193,-1.3273,-1.3119,-1.3039,-1.3688,-1.3462,-1.3237,-1.3317,-1.3447,-1.3689,-1.4247,-1.4387,-1.4646,-1.5457,-1.6561,-1.7368,-1.7578,-1.9008,-2.0016,-2.0181,-2.0993,-2.1684,-2.2235,-2.2663,-2.2994,-2.3157,-2.3231,-2.3881,-2.5213,-2.6352,-2.7624,0.0,0.0,0.0,0.0,0.0,0.0,0.0,0.0,0.0,0.0,0.0,0.0,0.0,0.0,0.0,0.0,0.0,0.0,0.0,0.0,0.0,0.0,0.0706,0.11,0.11,0.1178,0.1335,0.1335,0.1335,0.1257,0.11,0.11,0.0943,0.0707,0.0628,0.0314,-0.0157,-0.0392,-0.1176,-0.2584,-0.2896,-0.3521,-0.453,-0.5154,-0.547,-0.5628,-0.6103,-0.6338,-0.6338,-0.6338,-0.6338,-0.6338,-0.6338,-0.6338,-0.6338,-0.6486,-0.6563,-0.6641,0.0,0.0,0.0,0.0,-0.7638,-0.7714,-0.7714,-0.7868,-0.8016,-0.8016,-0.8775,-0.9755,-1.0282,-1.1105,-1.2003,-1.2599,-1.2673,-1.2673,-1.2746,-1.29,-1.3046,-1.3193,-1.3273,-1.3346,-1.3492,-1.3484,-1.3615,-1.4049,-1.4474,0.0,-1.5791,-1.5396,-1.5295,-1.6075,-1.6279,-1.6592,-1.7172,-1.8157,-1.8814,-1.8855,-2.0168,-2.1135,-2.1418,-2.2067,0.0,0.0,0.0,-2.345,-2.3721,-2.4445,0.0,0.0,0.0,-2.866,-2.9837,-2.9984,0.0,0.0,-2.981,-2.9633,0.0,0.0,0.0,0.0,0.0,0.0,0.0,0.0,0.0,0.0,0.0,0.0,0.0,0.0,0.0,0.0,0.1178,0.1335,0.1335,0.1336,0.1335,0.1335,0.1335,0.1335,0.1335,0.1335,0.1257,0.0943,0.0943,0.0471,-0.0627,-0.0784,0.0,0.0,0.0,-0.3363,-0.4373,-0.4608,-0.4766,-0.4844,-0.5786,-0.6261,-0.6261,-0.6261,-0.6261,-0.6338,-0.6338,-0.6338,-0.6338,-0.649,-0.6563,-0.6563,-0.6788,-0.7022,-0.7257,-0.7407,-0.7714,-0.8178,-0.8102,0.0,0.0,-0.8089,-0.8851,-1.0067,-0.9976,-1.0726,-1.1781,-1.2452,-1.2526,-1.2452,-1.2673,-1.2973,-1.3273,-1.3339,-1.3492,-1.3637,-1.371,-1.4057,-1.4474,-1.4744,-1.5666,-1.6954,-1.8715,-1.7543,-1.6779,-1.7865,-1.8134,-1.8441,-1.8953,-1.9585,-2.0105,-2.039,-2.1431,0.0,-2.2937,-2.3245,-2.361,-2.4006,-2.3752,-2.3822,-2.4251,-2.5767,-2.702,-2.7776,-2.8923,-2.9999,-3.0912,-3.0912,-3.0912,-3.0871,-3.0044,-2.9722,0.0,0.0,0.0,0.0,0.0,0.0,0.0,0.0,0.0,0.0,0.0,0.0,0.0,0.0,0.0,0.1178,0.1415,0.1572,0.1572,0.165,0.165,0.1335,0.1335,0.1335,0.1335,0.1415,0.1415,0.1257,0.1257,0.1021,0.0549,-0.0235,-0.0941,-0.1488,-0.2662,-0.36,-0.4144,-0.4849,-0.5243,-0.5401,-0.5637,0.0,-0.5941,-0.5941,-0.6099,-0.6338,-0.6338,-0.6338,-0.6338,-0.6338,-0.6338,-0.6412,-0.6791,-0.7246,-0.7633,-0.7173,-0.771,-0.8551,-0.8016,-0.8241,-0.8699,-0.8546,-0.8703,-0.9231,-1.0282,-1.0812,0.0,-1.2673,-1.3046,-1.3046,-1.3273,-1.3346,-1.3564,-1.3985,-1.4129,-1.4274,-1.4776,-1.4982,-1.5579,-1.7398,-1.7937,-1.8923,-2.1502,-2.0156,-1.9306,-2.0876,-2.1164,-2.1309,-2.1527,-2.1834,-2.1986,-2.1895,-2.2759,-2.3362,-2.3404,-2.396,-2.4502,-2.4855,-2.4799,-2.4744,-2.4768,-2.5687,-2.6671,-2.7713,-2.8698,-2.974,-3.0912,-3.0912,-3.0912,-3.0912,-3.0609,-3.0426,0.0,0.0,0.0,0.0,0.0,0.0,0.0,0.0,0.0,0.0,0.0,0.1646,0.0,0.0,0.1415,0.1572,0.165,0.1729,0.1729,0.1808,0.1808,0.165,0.1572,0.1572,0.1572,0.1729,0.1729,0.1572,0.1493,0.1178,0.0471,-0.0157,-0.0941,-0.1957,-0.2506,-0.313,-0.3756,-0.4382,-0.4771,-0.4851,-0.5323,-0.5637,-0.5789,-0.5789,-0.5789,-0.5948,-0.5948,-0.6025,-0.6099,-0.6331,-0.6412,-0.649,-0.6788,-0.7092,-0.7322,-0.7099,-0.7638,-0.8327,-0.8021,-0.8246,-0.8703,-0.8551,-0.8856,-0.9311,-1.0132,-1.0732,-1.1409,-1.2806,-1.3258,-1.347,-1.3905,-1.4122,-1.4274,-1.4553,-1.5021,-1.5492,-1.5781,-1.6702,-1.7841,-1.9415,-2.0221,-2.1376,-2.3913,-2.3449,-2.2883,-2.3308,-2.3467,-2.3676,-2.4253,-2.4457,-2.4461,-2.4187,-2.4614,-2.4854,-2.4712,-2.5082,-2.5307,-2.523,-2.5481,-2.5535,-2.54,-2.652,-2.7325,-2.7727,-2.8758,-2.9555,-3.0057,-3.0446,-3.061,-3.0555,-3.0807,-3.0855,0.0,0.0,0.0,0.0,0.0,0.0,0.0,0.0,0.3359,0.3517,0.3205,0.2893,0.3051,0.2743,0.2354,0.2354,0.2277,0.22,0.22,0.2121,0.2043,0.2043,0.1964,0.1887,0.1887,0.1964,0.1964,0.1887,0.1729,0.1256,0.0392,-0.0078,-0.094,-0.2504,-0.227,-0.2426,-0.3132,-0.3521,-0.3832,-0.4068,-0.4851,-0.5323,-0.5559,-0.5559,-0.5559,-0.5637,-0.5637,-0.5712,-0.5864,-0.6405,-0.656,-0.6486,-0.6938,-0.7092,-0.7015,-0.7176,-0.7718,-0.8331,-0.8255,-0.8551,-0.8932,-0.8632,-0.9089,-0.9765,-1.0121,-1.087,-1.1916,-1.3157,-1.3673,-1.3962,-1.4728,-1.5092,-1.5305,-1.5579,-1.6426,-1.7203,-1.7349,-1.8806,-2.0403,-2.1475,-2.2489,-2.3838,-2.6081,-2.6469,-2.6242,-2.5556,-2.5588,-2.5927,-2.6638,-2.6791,-2.6729,-2.651,-2.6551,-2.6523,-2.6488,-2.6512,-2.6336,-2.5859,-2.6211,-2.6305,-2.6063,-2.7367,-2.8032,-2.7912,-2.887,-2.9368,-2.9246,-2.9949,-3.0167,-3.004,-3.073,-3.0999,0.5249,0.3614,0.2756,0.416,0.3921,0.3604,0.0,0.0,0.3988,0.3988,0.4142,0.4215,0.4215,0.4139,0.4139,0.4139,0.3599,0.3212,0.3212,0.2744,0.2433,0.2433,0.212,0.1887,0.1887,0.2042,0.2119,0.1887,0.1887,0.1729,0.1414,0.047,-0.0235,-0.0627,-0.1332,-0.188,-0.2347,-0.2425,-0.2893,-0.383,-0.3908,-0.4457,-0.5321,-0.5321,-0.5401,-0.5637,-0.5637,-0.5637,-0.5712,-0.656,-0.6405,-0.5867,-0.7395,-0.7625,-0.7165,-0.7403,-0.8174,-0.917,-0.8927,-0.9311,-0.969,-0.9322,-0.962,-1.0288,-1.1236,-1.1896,-1.2705,-1.4243,-1.476,-1.4958,-1.6035,-1.6305,-1.6642,-1.7948,-1.8979,-1.9748,-2.0262,-2.1198,-2.2449,-2.4323,-2.4928,-2.5721,-2.7799,-2.8199,-2.8199,-2.8005,-2.8023,-2.8078,-2.8302,-2.8201,-2.8098,-2.8141,-2.8196,-2.8315,-2.8451,-2.8448,-2.8106,-2.7401,-2.7532,-2.7298,-2.6657,-2.7299,-2.7862,-2.8234,-2.8784,-2.9195,-2.9472,-2.9678,-2.9627,-2.9312,-3.0242,-3.0776,0.7592,0.0,0.0,0.0,0.6304,0.5996,0.6086,0.5857,0.5622,0.5699,0.5467,0.5312,0.5312,0.4999,0.4766,0.0,0.4535,0.4302,0.4302,0.3915,0.368,0.3756,0.3292,0.2826,0.2277,0.2354,0.2353,0.2277,0.2356,0.2356,0.2277,0.1647,0.1019,0.0392,-0.0392,-0.1175,-0.1879,-0.1956,-0.2189,-0.25,-0.2735,-0.3047,-0.3361,-0.4066,-0.4696,-0.5251,-0.5401,-0.5401,-0.5479,-0.6093,-0.6096,-0.5941,-0.7472,-0.7927,-0.7774,-0.794,-0.8551,-0.9306,-0.9226,-0.9523,-0.9906,-0.9992,-1.0507,-1.131,-1.2437,-1.3504,-1.4648,-1.6191,-1.684,-1.7494,-1.9147,-1.9564,-1.9871,-2.0973,-2.2216,-2.3045,-2.2655,-2.404,-2.5653,-2.6688,-2.75,-2.8436,-2.968,-3.0015,-3.0084,-3.0084,-2.9636,-2.9496,-3.0102,-3.0109,-2.9961,-2.9763,-2.9414,-2.9194,-2.914,-2.8922,-2.8544,-2.8032,-2.782,-2.7535,-2.7192,-2.7563,-2.7799,-2.7882,-2.8289,-2.8464,-2.8436,-2.9001,-2.9129,-2.8933,-2.9878,-3.0367,0.9357,0.0,0.0,0.8537,0.8309,0.8008,0.7395,0.7169,0.7096,0.7019,0.6633,0.6325,0.6325,0.6012,0.5777,0.5931,0.5619,0.5541,0.5848,0.5306,0.4999,0.5223,0.4916,0.4297,0.3443,0.3056,0.2823,0.2823,0.2902,0.2981,0.2981,0.2666,0.2194,0.1566,0.0861,0.0157,-0.0548,-0.0704,-0.086,-0.1016,-0.1171,-0.1249,-0.1406,-0.2577,-0.3675,-0.4698,-0.4851,-0.5007,-0.5243,-0.5783,-0.5864,-0.5935,-0.852,-0.9388,-0.9309,-1.0279,-1.0198,-0.9679,-1.004,-1.0335,-1.0708,-1.1304,-1.1964,-1.2823,-1.4134,-1.5435,-1.6807,-1.8231,-1.9175,-2.0101,-2.2065,-2.2548,-2.284,-2.387,-2.5045,-2.5726,-2.5079,-2.6528,-2.8073,-2.8683,-2.95,-3.0285,-3.1123,-3.1351,-3.1445,-3.1524,-3.0993,-3.0778,-3.1372,-3.1487,-3.1431,-3.1185,-3.0698,-3.0247,-2.992,-2.9612,-2.9169,-2.8528,-2.8233,-2.7959,-2.7689,-2.7908,-2.8,-2.7818,-2.8053,-2.8081,-2.7847,-2.8458,-2.8652,-2.8513,-2.9453,-2.9836,0.0,0.0,0.8832,0.9145,0.9221,0.9069,0.8232,0.8232,0.8156,0.7334,0.733,0.7484,0.7484,0.7407,0.7633,0.8174,0.7238,0.6846,0.7833,0.6912,0.6297,0.667,0.6747,0.6367,0.0,0.4455,0.3763,0.3763,0.3526,0.3368,0.3368,0.321,0.3054,0.3054,0.2665,0.2275,0.2117,0.2117,0.1566,0.0547,0.1014,0.0779,-0.0078,-0.0935,-0.2262,-0.383,-0.383,-0.4304,-0.5093,-0.5857,-0.5705,-0.5535,-1.1006,-1.2675,-1.2354,-1.5248,-1.387,-1.0657,-1.197,-1.2405,-1.2551,-1.3541,-1.4347,-1.5067,-1.6356,-1.7706,-1.9167,-2.0452,-2.1396,-2.2461,-2.4016,-2.4407,-2.4792,-2.6242,-2.6935,-2.736,-2.7771,-2.8293,-2.9057,-3.0385,-3.0501,-3.0721,-3.1806,-3.1913,-3.1948,-3.2144,-3.2179,-3.2109,-3.1819,-3.2001,-3.2197,-3.2266,-3.2179,-3.1864,-3.1208,-3.1072,-3.0454,-2.9077,-2.914,-2.8897,-2.812,-2.8344,-2.8458,-2.838,-2.8398,-2.8327,-2.8174,-2.8345,-2.8264,-2.795,-2.8891,-2.9225,0.0,0.0,1.1816,1.1093,1.0795,1.0484,0.9809,0.9216,0.877,0.8618,0.8246,0.7872,0.7872,0.7872,0.7949,0.8178,0.8089,0.808,0.8461,0.8147,0.7986,0.8219,0.7914,0.0,0.0,0.0,0.0,0.407,0.3938,0.398,0.4128,0.3839,0.373,0.3799,0.3205,0.2835,0.291,0.2834,0.2705,0.2745,0.2866,0.2339,0.1244,0.0933,0.0619,0.0231,-0.1242,0.0,0.2429,-0.5304,-0.6666,-0.4729,-1.336,-1.6596,-1.6577,-1.8417,-1.8202,-1.6694,-1.4646,-1.4812,-1.6073,-1.6424,-1.7417,-1.8736,-1.9725,-2.074,-2.164,-2.265,-2.3741,-2.4915,-2.6426,-2.71,-2.7699,-2.8835,-2.9512,-2.9735,-2.9204,-2.974,-3.0418,-3.0567,-3.101,-3.1511,-3.1877,-3.2162,-3.2386,-3.2521,-3.2386,-3.2249,-3.2161,-3.2335,-3.2472,-3.2506,-3.2128,-3.1688,-3.1293,-3.0635,-2.9944,-2.9223,-2.9097,-2.8905,-2.8651,-2.8626,-2.8594,-2.8536,-2.8484,-2.8432,-2.8327,-2.838,-2.8353,-2.8228,-2.8693,-2.8931,0.0,1.4163,1.3875,1.2799,1.2425,1.2044,1.1162,1.0421,0.99,0.9744,0.8998,0.8322,0.8475,0.8174,0.8025,0.856,0.8703,0.9003,0.9679,0.9669,0.9632,0.9931,0.9691,0.9074,0.0,0.0,0.0,0.4795,0.4952,0.5055,0.491,0.4692,0.4648,0.4715,0.4063,0.3846,0.3921,0.3704,0.4021,0.4822,0.5309,0.4974,0.3891,0.4,0.3844,0.3434,0.2371,0.3891,0.6347,-0.3732,-0.6041,-0.4428,-1.5557,-1.993,-2.0143,-2.1685,-2.2301,-2.1761,-1.8363,-1.8077,-1.9254,-1.9604,-2.0517,-2.1547,-2.233,-2.3127,-2.3927,-2.49,-2.5977,-2.714,-2.8498,-2.9109,-2.9626,-3.0444,-3.0797,-3.0797,-3.0293,-3.0559,-3.0958,-3.0948,-3.1452,-3.1966,-3.2162,-3.2521,-3.2802,-3.2898,-3.2719,-3.2555,-3.2521,-3.2639,-3.2705,-3.2705,-3.217,-3.1625,-3.1248,-3.0423,-2.974,-2.9248,-2.9089,-2.8952,-2.8905,-2.8791,-2.8694,-2.8637,-2.8587,-2.851,-2.8458,-2.8484,-2.851,-2.851,-2.87,-2.8874,1.5147,1.5147,1.4871,1.425,1.4114,1.3745,1.2198,1.1829,1.152,1.0679,0.9546,0.8798,0.0,0.0,0.808,0.9448,0.9377,0.9744,1.1533,1.1385,1.1285,0.0,0.0,0.0,0.0,0.0,0.0,0.6126,0.6407,0.6485,0.5858,0.5779,0.5776,0.5704,0.5415,0.52,0.5203,0.4922,0.5493,0.6836,0.8222,0.8442,0.7616,0.8022,0.7313,0.5904,0.6674,0.73,0.7107,-0.1024,-0.3924,-0.4504,-1.719,-2.2415,-2.305,-2.5182,-2.593,-2.5554,-2.3032,-2.2048,-2.2145,-2.3025,-2.338,-2.3508,-2.416,-2.497,-2.592,-2.6988,-2.7987,-2.8996,-2.9978,-3.0293,-3.0477,-3.1055,-3.0878,-3.0658,-3.1095,-3.0838,-3.0747,-3.1528,-3.1804,-3.2091,-3.2636,-3.2943,-3.3165,-3.3262,-3.3214,-3.3073,-3.2948,-3.2916,-3.2898,-3.2876,-3.2313,-3.1679,-3.1011,-3.0447,-2.9843,-2.9122,-2.9108,-2.9044,-2.8905,-2.8834,-2.8785,-2.8718,-2.8662,-2.8612,-2.8637,-2.8694,-2.8718,-2.8743,-2.8925,-2.8997,1.6715,1.6636,1.6558,1.572,1.5587,1.5379,1.3987,1.3216,1.2509,1.132,1.0007,0.9016,0.0,0.0,0.0,1.0271,1.0887,0.0,1.2237,1.2094,0.0,1.1764,0.0,1.1403,1.0428,1.1002,0.0,0.0,0.8101,0.7395,0.7138,0.6679,0.6344,0.6213,0.6538,0.6726,0.6789,0.7401,0.7815,0.823,0.9237,0.9672,0.9452,1.0182,1.0736,1.1047,0.9599,1.1715,1.5441,0.5332,-0.036,-0.3575,-1.3196,-2.1003,-2.6956,-2.7545,-2.7735,-2.7655,-2.6952,-2.5859,-2.4806,-2.5039,-2.5624,-2.6309,-2.6457,-2.6605,-2.6791,-2.7063,-2.8227,-2.9451,-2.9717,-3.0377,-3.1015,-3.1151,-3.1112,-3.1055,-3.119,-3.1112,-3.1095,-3.1291,-3.1804,-3.2437,-3.3086,-3.3286,-3.3304,-3.3292,-3.3262,-3.3244,-3.3274,-3.3274,-3.3051,-3.2516,-3.1828,-3.1101,-3.0327,-2.9673,-2.9219,-2.897,-2.9044,-2.9044,-2.8994,-2.8905,-2.8934,-2.9056,-2.8863,-2.8892,-2.9214,-2.9064,-2.9082,-2.9217,-2.9258,-2.9378,1.8068,1.7942,1.7607,1.6358,1.612,1.5865,1.4512,1.3779,1.3172,1.2133,1.0786,0.0,0.0,0.0,0.0,0.0,0.0,0.0,1.3279,1.3203,1.2969,0.0,1.2798,0.0,1.1745,1.2302,1.2398,0.0,1.0213,0.9208,0.9083,0.8452,0.8071,0.8006,0.8016,0.8076,0.8302,0.9285,0.9947,1.0258,1.1435,1.1963,1.2036,1.2623,1.336,1.4162,1.3249,1.5378,1.8753,0.9136,0.4314,0.2144,-0.6555,-1.5252,-2.2895,-2.2895,-2.5223,-2.8411,-2.8411,-2.7735,-2.6945,-2.6945,-2.7324,-2.7795,-2.7795,-2.7745,-2.7695,-2.7913,-2.867,-2.9467,-2.9892,-3.0435,-3.0958,-3.1151,-3.119,-3.119,-3.119,-3.119,-3.1308,-3.1637,-3.2144,-3.2716,-3.3304,-3.3393,-3.3382,-3.3292,-3.3322,-3.3255,-3.2933,-3.2868,-3.2697,-3.2292,-3.1352,-3.0595,-3.0204,-2.9572,-2.9134,-2.9067,-2.9152,-2.9152,-2.9062,-2.9071,-2.9075,-2.9075,-2.8984,-2.8989,-2.9148,-2.9148,-2.9212,-2.9318,-2.9476,-2.9644,1.9009,1.8765,1.8228,1.6758,1.6417,1.6017,1.4677,1.4138,1.3745,1.2928,0.0,0.0,1.1431,0.0,1.1073,1.2172,0.0,1.3473,1.443,1.4495,1.4367,1.4284,1.4338,1.4206,1.37,1.3795,1.3923,1.4043,1.2594,1.1574,1.1305,1.0635,1.0329,1.0448,0.9787,0.9654,1.0045,1.1016,1.1835,1.2432,1.3776,1.4462,1.4533,1.4998,1.5396,1.5811,1.6693,1.8034,1.9114,1.2248,0.9542,0.8917,0.1235,-0.6999,-1.458,-1.5445,-2.0457,-2.6931,-2.7929,-2.8273,-2.8288,-2.8381,-2.8411,-2.8411,-2.8411,-2.8411,-2.8493,-2.8951,-2.912,-2.9377,-3.0251,-3.0559,-3.0699,-3.1095,-3.119,-3.119,-3.119,-3.119,-3.1428,-3.2144,-3.2535,-3.2876,-3.3304,-3.3382,-3.3352,-3.3292,-3.3232,-3.2977,-3.2327,-3.2162,-3.2099,-3.1992,-3.0924,-3.0217,-3.0261,-2.9736,-2.9365,-2.9302,-2.9304,-2.9265,-2.9138,-2.923,-2.9209,-2.9007,-2.9082,-2.9082,-2.8962,-2.9169,-2.9316,-2.9336,-2.9697,-2.9855,1.904,1.8678,1.8358,1.8006,1.7934,1.7646,1.6375,1.5666,0.0,0.0,0.0,1.0923,1.093,1.1323,0.0,1.314,0.0,0.0,0.0,0.0,1.5261,0.0,0.0,0.0,0.0,0.0,0.0,0.0,1.4953,1.41,1.3186,1.2188,1.2012,1.2764,1.2196,1.2387,1.3528,1.3278,1.3235,1.3451,1.4369,1.4909,1.5096,1.6161,1.6655,1.677,1.734,1.8182,1.9146,1.8322,1.4204,0.8415,0.7596,0.1424,-0.7627,-1.3072,-1.6432,-1.92,-2.5426,-2.7565,-2.7657,-2.8227,-2.8411,-2.8411,-2.8411,-2.8411,-2.8493,-2.8951,-2.9393,-2.9793,-3.0351,-3.0797,-3.1095,-3.119,-3.119,-3.119,-3.119,-3.119,-3.1428,-3.2144,-3.2351,-3.2586,-3.3214,-3.334,-3.3292,-3.3165,-3.2625,-3.2139,-3.19,-3.2105,-3.19,-3.09,-3.0503,-3.0124,-2.9694,-2.9504,-2.9365,-2.9302,-2.9414,-2.9436,-2.9358,-2.9378,-2.9437,-2.957,-2.9418,-2.9495,-2.978,-2.978,-2.9864,-3.0041,-3.0109,-3.0094,1.9227,1.9062,1.8883,1.8313,1.82,1.7904,1.6537,0.0,0.0,0.0,0.0,1.232,1.232,1.2894,0.0,0.0,0.0,0.0,0.0,0.0,0.0,0.0,0.0,0.0,0.0,0.0,0.0,1.6946,1.6518,1.5881,1.5041,1.4368,1.4114,1.44,1.4114,1.4427,1.539,1.5168,1.5293,1.5793,1.5938,1.6187,1.6595,1.6888,1.7234,1.7667,1.8007,1.8677,1.9497,1.9883,1.7926,1.4718,1.5086,0.9779,0.1463,-0.156,-0.8235,-1.572,-1.5538,-1.8102,-2.0927,-1.7587,-2.1912,-2.8411,-2.8411,-2.8411,-2.8493,-2.8951,-2.9257,-2.9617,-3.0293,-3.0658,-3.0878,-3.1151,-3.119,-3.119,-3.119,-3.1329,-3.1562,-3.1932,-3.2299,-3.2651,-3.293,-3.2811,-3.2631,-3.2427,-3.184,-3.1222,-3.0818,-3.0903,-3.0808,-3.0328,-3.0013,-2.9734,-2.951,-2.945,-2.9409,-2.9453,-2.9434,-2.9494,-2.9607,-2.9607,-2.9643,-2.9696,-2.9713,-2.9765,-2.9848,-2.9912,-2.9973,-3.0037,-3.0147,-3.0166,1.9474,1.9408,1.9242,1.848,1.8255,1.7918,1.661,1.6146,0.0,0.0,0.0,1.3631,1.3692,0.0,0.0,0.0,0.0,0.0,0.0,0.0,0.0,0.0,0.0,0.0,0.0,0.0,0.0,1.8155,1.7841,1.7257,1.6343,1.6187,1.6032,1.5887,1.5716,1.6012,1.6768,1.6778,1.7069,1.771,1.7379,1.739,1.7722,1.7501,1.7667,1.8224,1.8614,1.9133,1.9708,1.9875,2.008,2.0409,2.0459,1.6446,1.0362,0.916,0.0681,-0.9707,-0.576,-0.8342,-1.2501,-0.7309,-1.4847,-2.5967,-2.5967,-2.5869,-2.6292,-2.8622,-2.7983,-2.7256,-2.9971,-3.0658,-3.074,-3.1112,-3.119,-3.119,-3.119,-3.1428,-3.162,-3.1694,-3.2091,-3.2435,-3.242,-3.2097,-3.1743,-3.1542,-3.0926,-3.034,-2.9845,-2.9671,-2.9671,-2.985,-2.9566,-2.9388,-2.9492,-2.945,-2.9431,-2.9551,-2.9512,-2.9608,-2.9801,-2.9851,-2.9832,-2.9799,-2.9927,-2.9943,-2.9799,-2.9958,-3.0037,-2.9988,-3.0128,-3.0161,1.9694,1.9214,1.8875,1.8893,1.8815,1.8525,1.7633,0.0,0.0,0.0,1.4181,1.3881,1.3752,0.0,0.0,0.0,0.0,0.0,0.0,0.0,0.0,0.0,0.0,0.0,0.0,0.0,1.8673,1.9202,1.9202,1.8352,1.64,1.6797,1.7234,1.7667,1.7101,1.7313,1.8298,1.7797,1.7633,1.7863,1.7863,1.7633,1.7313,1.8201,1.8375,1.8007,1.8934,1.9368,1.9473,1.9565,1.9668,1.9708,2.0067,1.9315,1.7288,1.1353,0.7775,0.4998,-0.1635,-0.4326,-0.4898,-0.5439,-1.1251,-1.8065,-1.8065,-1.7706,-1.9041,-2.7379,-2.4414,-2.0669,-2.9001,-3.1151,-3.1151,-3.119,-3.119,-3.119,-3.119,-3.123,-3.1329,-3.1657,-3.1446,-3.1313,-3.1494,-3.1201,-3.0848,-3.0648,-2.9993,-2.9589,-2.9674,-2.9232,-2.8973,-2.9177,-2.9144,-2.9222,-2.9472,-2.945,-2.9407,-2.9427,-2.9699,-2.9869,-2.9886,-3.0007,-3.0061,-3.0061,-3.0075,-3.0075,-3.0061,-3.019,-3.026,-3.026,-3.0215,-3.0207,1.9621,1.9621,1.9604,1.95,1.9695,1.9463,1.795,0.0,0.0,1.5391,1.501,1.502,1.4893,0.0,0.0,0.0,0.0,0.0,0.0,0.0,0.0,0.0,0.0,0.0,0.0,0.0,1.95,1.9643,1.9786,1.9399,1.8244,1.8309,1.8429,1.856,1.8398,1.8506,1.8934,1.875,1.8738,1.8898,1.8578,1.8673,1.9125,1.9178,1.9242,1.9307,1.9798,1.9823,1.9512,1.9656,1.9708,1.9759,1.9914,1.9811,1.93,1.685,1.29,0.8869,0.9693,0.7002,0.3034,0.2177,-0.3254,-1.0356,-1.4984,-1.6268,-1.7751,-2.5905,-2.6352,-2.5295,-2.9156,-3.0695,-3.119,-3.119,-3.0869,-3.0548,-3.0548,-3.0309,-3.0135,-3.0226,-3.0434,-3.0631,-3.0617,-3.0273,-2.9966,-2.9851,-2.9285,-2.8927,-2.9116,-2.904,-2.9067,-2.9262,-2.9283,-2.9349,-2.9551,-2.9532,-2.9608,-2.9801,-2.9869,-2.9981,-3.0188,-3.0142,-3.0169,-3.0286,-3.0286,-3.0286,-3.0286,-3.0336,-3.0336,-3.0304,-3.0279,-3.0241,1.9656,1.9862,2.0016,1.985,2.0055,1.9825,0.0,0.0,1.7379,1.5738,1.571,1.5951,1.5951,0.0,0.0,0.0,0.0,0.0,0.0,0.0,0.0,0.0,0.0,0.0,0.0,1.9875,2.0118,2.0055,2.0346,2.0333,1.9825,1.9734,1.9488,1.9133,1.921,1.9263,1.9328,1.942,1.9565,1.9772,1.9384,1.9579,2.0295,1.9965,2.0004,2.0307,2.0308,2.0169,1.9914,1.985,1.9811,1.9862,1.9862,1.9926,2.0093,2.0283,1.705,1.3214,1.7733,1.5791,1.0802,0.803,0.4872,0.0358,-0.9377,-1.2335,-1.444,-2.431,-2.7862,-2.8764,-2.9102,-2.9856,-3.0548,-3.0548,-3.0142,-2.977,-2.977,-2.9513,-2.9281,-2.9316,-2.9597,-2.9819,-2.9726,-2.9425,-2.9142,-2.9114,-2.8766,-2.8594,-2.8863,-2.9021,-2.9175,-2.9386,-2.9407,-2.9451,-2.9589,-2.9608,-2.9732,-3.0022,-2.9992,-3.0071,-3.0299,-3.0241,-3.0254,-3.0398,-3.0398,-3.0398,-3.0398,-3.0398,-3.0379,-3.0336,-3.0352,-3.0321,1.9759,1.9798,1.9798,1.9798,1.9708,1.9279,0.0,0.0,1.7045,1.569,1.5979,1.6492,1.6492,1.7257,1.7743,0.0,0.0,0.0,0.0,0.0,0.0,0.0,0.0,0.0,1.9368,2.0118,2.061,2.061,2.1068,2.1215,2.0795,2.0795,2.0346,1.9423,1.9423,1.9488,1.9604,1.9617,1.9811,2.0182,2.0182,2.0144,2.0092,2.0434,2.0584,2.0468,2.0295,2.0372,2.056,2.0003,1.9862,1.999,1.999,2.0093,2.0182,2.0182,2.0271,2.0308,1.9759,1.9631,1.8334,1.0289,1.2307,1.519,0.0747,-0.3774,-0.7189,-2.2731,-2.7713,-2.8434,-2.8417,-2.8716,-2.9045,-2.9045,-2.9045,-2.8991,-2.8991,-2.9028,-2.9066,-2.9281,-2.8968,-2.8767,-2.8903,-2.8578,-2.8353,-2.8484,-2.851,-2.8644,-2.9044,-2.9089,-2.9175,-2.9386,-2.9407,-2.9451,-2.9589,-2.9608,-2.9698,-2.9886,-3.0022,-3.0109,-3.0089,-3.0299,-3.0398,-3.0398,-3.0398,-3.0398,-3.0398,-3.0398,-3.0398,-3.041,-3.0479,-3.0501,1.8809,1.9254,1.9579,1.9747,1.9952,1.985,1.8608,0.0,1.8167,1.7124,1.7191,1.7479,1.7479,1.7545,1.7722,1.8038,0.0,0.0,0.0,0.0,0.0,0.0,0.0,0.0,0.0,0.0,2.061,2.061,2.1118,2.1313,2.1215,2.1215,2.0809,1.9965,2.0194,2.0207,1.9888,2.0308,2.0459,2.0182,2.0372,2.066,2.0993,2.1299,2.1396,2.1417,2.1527,2.1396,2.114,2.0646,2.051,2.051,2.0233,2.0246,2.041,2.041,2.0511,2.0549,1.9965,1.9759,1.8537,1.0839,0.6305,0.2157,-0.7222,-0.3723,0.0255,-1.5271,-2.3275,-2.7394,-2.8511,-2.8901,-2.9011,-2.9011,-2.8569,-2.8197,-2.8197,-2.7947,-2.7757,-2.774,-2.7966,-2.8141,-2.8082,-2.8167,-2.8237,-2.8291,-2.8518,-2.8767,-2.8887,-2.9134,-2.9326,-2.9386,-2.9491,-2.9608,-2.9786,-2.9803,-2.9934,-3.0234,-3.0286,-3.0311,-3.0311,-3.0367,-3.0398,-3.0398,-3.0398,-3.0398,-3.0398,-3.0449,-3.0482,-3.0535,-3.0554,-3.0582,0.0,1.8424,1.8967,1.9307,1.9695,0.0,0.0,0.0,0.0,1.7398,1.7716,1.8174,1.7989,1.8235,1.8536,1.8857,1.8417,0.0,0.0,0.0,0.0,0.0,0.0,0.0,0.0,2.0858,2.0921,2.0921,2.1215,2.1423,2.1423,2.152,2.1264,2.0673,2.0944,2.0894,2.0472,2.1028,2.1175,2.0822,2.0957,2.1215,2.1568,2.1616,2.1746,2.1949,2.1902,2.1793,0.0,2.0993,2.0845,2.0845,2.0485,2.0398,2.0562,2.0562,2.0612,2.0649,2.0283,2.0118,1.8843,1.1105,0.3329,-0.3832,-0.8144,-0.7424,-0.655,-1.3565,-2.0805,-2.6623,-2.7637,-2.8041,-2.8112,-2.8112,-2.7757,-2.7402,-2.7402,-2.7165,-2.6973,-2.7006,-2.7365,-2.7695,-2.7683,-2.7996,-2.8264,-2.8406,-2.8644,-2.8845,-2.9003,-2.9262,-2.9409,-2.9471,-2.9551,-2.9697,-2.9946,-2.9996,-3.0099,-3.0367,-3.0398,-3.0398,-3.0398,-3.0398,-3.0398,-3.0398,-3.0406,-3.0439,-3.0439,-3.051,-3.0564,-3.0633,-3.0646,-3.0659,0.0,0.0,0.0,0.0,0.0,0.0,0.0,0.0,0.0,0.0,0.0,1.8577,1.8253,1.9129,1.9888,1.9668,1.9617,0.0,0.0,0.0,0.0,0.0,0.0,0.0,2.1272,2.1396,2.1458,2.1423,2.1471,2.1471,2.1423,2.1664,2.1712,2.1423,2.1623,2.1561,2.1237,2.1771,2.1974,2.1841,2.1888,2.1888,2.1841,2.1602,2.1746,2.2184,2.1746,2.1664,2.1841,2.1188,2.0993,2.1042,2.0699,2.0612,2.0699,2.0699,2.0699,2.0699,2.0699,2.033,1.8548,1.0417,0.235,-0.4204,-0.4211,-1.3541,-2.2798,-1.6333,-2.0103,-2.6052,-2.6139,-2.6436,-2.6691,-2.6691,-2.6691,-2.6691,-2.6691,-2.6691,-2.6691,-2.694,-2.7195,-2.7426,-2.7654,-2.7979,-2.8353,-2.8718,-2.8797,-2.8957,-2.9347,-2.9407,-2.9471,-2.9608,-2.9644,-2.9748,-3.0061,-3.0109,-3.0182,-3.0398,-3.0398,-3.0398,-3.0398,-3.039,-3.0421,-3.0421,-3.0472,-3.051,-3.05,-3.0583,-3.0639,-3.0715,-3.0715,-3.0743,0.0,0.0,0.0,0.0,0.0,0.0,0.0,0.0,0.0,0.0,0.0,1.8643,1.8747,1.9129,1.9617,2.0195,1.9617,1.95,0.0,0.0,0.0,0.0,2.2123,2.2016,2.2189,2.2049,2.186,2.1698,2.2249,2.2203,2.1423,2.1841,2.1996,2.1712,2.2282,2.2282,2.165,2.2512,2.2754,2.2342,2.2526,2.2526,2.2328,2.2466,2.254,2.2509,2.2661,2.2752,2.2752,2.2374,2.2049,2.1746,2.1313,2.0997,2.0699,2.0699,2.0699,2.0699,2.0699,1.6886,1.07,0.2594,-0.4954,-1.0903,-1.1324,-1.3815,-1.6262,-1.5265,-2.0103,-2.5799,-2.6401,-2.6624,-2.6691,-2.6691,-2.6691,-2.6691,-2.6691,-2.6891,-2.7038,-2.7006,-2.7396,-2.7754,-2.7713,-2.8101,-2.844,-2.8543,-2.8815,-2.9097,-2.9297,-2.9474,-2.9608,-2.982,-2.9931,-3.0003,-3.0089,-3.0109,-3.0182,-3.0398,-3.0398,-3.0398,-3.0398,-3.0449,-3.0482,-3.0482,-3.0543,-3.06,-3.065,-3.0667,-3.0715,-3.0771,-3.0771,-3.0771,0.0,0.0,0.0,0.0,0.0,0.0,0.0,0.0,0.0,0.0,0.0,0.0,1.8667,0.0,0.0,0.0,2.0746,0.0,0.0,0.0,0.0,0.0,2.2859,2.2768,0.0,2.2634,2.242,2.2296,2.2663,2.2663,2.2109,2.2495,2.2663,2.256,2.3143,2.3127,2.2495,2.3334,2.3523,2.3009,2.3143,2.2934,2.2388,2.2618,2.2526,2.2278,2.2737,2.2918,2.2918,2.2754,2.2434,2.1996,2.1779,2.1458,2.1033,2.1251,2.1215,2.1033,2.1033,1.5777,0.7188,-0.3876,-1.0212,-1.4105,-1.7609,-1.8695,-1.8857,-1.9632,-2.2709,-2.5908,-2.6539,-2.6691,-2.6691,-2.6691,-2.6691,-2.6691,-2.6691,-2.6923,-2.7103,-2.7006,-2.7444,-2.78,-2.7713,-2.8156,-2.8518,-2.8619,-2.8887,-2.9178,-2.9314,-2.9434,-2.9608,-2.9869,-2.9962,-3.0066,-3.0209,-3.0241,-3.0267,-3.0398,-3.0436,-3.0449,-3.0449,-3.051,-3.0568,-3.0586,-3.0626,-3.0672,-3.0758,-3.0758,-3.0765,-3.0801,-3.0801,-3.0804,0.0,0.0,0.0,0.0,0.0,0.0,0.0,0.0,0.0,0.0,0.0,0.0,0.0,0.0,0.0,0.0,0.0,0.0,0.0,0.0,0.0,0.0,2.3392,0.0,2.3359,2.3054,2.279,2.2702,2.2776,2.2732,2.2599,2.2878,2.3111,2.3313,2.3616,2.3649,2.3436,2.4009,2.4094,2.3696,2.3696,2.329,2.2526,2.2649,2.2466,2.2156,2.2618,2.2844,2.2844,2.283,2.2572,2.2123,2.2189,2.1908,2.1554,2.1955,2.1813,2.1232,1.9982,1.4049,0.4956,-0.7483,-1.3311,-1.6384,-2.1254,-2.3443,-2.4451,-2.5198,-2.5652,-2.6016,-2.6505,-2.6624,-2.6607,-2.6691,-2.6691,-2.6691,-2.6708,-2.6891,-2.7085,-2.7053,-2.7444,-2.7789,-2.7789,-2.8183,-2.8569,-2.8749,-2.8957,-2.9233,-2.9576,-2.9615,-2.9794,-3.0262,-3.0314,-3.0437,-3.0751,-3.0671,-3.0606,-3.0606,-3.0549,-3.051,-3.0527,-3.0598,-3.0645,-3.072,-3.072,-3.0735,-3.0801,-3.0804,-3.0806,-3.0806,-3.081,-3.0796,0.0,0.0,0.0,0.0,0.0,0.0,0.0,0.0,0.0,0.0,0.0,0.0,0.0,0.0,0.0,0.0,0.0,0.0,0.0,0.0,2.3653,2.3882,0.0,2.3327,2.3147,2.284,2.2408,2.1858,2.2188,2.2069,2.1236,2.1609,2.2066,2.2545,2.2715,2.3167,2.3979,2.4177,2.4261,2.4177,2.4177,2.4162,2.4048,2.3724,2.3595,2.3565,2.3436,2.3363,2.3363,2.3436,2.3201,2.2754,2.2754,2.2466,2.1988,2.2081,2.1813,2.0422,1.359,0.6218,-0.065,-0.3426,-1.2631,-2.1812,-1.6948,-1.9608,-2.4385,-2.4863,-2.5059,-2.5237,-2.598,-2.621,-2.628,-2.6624,-2.6691,-2.6674,-2.664,-2.7103,-2.7444,-2.7272,-2.7771,-2.8191,-2.8109,-2.8327,-2.8569,-2.8749,-2.8957,-2.9462,-3.0468,-3.0582,-3.0998,-3.2076,-3.2184,-3.2278,-3.2494,-3.1945,-3.1593,-3.1593,-3.0898,-3.0552,-3.0661,-3.0672,-3.072,-3.0774,-3.0774,-3.0796,-3.0801,-3.0797,-3.08,-3.08,-3.0797,-3.0795,0.0,0.0,0.0,0.0,0.0,0.0,0.0,0.0,0.0,0.0,0.0,0.0,0.0,0.0,0.0,0.0,0.0,0.0,2.3867,2.4009,2.4039,0.0,0.0,2.3132,2.2661,2.2458,2.2194,2.1838,2.2133,2.2133,2.1674,2.1886,2.247,2.3491,2.3382,2.3802,2.4847,2.4704,2.4533,2.4302,2.4359,2.4302,2.4078,2.3967,2.3909,2.3906,2.361,2.3625,2.3824,2.3653,2.3334,2.2934,2.3201,2.2965,2.2512,2.2512,2.2189,2.0637,1.2604,0.7204,0.2476,-0.5672,-1.3015,-1.8765,-1.9355,-2.1755,-2.4343,-2.4533,-2.4719,-2.5098,-2.5908,-2.6104,-2.621,-2.6607,-2.6691,-2.6674,-2.6606,-2.7103,-2.7491,-2.7334,-2.78,-2.8237,-2.8209,-2.8353,-2.8518,-2.8619,-2.9253,-2.998,-3.0613,-3.1164,-3.1807,-3.2581,-3.2649,-3.2752,-3.2987,-3.2694,-3.2134,-3.1254,-3.0833,-3.065,-3.0758,-3.0742,-3.0768,-3.0801,-3.0801,-3.0808,-3.0796,-3.08,-3.08,-3.0795,-3.0806,-3.0777,1.5565,0.0,0.0,0.0,0.0,0.0,0.0,0.0,0.0,0.0,0.0,0.0,0.0,0.0,0.0,0.0,0.0,2.3856,2.4017,2.4098,2.3975,2.3651,2.3328,2.2917,2.2257,2.2099,2.2,2.1846,2.1978,2.2051,2.1993,2.1978,2.2645,2.4139,2.3882,2.4297,2.554,2.5137,2.4719,2.4359,2.44,2.4317,2.412,2.4135,2.4147,2.4168,2.3937,2.3979,2.4271,2.3894,2.3551,2.3246,2.3508,2.3377,2.3068,2.2934,2.2558,2.1217,1.5,1.0946,0.6509,-0.6293,-1.2014,-1.5227,-2.2214,-2.4302,-2.4302,-2.4302,-2.4533,-2.4902,-2.5652,-2.5835,-2.5944,-2.6436,-2.6556,-2.6538,-2.6572,-2.699,-2.7307,-2.7272,-2.7701,-2.8126,-2.8182,-2.8327,-2.8513,-2.8763,-2.9649,-3.0516,-3.1089,-3.1916,-3.2675,-3.3245,-3.328,-3.3311,-3.3403,-3.3403,-3.2798,-3.1421,-3.1133,-3.0954,-3.0819,-3.0801,-3.0801,-3.0801,-3.0806,-3.0796,-3.0801,-3.0779,-3.0771,-3.0771,-3.0781,-3.0743,1.569,1.7246,0.0,0.0,0.0,0.0,0.0,0.0,0.0,0.0,0.0,0.0,0.0,0.0,0.0,0.0,0.0,2.2561,2.2727,0.0,2.3006,2.2959,2.2839,2.2591,2.2136,2.2007,2.1738,2.1375,2.1359,2.1263,2.102,2.102,2.1706,2.3237,2.3147,2.3911,2.5684,2.5176,2.4775,2.4498,2.4359,2.4549,2.4974,2.4695,2.4775,2.5098,2.4902,2.4823,2.4823,2.441,2.4219,2.4177,2.3782,2.3595,2.3508,2.3068,2.2558,2.1946,2.0941,1.5344,0.734,-0.0186,-0.7718,-1.5227,-2.2214,-2.4302,-2.4302,-2.4302,-2.4302,-2.4451,-2.4863,-2.4981,-2.516,-2.5944,-2.6101,-2.6134,-2.645,-2.6691,-2.6923,-2.7149,-2.7474,-2.7818,-2.8154,-2.8209,-2.8541,-2.9476,-2.999,-3.0898,-3.2594,-3.3219,-3.3881,-3.4907,-3.5018,-3.4836,-3.4339,-3.4255,-3.3932,-3.3249,-3.2458,-3.1638,-3.0841,-3.0801,-3.0801,-3.0801,-3.0798,-3.0801,-3.0801,-3.0732,-3.0711,-3.0706,-3.0716,-3.0704,1.6312,1.7907,0.0,0.0,0.0,0.0,0.0,0.0,0.0,0.0,0.0,0.0,0.0,0.0,0.0,0.0,2.2286,2.2443,2.2586,2.2682,2.2634,2.2311,2.2302,2.2104,2.1487,2.1488,2.1472,2.1324,2.1119,2.0974,2.0893,2.0877,2.1646,2.34,2.3568,2.4357,2.5908,2.5503,2.5176,2.4934,2.463,2.4695,2.5091,2.4879,2.5091,2.5605,2.5098,2.5059,2.5237,2.4823,2.4533,2.4261,2.3767,2.3595,2.3595,2.3377,2.2815,2.2081,2.1908,1.9139,1.4487,0.7067,-0.0518,-0.8208,-1.5608,-2.087,-2.4343,-2.4599,-2.4679,-2.4759,-2.516,-2.5275,-2.5481,-2.6243,-2.6382,-2.6417,-2.664,-2.6906,-2.7178,-2.7444,-2.776,-2.8025,-2.8071,-2.8246,-2.8676,-2.9467,-3.041,-3.1547,-3.3002,-3.3903,-3.4656,-3.5315,-3.543,-3.5372,-3.5146,-3.5238,-3.4964,-3.4194,-3.3321,-3.2479,-3.1641,-3.1602,-3.1355,-3.0818,-3.08,-3.0778,-3.0732,-3.07,-3.0706,-3.071,-3.0668,-3.0645,1.7291,1.8797,0.0,0.0,0.0,0.0,0.0,0.0,0.0,0.0,0.0,0.0,0.0,0.0,0.0,0.0,2.1771,2.1936,2.1931,2.2165,2.2166,2.1702,2.1824,2.1763,2.1309,2.1448,2.1587,2.1645,2.1432,2.1261,2.1166,2.115,2.194,2.362,2.3885,2.4713,2.6087,2.5888,2.5556,2.5192,2.4958,2.4974,2.5146,2.5091,2.5362,2.5897,2.5476,2.546,2.5684,2.5253,2.4799,2.4261,2.3767,2.3595,2.3595,2.3595,2.3054,2.2314,2.2221,2.1293,1.8634,0.8609,0.1807,-0.4322,-1.4216,-2.0514,-2.4343,-2.4639,-2.4799,-2.4981,-2.5389,-2.5503,-2.5652,-2.6279,-2.6417,-2.6452,-2.6791,-2.7004,-2.7241,-2.7624,-2.7893,-2.8053,-2.8136,-2.8577,-2.9124,-2.9936,-3.1144,-3.2377,-3.3454,-3.4415,-3.5124,-3.546,-3.5528,-3.5604,-3.563,-3.5732,-3.558,-3.5071,-3.4452,-3.3648,-3.2558,-3.2253,-3.1813,-3.1211,-3.0914,-3.0757,-3.0701,-3.0675,-3.0672,-3.0661,-3.0576,-3.0549,0.0,0.0,0.0,0.0,0.0,0.0,0.0,0.0,0.0,0.0,0.0,0.0,0.0,0.0,0.0,2.0135,2.0614,2.0878,2.0561,2.1087,2.1401,2.1119,2.1481,2.1724,2.1781,2.2036,2.2254,2.2377,2.2405,2.2209,2.1708,2.1899,2.2565,2.3753,2.4,2.478,2.6087,2.6243,2.5941,2.523,2.5329,2.5362,2.5294,2.5355,2.5567,2.5897,2.6096,2.622,2.6168,2.5684,2.5005,2.4261,2.3767,2.3595,2.3595,2.3595,2.329,2.2844,2.2466,2.1629,1.8363,0.3358,-0.1937,-0.5213,-1.9767,-2.4245,-2.4302,-2.4302,-2.4614,-2.502,-2.5389,-2.5503,-2.5615,-2.6016,-2.5994,-2.6099,-2.6842,-2.6842,-2.6906,-2.7565,-2.7683,-2.7858,-2.8414,-2.9168,-3.0043,-3.1063,-3.2231,-3.3291,-3.4106,-3.4794,-3.5273,-3.5479,-3.5507,-3.5553,-3.5696,-3.5631,-3.5724,-3.5985,-3.5938,-3.5154,-3.3473,-3.2575,-3.2129,-3.2109,-3.1198,-3.0701,-3.0701,-3.063,-3.0595,-3.0595,-3.0462,-3.0402,1.9061,0.0,0.0,0.0,0.0,0.0,0.0,0.0,0.0,0.0,0.0,0.0,0.0,0.0,0.0,2.0514,2.0991,2.1308,2.115,2.1339,2.1432,2.1246,2.1481,2.1664,2.1797,2.1974,2.2147,2.2377,2.2192,2.1945,2.1724,2.2338,2.3052,2.3769,2.4679,2.5596,2.6488,2.6297,2.612,2.6049,2.5779,2.5551,2.5294,2.547,2.5696,2.5897,2.6096,2.622,2.6132,2.5384,2.4942,2.4639,2.3879,2.3595,2.3595,2.3595,2.3377,2.2979,2.2466,2.2002,1.9882,0.9192,0.2347,-0.3614,-1.3895,-2.0415,-2.4343,-2.4639,-2.502,-2.5427,-2.5835,-2.6123,-2.6367,-2.6435,-2.6399,-2.6486,-2.71,-2.7132,-2.7244,-2.7922,-2.8053,-2.8081,-2.8136,-2.9142,-3.0181,-3.0929,-3.2284,-3.3631,-3.4756,-3.5155,-3.5383,-3.5493,-3.5496,-3.5531,-3.5618,-3.5752,-3.5814,-3.5855,-3.5927,-3.5474,-3.4354,-3.4079,-3.3359,-3.2121,-3.1789,-3.1309,-3.0704,-3.0626,-3.0595,-3.0595,-3.04,-3.0333,0.0,0.0,0.0,0.0,0.0,0.0,0.0,0.0,0.0,0.0,0.0,0.0,0.0,0.0,0.0,2.1007,2.1415,2.1688,2.1538,2.1764,2.1882,2.1675,2.1797,2.1932,2.2061,2.2118,2.2203,2.246,2.2287,2.2044,2.1768,2.2688,2.341,2.3769,2.4962,2.5881,2.647,2.6436,2.6332,2.6156,2.5977,2.5684,2.5416,2.5663,2.5828,2.5897,2.6096,2.622,2.6132,2.5269,2.4902,2.4823,2.3921,2.3595,2.3595,2.3595,2.3465,2.3201,2.2603,2.2282,2.0778,1.2111,0.4443,-0.2937,-1.1018,-1.8548,-2.4343,-2.4599,-2.5059,-2.554,-2.5799,-2.628,-2.6691,-2.6657,-2.6572,-2.664,-2.7068,-2.7085,-2.7213,-2.7864,-2.7996,-2.8142,-2.8602,-2.9691,-3.0757,-3.1561,-3.2897,-3.4147,-3.5083,-3.5273,-3.5383,-3.5522,-3.5546,-3.5577,-3.5679,-3.5799,-3.5864,-3.588,-3.5955,-3.5759,-3.524,-3.4863,-3.417,-3.311,-3.2377,-3.1728,-3.1177,-3.0741,-3.0501,-3.0491,-3.0328,-3.026,0.0,0.0,0.0,0.0,0.0,0.0,0.0,0.0,0.0,0.0,0.0,0.0,0.0,2.1308,2.1721,2.1509,2.1866,2.2068,2.1849,2.2254,2.2508,2.2265,2.2271,2.236,2.2487,2.2394,2.2377,2.2579,2.2605,2.2405,2.1969,2.3054,2.3786,2.3934,2.5095,2.5849,2.6158,2.6657,2.6589,2.5905,2.5994,2.5885,2.5577,2.5872,2.5977,2.5897,2.6096,2.622,2.6132,2.5269,2.4902,2.4823,2.3921,2.3595,2.3595,2.3595,2.3595,2.3508,2.2785,2.2512,2.1167,1.2729,0.53,-0.1934,-1.0346,-1.7758,-2.3425,-2.4112,-2.4863,-2.5465,-2.5465,-2.6052,-2.6657,-2.6657,-2.6555,-2.6589,-2.694,-2.6825,-2.6906,-2.7565,-2.7701,-2.8123,-2.9476,-3.0529,-3.1609,-3.2736,-3.39,-3.4791,-3.5193,-3.5226,-3.53,-3.5565,-3.5601,-3.5649,-3.576,-3.5807,-3.5864,-3.5974,-3.6001,-3.5994,-3.5992,-3.5172,-3.4674,-3.4589,-3.3038,-3.2147,-3.2009,-3.0993,-3.0483,-3.0419,-3.0278,-3.0204,0.0,0.0,0.0,0.0,0.0,0.0,0.0,0.0,0.0,0.0,0.0,0.0,0.0,2.1521,2.1911,2.1994,2.2337,2.2561,2.249,2.2588,2.2605,2.2453,2.236,2.236,2.2487,2.2394,2.2377,2.2579,2.2605,2.2737,2.3059,2.4057,2.4764,2.5046,2.6066,2.6589,2.6573,2.6792,2.6842,2.6759,2.6572,2.6314,2.5944,2.5626,2.5621,2.5897,2.6096,2.622,2.6132,2.5269,2.4902,2.4823,2.3921,2.3595,2.3595,2.3595,2.3739,2.3797,2.283,2.2649,2.1408,1.2765,0.8889,0.5006,-0.8738,-1.4064,-1.6612,-2.2599,-2.4639,-2.502,-2.502,-2.5615,-2.6245,-2.6245,-2.6365,-2.6589,-2.694,-2.6825,-2.6906,-2.7565,-2.7701,-2.8123,-2.9467,-3.0511,-3.1931,-3.4101,-3.4794,-3.5157,-3.5403,-3.5383,-3.5379,-3.5435,-3.5581,-3.5669,-3.565,-3.5833,-3.5953,-3.5919,-3.5968,-3.5989,-3.5918,-3.5732,-3.5302,-3.462,-3.4136,-3.3548,-3.2842,-3.1835,-3.1335,-3.129,-3.0546,-3.0204,0.0,0.0,0.0,0.0,0.0,0.0,0.0,0.0,0.0,0.0,0.0,0.0,2.1582,2.1924,2.2271,2.2436,2.2615,2.2764,2.2842,2.2825,2.285,2.2893,2.2773,2.2721,2.279,2.2659,2.2605,2.2632,2.2959,2.3237,2.3384,2.4697,2.5439,2.5412,2.6386,2.6842,2.6691,2.6842,2.6926,2.7007,2.6725,2.6367,2.5961,2.5605,2.5659,2.6059,2.6132,2.622,2.6132,2.5269,2.4902,2.4823,2.3921,2.3595,2.3595,2.3595,2.3696,2.3696,2.3024,2.2754,2.1914,1.7269,1.3144,0.7835,-0.3876,-0.997,-1.4502,-2.2138,-2.4614,-2.4902,-2.4902,-2.5503,-2.6104,-2.6049,-2.6277,-2.6554,-2.6725,-2.6589,-2.6674,-2.7338,-2.7844,-2.8635,-3.0025,-3.15,-3.3056,-3.466,-3.5001,-3.5157,-3.5446,-3.546,-3.5455,-3.5489,-3.555,-3.562,-3.5697,-3.5814,-3.5909,-3.5951,-3.5982,-3.5976,-3.5891,-3.5893,-3.5669,-3.5139,-3.465,-3.4137,-3.3585,-3.2628,-3.1955,-3.155,-3.1054,-3.0605,0.0,0.0,0.0,0.0,0.0,0.0,0.0,0.0,0.0,0.0,0.0,2.2265,2.2073,2.2371,2.2632,2.2738,2.2816,2.2919,2.3028,2.307,2.3144,2.3313,2.3217,2.3126,2.3168,2.302,2.292,2.2954,2.347,2.3824,2.3879,2.524,2.5914,2.568,2.6487,2.6842,2.6691,2.6842,2.6926,2.6992,2.6657,2.6227,2.5795,2.5663,2.5807,2.6132,2.6168,2.622,2.6132,2.5346,2.4942,2.4823,2.4006,2.3681,2.3595,2.3638,2.3638,2.361,2.326,2.2889,2.2466,2.2123,1.7466,1.028,0.1318,-0.5864,-1.2796,-2.1779,-2.4533,-2.4799,-2.4799,-2.5389,-2.5997,-2.5921,-2.6222,-2.652,-2.6537,-2.6415,-2.6486,-2.7195,-2.832,-2.9614,-3.0993,-3.2771,-3.4227,-3.4812,-3.4945,-3.5089,-3.5446,-3.5493,-3.5515,-3.5565,-3.5534,-3.5566,-3.5724,-3.5767,-3.5844,-3.5958,-3.5986,-3.5976,-3.5899,-3.59,-3.5819,-3.5688,-3.4952,-3.4496,-3.4318,-3.3445,-3.2642,-3.1923,-3.1637,-3.1107,0.0,0.0,0.0,0.0,0.0,0.0,0.0,0.0,0.0,0.0,2.3595,2.2515,2.2579,2.2659,2.2738,2.2944,2.3052,2.3168,2.3241,2.336,2.343,2.3471,2.336,2.3336,2.3435,2.3126,2.3206,2.3929,2.3873,2.4373,2.567,2.5958,2.6296,2.6771,2.6923,2.6892,2.6691,2.6842,2.6893,2.6926,2.6347,2.5994,2.5795,2.5663,2.5717,2.597,2.6132,2.622,2.6168,2.5647,2.5198,2.4863,2.441,2.3952,2.3595,2.3739,2.3782,2.3739,2.3407,2.3038,2.2603,2.217,2.1057,1.7207,0.2938,-0.2115,-0.5914,-2.0246,-2.4343,-2.4385,-2.4385,-2.4981,-2.554,-2.5497,-2.601,-2.6554,-2.6742,-2.6691,-2.6873,-2.7725,-2.9638,-3.1414,-3.2316,-3.3608,-3.4604,-3.4851,-3.5054,-3.5242,-3.5479,-3.5446,-3.5412,-3.5441,-3.5476,-3.5509,-3.5546,-3.565,-3.5741,-3.5819,-3.5935,-3.5972,-3.5908,-3.5903,-3.5807,-3.5629,-3.5427,-3.5303,-3.522,-3.4293,-3.3773,-3.3624,-3.2172,-3.1333,0.0,0.0,0.0,0.0,0.0,0.0,0.0,0.0,0.0,0.0,2.5191,2.4094,2.3127,2.306,2.3146,2.3223,2.3394,2.3513,2.3468,2.3553,2.3616,2.3611,2.3567,2.3705,2.4175,2.4094,2.4318,2.5047,2.5269,2.5645,2.6324,2.6615,2.6919,2.7279,2.7105,2.699,2.6989,2.6942,2.6942,2.7023,2.659,2.6418,2.6453,2.6173,2.6082,2.6134,2.6168,2.6274,2.638,2.5758,2.5275,2.4863,2.4451,2.4177,2.3994,2.3839,2.3952,2.4078,2.3797,2.326,2.2663,2.248,2.1921,1.9342,0.8329,0.2007,-0.3698,-1.481,-2.0995,-2.4302,-2.4302,-2.4902,-2.5465,-2.5329,-2.6049,-2.6808,-2.6989,-2.6858,-2.7211,-2.9001,-3.0776,-3.2294,-3.3213,-3.3931,-3.4498,-3.4851,-3.4982,-3.516,-3.5446,-3.5446,-3.5412,-3.5412,-3.5379,-3.543,-3.5543,-3.5602,-3.5694,-3.5851,-3.5952,-3.5972,-3.5896,-3.5825,-3.5717,-3.5544,-3.5516,-3.5438,-3.5289,-3.4878,-3.4358,-3.3762,-3.302,-3.2064,0.0,0.0,0.0,0.0,0.0,0.0,0.0,0.0,0.0,0.0,2.6691,2.5913,2.423,2.3879,2.3773,2.3526,2.3689,2.3816,2.3735,2.3916,2.4082,2.4118,2.4256,2.4572,2.5144,2.5175,2.547,2.6136,2.6499,2.6743,2.6869,2.7213,2.7421,2.7404,2.7152,2.7087,2.7227,2.7055,2.699,2.707,2.6758,2.6742,2.6892,2.659,2.6436,2.6436,2.6312,2.6364,2.6537,2.5905,2.5443,2.502,2.4719,2.4574,2.4451,2.412,2.4188,2.4395,2.4135,2.348,2.2694,2.2694,2.2109,1.9978,1.2318,0.4663,-0.3015,-1.0724,-1.8405,-2.4302,-2.4302,-2.4823,-2.5313,-2.5253,-2.6087,-2.7007,-2.7518,-2.7552,-2.8157,-3.044,-3.1755,-3.28,-3.3799,-3.4148,-3.4454,-3.4831,-3.4926,-3.5107,-3.5446,-3.5446,-3.5412,-3.5412,-3.5339,-3.5374,-3.5546,-3.5592,-3.5679,-3.586,-3.5955,-3.5971,-3.5898,-3.5798,-3.5688,-3.5523,-3.5521,-3.5432,-3.5209,-3.5209,-3.48,-3.3995,-3.3732,-3.2827,0.0,0.0,0.0,0.0,0.0,0.0,0.0,0.0,0.0,2.7464,2.7593,2.7475,2.6407,2.5403,2.4532,2.388,2.3896,2.3978,2.3981,2.4634,2.5166,2.5307,2.5758,2.6141,2.6308,2.6108,2.6309,2.7162,2.7064,2.7174,2.7625,2.7683,2.7522,2.7117,2.7103,2.7181,2.7303,2.7227,2.7103,2.7007,2.6607,2.6521,2.6725,2.6556,2.664,2.6839,2.6539,2.6469,2.6589,2.6274,2.5901,2.5465,2.5465,2.5237,2.4926,2.4655,2.4558,2.4542,2.4276,2.3538,2.2694,2.2694,2.2109,1.9978,1.2318,0.4663,-0.3015,-1.0724,-1.8405,-2.4302,-2.4302,-2.4599,-2.502,-2.5329,-2.598,-2.6961,-2.8477,-2.9194,-3.008,-3.1938,-3.2525,-3.3006,-3.4,-3.4386,-3.4647,-3.487,-3.5072,-3.5258,-3.546,-3.5446,-3.5412,-3.5412,-3.533,-3.536,-3.5496,-3.5546,-3.5659,-3.5807,-3.5929,-3.5977,-3.5898,-3.5898,-3.5809,-3.5601,-3.5582,-3.5461,-3.5209,-3.5209,-3.5155,-3.5098,-3.407,-3.345,0.0,0.0,0.0,0.0,0.0,0.0,0.0,0.0,2.8103,2.8214,2.8466,2.843,2.7645,2.6733,2.5986,2.5711,2.5853,2.5968,2.5875,2.6152,2.6336,2.6296,2.6517,2.6847,2.7374,2.7291,2.7555,2.8388,2.816,2.796,2.7964,2.78,2.7612,2.7417,2.723,2.707,2.7038,2.7023,2.7007,2.7007,2.6859,2.6892,2.7072,2.6956,2.7021,2.7198,2.6758,2.6691,2.6825,2.6364,2.5901,2.5503,2.5503,2.5465,2.5406,2.5114,2.5036,2.5059,2.4759,2.4048,2.3231,2.2934,2.2388,2.1342,1.8257,0.855,-0.1981,-0.475,-1.4568,-2.4302,-2.4302,-2.4599,-2.5256,-2.6709,-2.7231,-2.8013,-3.0243,-3.085,-3.1177,-3.1822,-3.2664,-3.3396,-3.3752,-3.4245,-3.4668,-3.487,-3.5072,-3.5273,-3.546,-3.5446,-3.5412,-3.5412,-3.533,-3.5383,-3.5596,-3.562,-3.5687,-3.585,-3.5909,-3.5927,-3.5893,-3.5859,-3.5757,-3.5604,-3.5524,-3.538,-3.5209,-3.5209,-3.5124,-3.4982,-3.4452,-3.3794,0.0,0.0,0.0,0.0,0.0,0.0,0.0,0.0,2.8065,2.8551,2.8821,2.8864,2.8524,2.8027,2.7489,2.6932,2.6972,2.7083,2.699,2.7214,2.7363,2.7305,2.7548,2.792,2.8433,2.8456,2.8619,2.9101,2.8915,2.8633,2.8281,2.7982,2.7713,2.7448,2.7324,2.7198,2.7055,2.7152,2.7184,2.7103,2.7169,2.7201,2.7233,2.7215,2.7264,2.7376,2.7006,2.6891,2.6891,2.6399,2.6043,2.5721,2.5742,2.5832,2.5937,2.5589,2.5443,2.5368,2.502,2.4338,2.3508,2.3068,2.2572,2.2091,2.1568,1.2518,0.1914,-0.0676,-1.0609,-2.1066,-2.3629,-2.4981,-2.601,-2.7394,-2.8441,-2.9501,-3.0991,-3.1529,-3.1809,-3.2151,-3.2907,-3.3559,-3.377,-3.4232,-3.4672,-3.4945,-3.5157,-3.5354,-3.5493,-3.546,-3.5412,-3.5412,-3.5402,-3.547,-3.5669,-3.5669,-3.5745,-3.5909,-3.5938,-3.5923,-3.5923,-3.5859,-3.5734,-3.5606,-3.5456,-3.5335,-3.5209,-3.5209,-3.5124,-3.4982,-3.4674,-3.39,0.0,0.0,0.0,0.0,0.0,0.0,0.0,0.0,2.7754,2.843,2.8621,2.879,2.9115,2.9289,2.8891,2.74,2.7176,2.7175,2.7173,2.7737,2.8201,2.8334,2.8928,2.9334,2.9412,2.9456,2.9418,2.9209,2.9251,2.9101,2.8626,2.8281,2.7794,2.7117,2.7417,2.7491,2.7303,2.7624,2.7624,2.7303,2.743,2.7355,2.7103,2.7296,2.7376,2.7376,2.723,2.7053,2.6758,2.6364,2.622,2.6203,2.6277,2.6382,2.645,2.6134,2.5795,2.5465,2.5044,2.4338,2.3551,2.3068,2.2572,2.2137,2.1568,1.5913,0.8115,0.068,-0.7159,-1.4967,-2.2441,-2.575,-2.7205,-2.7203,-2.935,-3.124,-3.0647,-3.1155,-3.2,-3.3015,-3.319,-3.3419,-3.4056,-3.4345,-3.4659,-3.5105,-3.5354,-3.5493,-3.5493,-3.5493,-3.5493,-3.5412,-3.5514,-3.5629,-3.5708,-3.576,-3.5869,-3.5981,-3.5994,-3.6001,-3.6001,-3.5879,-3.5747,-3.5613,-3.5476,-3.5335,-3.5209,-3.5209,-3.5209,-3.5193,-3.4715,-3.3832,2.1197,0.0,0.0,0.0,0.0,0.0,0.0,0.0,2.7089,2.7377,2.7958,2.8478,2.867,2.8906,2.8997,2.8598,2.8762,2.8933,2.897,2.9139,2.927,2.9308,2.955,2.9699,2.9608,2.9626,2.9514,2.923,2.9163,2.898,2.8543,2.8083,2.7595,2.7135,2.7198,2.7276,2.7303,2.7396,2.7396,2.7303,2.7307,2.7198,2.704,2.7072,2.7137,2.7184,2.7087,2.6842,2.6521,2.6503,2.638,2.6203,2.6277,2.6382,2.6485,2.6434,2.603,2.5503,2.5389,2.4784,2.3952,2.3157,2.2799,2.2526,2.165,1.2195,0.1185,-0.1429,-1.1717,-2.2454,-2.5057,-2.6193,-2.6862,-2.7764,-2.8625,-2.9588,-3.0999,-3.1479,-3.1898,-3.2813,-3.3099,-3.3262,-3.3429,-3.4067,-3.4538,-3.4679,-3.5152,-3.5493,-3.5493,-3.5493,-3.5515,-3.5538,-3.5585,-3.5679,-3.584,-3.582,-3.585,-3.5994,-3.5997,-3.6001,-3.6001,-3.5916,-3.5827,-3.5758,-3.5607,-3.5473,-3.5335,-3.5258,-3.5209,-3.5193,-3.4715,-3.4149,0.0,0.0,0.0,0.0,0.0,0.0,2.4918,2.5733,2.6455,2.6899,2.7442,2.7966,2.8332,2.8628,2.8795,2.8883,2.9126,2.9373,2.9626,2.955,2.955,2.9683,2.9825,2.9857,2.9756,2.9735,2.9607,2.9312,2.9203,2.8915,2.8352,2.8037,2.7624,2.7087,2.7152,2.723,2.7303,2.7487,2.7487,2.7382,2.7321,2.7181,2.7007,2.6892,2.6957,2.7103,2.7137,2.7029,2.6887,2.6974,2.6701,2.6258,2.6347,2.6687,2.7112,2.7095,2.6819,2.6426,2.6426,2.5869,2.5035,2.4283,2.3873,2.3548,2.2735,1.6138,0.7314,-0.0048,-1.3549,-2.5918,-2.6595,-2.705,-2.7485,-2.8102,-2.8774,-2.9601,-3.0835,-3.1353,-3.1881,-3.2719,-3.2993,-3.3111,-3.3296,-3.3755,-3.4199,-3.4581,-3.4958,-3.5281,-3.546,-3.5493,-3.5515,-3.5553,-3.5618,-3.5687,-3.5801,-3.5869,-3.5923,-3.6004,-3.6004,-3.6004,-3.6004,-3.5918,-3.5835,-3.5792,-3.5638,-3.5523,-3.5443,-3.527,-3.5088,-3.4889,-3.4634,-3.4237,0.0,0.0,0.0,0.0,0.0,0.0,2.4096,2.4879,2.5709,2.6505,2.6884,2.723,2.7921,2.821,2.8366,2.8435,2.8634,2.8975,2.9453,2.9332,2.9312,2.9589,2.9754,2.9805,2.9736,2.9734,2.9626,2.9353,2.9228,2.886,2.8183,2.8102,2.7783,2.7072,2.7186,2.7279,2.7303,2.7648,2.7713,2.7496,2.7378,2.721,2.6942,2.6708,2.6792,2.7158,2.7353,2.7503,2.7568,2.7676,2.7255,2.6564,2.6668,2.7297,2.8134,2.7995,2.7836,2.7705,2.7705,2.7121,2.6274,2.5771,2.5224,2.4693,2.4262,2.3108,1.8478,0.173,-1.369,-2.5515,-2.7103,-2.8021,-2.8499,-2.8244,-2.9281,-3.036,-3.0384,-3.0898,-3.1629,-3.2702,-3.2916,-3.3019,-3.3367,-3.347,-3.3751,-3.4524,-3.4699,-3.4904,-3.5364,-3.5412,-3.5441,-3.5528,-3.563,-3.5702,-3.5725,-3.589,-3.5991,-3.5991,-3.5991,-3.5991,-3.5991,-3.5888,-3.5817,-3.5817,-3.5611,-3.5507,-3.5495,-3.5281,-3.4944,-3.451,-3.4486,-3.4232,0.0,0.0,0.0,0.0,2.169,0.0,2.2469,2.3302,2.4117,2.4587,2.5357,2.6094,2.6438,2.7026,2.7484,2.7526,2.7911,2.8376,2.8952,2.9064,2.9148,2.9212,2.9355,2.9357,2.9254,2.9336,2.9293,2.9026,2.891,2.8743,2.8422,2.8165,2.7811,2.7334,2.7152,2.712,2.7213,2.7334,2.7396,2.7352,2.7066,2.6791,2.6504,2.626,2.6595,2.7414,2.764,2.7816,2.8015,2.8281,2.835,2.8219,2.8027,2.8407,2.9093,2.8846,2.8301,2.7705,2.7705,2.7105,2.6244,2.5756,2.5224,2.4693,2.4262,1.937,1.0434,-0.6728,-1.4303,-1.8907,-2.6284,-2.8324,-2.8387,-2.8238,-2.8431,-2.8995,-3.0153,-2.9985,-3.0261,-3.2468,-3.2916,-3.293,-3.2988,-3.327,-3.356,-3.3725,-3.4088,-3.448,-3.4884,-3.4939,-3.5117,-3.5611,-3.5676,-3.5767,-3.5927,-3.5985,-3.5991,-3.5991,-3.5991,-3.5991,-3.5991,-3.5915,-3.5887,-3.5887,-3.5749,-3.5615,-3.5495,-3.5174,-3.4905,-3.4658,-3.4375,-3.408,0.0,0.0,0.0,2.057,2.0868,0.0,0.0,2.2289,2.2922,2.3443,2.4219,2.4962,2.5464,2.6025,2.6505,2.6622,2.7043,2.746,2.7766,2.8355,2.8842,2.9064,2.9212,2.9251,2.9107,2.9126,2.9056,2.8815,2.8785,2.8687,2.8492,2.8165,2.7811,2.7409,2.7181,2.7055,2.7055,2.7227,2.7241,2.7166,2.7131,2.7042,2.6952,2.6862,2.7262,2.8076,2.8205,2.8386,2.8695,2.907,2.9446,2.9703,2.8688,2.9053,3.0093,2.9717,2.9198,2.8757,2.8757,2.8151,2.7318,2.7067,2.6606,2.6035,2.5531,1.9031,0.9033,-0.4168,-1.1335,-1.707,-2.606,-2.8411,-2.8396,-2.8299,-2.8235,-2.8511,-2.9615,-2.9456,-2.9615,-3.121,-3.1774,-3.2127,-3.2802,-3.3063,-3.3288,-3.347,-3.3692,-3.4017,-3.444,-3.4502,-3.468,-3.5191,-3.5309,-3.5494,-3.5813,-3.5914,-3.5955,-3.5991,-3.5991,-3.5991,-3.5991,-3.5937,-3.5903,-3.5908,-3.5791,-3.5728,-3.5649,-3.5309,-3.4986,-3.4679,-3.4371,-3.4049,0.0,0.0,0.0,0.0,1.9978,2.032,0.0,0.0,0.0,2.2462,2.3068,2.3724,0.0,0.0,0.0,2.5447,0.0,0.0,2.6404,2.733,2.8192,2.8795,2.8975,2.902,2.8929,2.8879,2.8803,2.8694,2.8644,2.8594,2.8492,2.8138,2.7783,2.7457,2.7181,2.699,2.6842,2.7223,2.7324,2.7213,2.7498,2.7634,2.7611,2.7637,2.8003,2.8693,2.8791,2.9076,2.9534,2.9844,3.0376,3.0858,2.9365,2.9685,3.0958,3.0483,3.0054,2.9722,2.9766,2.9198,2.8411,2.8411,2.791,2.7261,2.6692,2.0781,1.2058,0.1322,-0.6892,-1.4877,-2.5629,-2.8411,-2.8411,-2.8411,-2.8299,-2.8431,-2.9191,-2.9085,-2.9159,-3.0062,-3.0442,-3.1048,-3.2401,-3.2687,-3.2876,-3.331,-3.3348,-3.3497,-3.4011,-3.4083,-3.4229,-3.4661,-3.4893,-3.5166,-3.5553,-3.5748,-3.5869,-3.5931,-3.5931,-3.5931,-3.5931,-3.5893,-3.589,-3.5894,-3.5852,-3.5815,-3.5791,-3.548,-3.51,-3.4718,-3.4379,-3.3988,0.0,0.0,0.0,1.8104,1.8762,1.9303,1.9085,0.0,2.0832,2.1161,0.0,2.2229,0.0,0.0,0.0,0.0,0.0,2.5239,2.5338,2.6029,2.6884,2.784,2.8065,2.8174,2.8291,2.8309,2.8388,2.8587,2.8458,2.8388,2.8492,2.8,2.7701,2.7565,2.7152,2.6876,2.6742,2.7385,2.7793,2.7896,2.8342,2.8381,2.802,2.7785,2.816,2.9066,2.9164,2.9715,3.0517,3.0647,3.0943,3.1304,3.0723,3.0864,3.1316,3.1116,3.0344,2.938,2.9722,2.9198,2.8411,2.8411,2.7645,2.6678,2.6136,2.4847,1.9961,0.3043,-0.2413,-0.7115,-2.402,-2.8411,-2.8411,-2.8411,-2.8411,-2.8605,-2.9313,-2.8748,-2.8575,-3.0053,-2.9713,-2.9713,-3.1465,-3.1951,-3.2317,-3.288,-3.2798,-3.2916,-3.3497,-3.356,-3.3771,-3.4295,-3.4729,-3.5043,-3.5162,-3.5505,-3.5737,-3.5725,-3.5725,-3.5725,-3.5725,-3.5779,-3.5831,-3.5894,-3.5883,-3.5866,-3.5799,-3.5524,-3.5175,-3.4789,-3.444,-3.3738,0.0,0.0,1.7556,1.7401,1.7941,1.8429,1.8027,1.834,1.8797,1.9101,0.0,0.0,0.0,0.0,0.0,0.0,2.3053,2.3751,2.3917,2.4309,2.5239,2.6914,2.7151,2.7291,2.7542,2.7572,2.766,2.7897,2.7736,2.7689,2.7908,2.7547,2.7369,2.7382,2.7383,2.7402,2.7351,2.8112,2.8501,2.8465,2.8891,2.8913,2.8568,2.8992,2.9394,2.9756,3.0029,3.0212,3.0326,3.0601,3.0794,3.096,3.0771,3.1106,3.1657,3.1329,3.0716,2.9968,2.9853,2.9348,2.8732,2.8493,2.786,2.7041,2.6549,2.5974,2.2779,0.9742,0.607,0.3154,-0.9607,-1.2887,-1.4195,-1.9396,-2.0631,-2.206,-2.7468,-2.8301,-2.8155,-2.8685,-2.8887,-2.9399,-3.057,-3.1336,-3.1951,-3.2488,-3.2672,-3.288,-3.3118,-3.3148,-3.3432,-3.4173,-3.4427,-3.4769,-3.5341,-3.5532,-3.566,-3.5693,-3.5693,-3.5737,-3.5807,-3.5806,-3.5839,-3.5903,-3.5903,-3.5884,-3.586,-3.5747,-3.5504,-3.5133,-3.4548,-3.3706,1.6083,1.6641,1.6989,1.6662,1.7157,1.7589,1.7101,1.7157,1.7368,1.7556,1.7761,0.0,0.0,0.0,0.0,0.0,0.0,2.1853,0.0,2.2566,2.3549,2.5645,2.6098,2.6421,2.6899,2.6901,2.6982,2.7251,2.7095,2.7126,2.7391,2.7147,2.7107,2.736,2.7658,2.7838,2.795,2.8817,2.9076,2.8793,2.9486,2.9552,2.8979,2.9815,3.0189,3.0172,3.0493,3.0435,3.014,3.046,3.0592,3.068,3.0608,3.1067,3.1674,3.1329,3.0838,3.0309,2.9924,2.9393,2.8873,2.8493,2.791,2.7195,2.6834,2.6229,2.3714,1.4324,1.1718,0.9086,-0.236,-0.5319,-0.7608,-1.6558,-1.8672,-2.0429,-2.6728,-2.8054,-2.8005,-2.7725,-2.8383,-2.9118,-2.9789,-3.0734,-3.1625,-3.2197,-3.2488,-3.2654,-3.2737,-3.2852,-3.3154,-3.3773,-3.3944,-3.4341,-3.5158,-3.5328,-3.5449,-3.5631,-3.566,-3.5715,-3.584,-3.5802,-3.5804,-3.5898,-3.5893,-3.5901,-3.5893,-3.5921,-3.5743,-3.5374,-3.474,-3.3711,1.6046,1.6151,1.6197,1.5584,1.6073,1.6574,1.6093,1.6472,1.7024,1.7013,1.6623,1.6581,1.7456,0.0,0.0,0.0,0.0,0.0,0.0,0.0,2.1963,2.3845,2.4837,2.5639,2.6421,2.6335,2.6421,2.6865,2.679,2.6858,2.7181,2.6956,2.7131,2.7757,2.7807,2.7964,2.8268,2.9348,2.9486,2.8735,3.0235,3.0276,2.9134,2.9853,3.013,3.0027,3.0172,3.0342,3.046,3.0518,3.0543,3.0584,3.0518,3.0845,3.1295,3.123,3.0716,2.9984,2.9837,2.9198,2.8396,2.8396,2.7645,2.673,2.673,2.5906,2.3184,1.4224,1.1718,0.7614,-1.001,-1.4591,-1.685,-2.5845,-2.7957,-2.8051,-2.8317,-2.8299,-2.8137,-2.8005,-2.8268,-2.8654,-2.9074,-3.014,-3.1235,-3.2179,-3.2162,-3.2109,-3.2283,-3.2672,-3.2916,-3.293,-3.327,-3.3718,-3.4199,-3.4583,-3.5026,-3.5474,-3.552,-3.5577,-3.5693,-3.5704,-3.5759,-3.5898,-3.5898,-3.5895,-3.5893,-3.597,-3.5786,-3.5386,-3.4971,-3.3792,1.5989,1.6093,1.614,1.5526,1.5806,1.6036,1.543,1.5352,1.5323,1.5323,1.4758,1.4387,1.4906,0.0,0.0,0.0,0.0,0.0,0.0,0.0,1.994,2.1389,2.2908,0.0,2.4768,2.4854,2.5173,2.5875,2.5815,2.5901,2.6118,2.6491,2.6817,2.7135,2.802,2.8589,2.8779,2.9642,2.9838,2.9307,2.9811,2.9645,2.8889,2.9512,2.9661,2.9438,3.0182,3.0123,2.9601,2.9924,3.0175,3.0377,3.0107,3.0649,3.1545,3.1291,3.1015,3.0716,3.0011,2.9198,2.8411,2.8411,2.786,2.7144,2.6782,2.6176,2.4901,2.1443,2.047,1.9127,1.3041,1.1497,0.7722,-0.7172,-1.0726,-1.3942,-2.5747,-2.8235,-2.8137,-2.7905,-2.8494,-2.912,-2.9464,-3.0123,-3.0821,-3.1414,-3.1677,-3.1823,-3.1896,-3.2003,-3.2213,-3.2542,-3.2693,-3.3166,-3.412,-3.4846,-3.533,-3.5493,-3.5493,-3.5547,-3.564,-3.5674,-3.5762,-3.5903,-3.5935,-3.597,-3.5974,-3.5991,-3.5937,-3.5779,-3.48,-3.3462,1.6379,1.6208,1.6026,1.5468,1.5362,1.5313,1.4911,1.4675,1.4488,1.4488,1.3674,1.3183,1.3906,0.0,0.0,0.0,0.0,0.0,0.0,1.7872,1.8549,1.9685,2.1233,0.0,0.0,2.3791,2.4266,2.4879,2.5107,2.5429,2.5895,2.6354,2.6863,2.7461,2.8412,2.8997,2.9183,2.9815,2.9826,2.9273,2.9438,2.9166,2.8527,2.9104,2.9241,2.9074,2.9865,2.9777,2.912,2.9499,2.9717,2.987,2.9821,3.0402,3.1261,3.1213,3.0975,3.0576,2.9837,2.9059,2.8411,2.8411,2.8008,2.7464,2.7093,2.6496,2.5783,2.5177,2.4996,2.4249,2.0804,2.0116,1.6588,0.1802,-0.1679,-0.5704,-2.0367,-2.3526,-2.434,-2.7295,-2.8685,-2.9364,-2.9223,-2.9805,-3.0435,-3.1004,-3.13,-3.149,-3.149,-3.1603,-3.1808,-3.2107,-3.2175,-3.2572,-3.3654,-3.441,-3.4902,-3.503,-3.5047,-3.5073,-3.5124,-3.5345,-3.5495,-3.5616,-3.5855,-3.5955,-3.5955,-3.5966,-3.5981,-3.5968,-3.4374,-3.3063]}]]